Missouri River (Missouri), Rulo (06813500)

StateMissouriLatestUnknown (43000 cfs)
RiverMissouri RiverRatingObservedEstimated
Updated2020-08-14 5:30 (52 minutes ago)Flood - The river is flooding. Obstacles can be treacherous or deadly. The river should be avoided at this stage for casual trips and definitely for the inexperienced. Trips should be attempted only with protective gear and equipment.Flood(none)(none)
Discharge43000 cfs (median: 40700 cfs)High - The river is high and potentially dangerous, especially for the young and / or inexperienced. Normal stream obstacles are sometimes difficult to navigate. Extended distances can be attempted, but canoe travel may not be advisable.High(none)(none)
Height8.68 feetGood - Conditions are ideal for a canoe or kayak. Boats typically will drag on fewer than one-quarter of riffles, if at all, and portages are unnecessary or rare. Normal float lengths can be attempted without a problem.Good(none)(none)
TrendSteady (falling over 24 hours)Low - River is low but can still be floated. Some riffles are okay but most come with significant dragging and might need a portage. Float lengths should be reduced to accommodate low flow, dragging, and portages.Low(none)(none)
USGSExternal icon USGS Site (External icon Google Maps)Poor - River is too low to float comfortably. Most or all riffles will drag or must be portaged and some obstacles (such as slick shelf rock) cause undue problems. Avoid the river at this stage for casual paddling trips.Poor(none)(none)

Trending Data

Plot Image

Trips for Missouri River (Missouri), Rulo (06813500)

DateStartEndDistanceConditionDischargeHeightFishingDetails

A total of 0 rows are displayed.

Condition Descriptions

Fishing Conditions

Fish Species

Notes

Classic Trip List

The classic River Trips application is still available for use. It is updated with the new system using a data retrofit. It is no longer maintained. The original River Trips application is no longer updated (as of 1 Dec 2016) but can be checked for errors or for the condition of the data before it was converted to the new system.

Gauge Data Table

ObservationHeightDischargeMaximum
Discharge
Minimum
Discharge
Mean
Discharge
P05P10P20P25P50
(Median)
P75P80P90P95
2020-08-14 05:30 8.68 43000 182000 (2011) 28900 (2013) 47400 30300 32300 34600 35300 40700 50400 56600 72800 87500
2020-08-14 04:30 8.68 43000 182000 (2011) 28900 (2013) 47400 30300 32300 34600 35300 40700 50400 56600 72800 87500
2020-08-14 03:30 8.72 43200 182000 (2011) 28900 (2013) 47400 30300 32300 34600 35300 40700 50400 56600 72800 87500
2020-08-14 02:30 8.71 43200 182000 (2011) 28900 (2013) 47400 30300 32300 34600 35300 40700 50400 56600 72800 87500
2020-08-14 01:30 8.72 43200 182000 (2011) 28900 (2013) 47400 30300 32300 34600 35300 40700 50400 56600 72800 87500
2020-08-14 00:30 8.71 43200 182000 (2011) 28900 (2013) 47400 30300 32300 34600 35300 40700 50400 56600 72800 87500
2020-08-13 23:30 8.70 43100 181000 (2011) 29000 (2013) 47500 30600 33000 34300 34800 40400 52000 58200 69400 89000
2020-08-13 22:30 8.71 43200 181000 (2011) 29000 (2013) 47500 30600 33000 34300 34800 40400 52000 58200 69400 89000
2020-08-13 21:30 8.70 43100 181000 (2011) 29000 (2013) 47500 30600 33000 34300 34800 40400 52000 58200 69400 89000
2020-08-13 20:30 8.71 43200 181000 (2011) 29000 (2013) 47500 30600 33000 34300 34800 40400 52000 58200 69400 89000
2020-08-13 19:30 8.68 43000 181000 (2011) 29000 (2013) 47500 30600 33000 34300 34800 40400 52000 58200 69400 89000
2020-08-13 18:30 8.72 43200 181000 (2011) 29000 (2013) 47500 30600 33000 34300 34800 40400 52000 58200 69400 89000
2020-08-13 17:30 8.73 43300 181000 (2011) 29000 (2013) 47500 30600 33000 34300 34800 40400 52000 58200 69400 89000
2020-08-13 16:30 8.75 43400 181000 (2011) 29000 (2013) 47500 30600 33000 34300 34800 40400 52000 58200 69400 89000
2020-08-13 15:30 8.75 43400 181000 (2011) 29000 (2013) 47500 30600 33000 34300 34800 40400 52000 58200 69400 89000
2020-08-13 14:30 8.74 43300 181000 (2011) 29000 (2013) 47500 30600 33000 34300 34800 40400 52000 58200 69400 89000
2020-08-13 13:30 8.75 42900 181000 (2011) 29000 (2013) 47500 30600 33000 34300 34800 40400 52000 58200 69400 89000
2020-08-13 12:30 8.80 43200 181000 (2011) 29000 (2013) 47500 30600 33000 34300 34800 40400 52000 58200 69400 89000
2020-08-13 11:30 8.79 43100 181000 (2011) 29000 (2013) 47500 30600 33000 34300 34800 40400 52000 58200 69400 89000
2020-08-13 10:30 8.79 43100 181000 (2011) 29000 (2013) 47500 30600 33000 34300 34800 40400 52000 58200 69400 89000
2020-08-13 09:30 8.81 43200 181000 (2011) 29000 (2013) 47500 30600 33000 34300 34800 40400 52000 58200 69400 89000
2020-08-13 08:30 8.82 43300 181000 (2011) 29000 (2013) 47500 30600 33000 34300 34800 40400 52000 58200 69400 89000
2020-08-13 07:30 8.84 43400 181000 (2011) 29000 (2013) 47500 30600 33000 34300 34800 40400 52000 58200 69400 89000
2020-08-13 06:30 8.86 43500 181000 (2011) 29000 (2013) 47500 30600 33000 34300 34800 40400 52000 58200 69400 89000
2020-08-13 05:30 8.87 43500 181000 (2011) 29000 (2013) 47500 30600 33000 34300 34800 40400 52000 58200 69400 89000
2020-08-13 04:30 8.87 43500 181000 (2011) 29000 (2013) 47500 30600 33000 34300 34800 40400 52000 58200 69400 89000
2020-08-13 03:30 8.88 43600 181000 (2011) 29000 (2013) 47500 30600 33000 34300 34800 40400 52000 58200 69400 89000
2020-08-13 02:30 8.89 43600 181000 (2011) 29000 (2013) 47500 30600 33000 34300 34800 40400 52000 58200 69400 89000
2020-08-13 01:30 8.87 43500 181000 (2011) 29000 (2013) 47500 30600 33000 34300 34800 40400 52000 58200 69400 89000
2020-08-13 00:30 8.88 43600 181000 (2011) 29000 (2013) 47500 30600 33000 34300 34800 40400 52000 58200 69400 89000
2020-08-12 23:30 8.90 43700 180000 (2011) 29200 (2013) 47800 31200 33200 34600 35300 40800 50800 56700 69100 91400
2020-08-12 22:30 8.89 43600 180000 (2011) 29200 (2013) 47800 31200 33200 34600 35300 40800 50800 56700 69100 91400
2020-08-12 21:30 8.89 43600 180000 (2011) 29200 (2013) 47800 31200 33200 34600 35300 40800 50800 56700 69100 91400
2020-08-12 20:30 8.91 43700 180000 (2011) 29200 (2013) 47800 31200 33200 34600 35300 40800 50800 56700 69100 91400
2020-08-12 19:30 8.89 43600 180000 (2011) 29200 (2013) 47800 31200 33200 34600 35300 40800 50800 56700 69100 91400
2020-08-12 18:30 8.85 43400 180000 (2011) 29200 (2013) 47800 31200 33200 34600 35300 40800 50800 56700 69100 91400
2020-08-12 17:30 8.86 43500 180000 (2011) 29200 (2013) 47800 31200 33200 34600 35300 40800 50800 56700 69100 91400
2020-08-12 16:30 8.86 43500 180000 (2011) 29200 (2013) 47800 31200 33200 34600 35300 40800 50800 56700 69100 91400
2020-08-12 15:30 8.87 43500 180000 (2011) 29200 (2013) 47800 31200 33200 34600 35300 40800 50800 56700 69100 91400
2020-08-12 14:30 8.86 43500 180000 (2011) 29200 (2013) 47800 31200 33200 34600 35300 40800 50800 56700 69100 91400
2020-08-12 13:30 8.86 43500 180000 (2011) 29200 (2013) 47800 31200 33200 34600 35300 40800 50800 56700 69100 91400
2020-08-12 12:30 8.85 43400 180000 (2011) 29200 (2013) 47800 31200 33200 34600 35300 40800 50800 56700 69100 91400
2020-08-12 11:30 8.85 43400 180000 (2011) 29200 (2013) 47800 31200 33200 34600 35300 40800 50800 56700 69100 91400
2020-08-12 10:30 8.84 43400 180000 (2011) 29200 (2013) 47800 31200 33200 34600 35300 40800 50800 56700 69100 91400
2020-08-12 09:30 8.82 43300 180000 (2011) 29200 (2013) 47800 31200 33200 34600 35300 40800 50800 56700 69100 91400
2020-08-12 08:30 8.86 43500 180000 (2011) 29200 (2013) 47800 31200 33200 34600 35300 40800 50800 56700 69100 91400
2020-08-12 07:30 8.86 43500 180000 (2011) 29200 (2013) 47800 31200 33200 34600 35300 40800 50800 56700 69100 91400
2020-08-12 06:30 8.88 43600 180000 (2011) 29200 (2013) 47800 31200 33200 34600 35300 40800 50800 56700 69100 91400
2020-08-12 05:30 8.87 43500 180000 (2011) 29200 (2013) 47800 31200 33200 34600 35300 40800 50800 56700 69100 91400
2020-08-12 04:30 8.89 43600 180000 (2011) 29200 (2013) 47800 31200 33200 34600 35300 40800 50800 56700 69100 91400
2020-08-12 03:30 8.88 43600 180000 (2011) 29200 (2013) 47800 31200 33200 34600 35300 40800 50800 56700 69100 91400
2020-08-12 02:30 8.87 43500 180000 (2011) 29200 (2013) 47800 31200 33200 34600 35300 40800 50800 56700 69100 91400
2020-08-12 01:30 8.86 43500 180000 (2011) 29200 (2013) 47800 31200 33200 34600 35300 40800 50800 56700 69100 91400
2020-08-12 00:30 8.87 43500 180000 (2011) 29200 (2013) 47800 31200 33200 34600 35300 40800 50800 56700 69100 91400
2020-08-11 23:30 8.88 43600 181000 (2011) 29000 (2013) 47900 30400 32400 35400 35700 40800 52000 54900 69300 94900
2020-08-11 22:30 8.87 43500 181000 (2011) 29000 (2013) 47900 30400 32400 35400 35700 40800 52000 54900 69300 94900
2020-08-11 21:30 8.84 43400 181000 (2011) 29000 (2013) 47900 30400 32400 35400 35700 40800 52000 54900 69300 94900
2020-08-11 20:30 8.84 43400 181000 (2011) 29000 (2013) 47900 30400 32400 35400 35700 40800 52000 54900 69300 94900
2020-08-11 19:30 8.84 43400 181000 (2011) 29000 (2013) 47900 30400 32400 35400 35700 40800 52000 54900 69300 94900
2020-08-11 18:30 8.81 43200 181000 (2011) 29000 (2013) 47900 30400 32400 35400 35700 40800 52000 54900 69300 94900
2020-08-11 17:30 8.80 43200 181000 (2011) 29000 (2013) 47900 30400 32400 35400 35700 40800 52000 54900 69300 94900
2020-08-11 16:30 8.79 43100 181000 (2011) 29000 (2013) 47900 30400 32400 35400 35700 40800 52000 54900 69300 94900
2020-08-11 15:30 8.79 43100 181000 (2011) 29000 (2013) 47900 30400 32400 35400 35700 40800 52000 54900 69300 94900
2020-08-11 14:30 8.79 43100 181000 (2011) 29000 (2013) 47900 30400 32400 35400 35700 40800 52000 54900 69300 94900
2020-08-11 13:30 8.77 43000 181000 (2011) 29000 (2013) 47900 30400 32400 35400 35700 40800 52000 54900 69300 94900
2020-08-11 12:30 8.79 43100 181000 (2011) 29000 (2013) 47900 30400 32400 35400 35700 40800 52000 54900 69300 94900
2020-08-11 11:30 8.79 43100 181000 (2011) 29000 (2013) 47900 30400 32400 35400 35700 40800 52000 54900 69300 94900
2020-08-11 10:30 8.79 43100 181000 (2011) 29000 (2013) 47900 30400 32400 35400 35700 40800 52000 54900 69300 94900
2020-08-11 09:30 8.79 43100 181000 (2011) 29000 (2013) 47900 30400 32400 35400 35700 40800 52000 54900 69300 94900
2020-08-11 08:30 8.81 43200 181000 (2011) 29000 (2013) 47900 30400 32400 35400 35700 40800 52000 54900 69300 94900
2020-08-11 07:30 8.82 43300 181000 (2011) 29000 (2013) 47900 30400 32400 35400 35700 40800 52000 54900 69300 94900
2020-08-11 06:30 8.84 43400 181000 (2011) 29000 (2013) 47900 30400 32400 35400 35700 40800 52000 54900 69300 94900
2020-08-11 05:30 8.85 43400 181000 (2011) 29000 (2013) 47900 30400 32400 35400 35700 40800 52000 54900 69300 94900
2020-08-11 04:30 8.85 43400 181000 (2011) 29000 (2013) 47900 30400 32400 35400 35700 40800 52000 54900 69300 94900
2020-08-11 03:30 8.85 43400 181000 (2011) 29000 (2013) 47900 30400 32400 35400 35700 40800 52000 54900 69300 94900
2020-08-11 02:30 8.85 43400 181000 (2011) 29000 (2013) 47900 30400 32400 35400 35700 40800 52000 54900 69300 94900
2020-08-11 01:30 8.89 43600 181000 (2011) 29000 (2013) 47900 30400 32400 35400 35700 40800 52000 54900 69300 94900
2020-08-11 00:30 8.90 43700 181000 (2011) 29000 (2013) 47900 30400 32400 35400 35700 40800 52000 54900 69300 94900
2020-08-10 23:30 8.93 43800 182000 (2011) 29600 (2013) 48800 30400 32200 34800 35800 41300 53600 57900 72600 101000
2020-08-10 22:30 8.90 43700 182000 (2011) 29600 (2013) 48800 30400 32200 34800 35800 41300 53600 57900 72600 101000
2020-08-10 21:30 8.95 43900 182000 (2011) 29600 (2013) 48800 30400 32200 34800 35800 41300 53600 57900 72600 101000
2020-08-10 20:30 8.91 43700 182000 (2011) 29600 (2013) 48800 30400 32200 34800 35800 41300 53600 57900 72600 101000
2020-08-10 19:30 8.95 43900 182000 (2011) 29600 (2013) 48800 30400 32200 34800 35800 41300 53600 57900 72600 101000
2020-08-10 18:30 8.92 43800 182000 (2011) 29600 (2013) 48800 30400 32200 34800 35800 41300 53600 57900 72600 101000
2020-08-10 17:30 8.91 43700 182000 (2011) 29600 (2013) 48800 30400 32200 34800 35800 41300 53600 57900 72600 101000
2020-08-10 16:30 8.89 43600 182000 (2011) 29600 (2013) 48800 30400 32200 34800 35800 41300 53600 57900 72600 101000
2020-08-10 15:30 8.88 43600 182000 (2011) 29600 (2013) 48800 30400 32200 34800 35800 41300 53600 57900 72600 101000
2020-08-10 14:30 8.87 43500 182000 (2011) 29600 (2013) 48800 30400 32200 34800 35800 41300 53600 57900 72600 101000
2020-08-10 13:30 8.89 43600 182000 (2011) 29600 (2013) 48800 30400 32200 34800 35800 41300 53600 57900 72600 101000
2020-08-10 12:30 8.89 43600 182000 (2011) 29600 (2013) 48800 30400 32200 34800 35800 41300 53600 57900 72600 101000
2020-08-10 11:30 8.89 43600 182000 (2011) 29600 (2013) 48800 30400 32200 34800 35800 41300 53600 57900 72600 101000
2020-08-10 10:30 8.88 43600 182000 (2011) 29600 (2013) 48800 30400 32200 34800 35800 41300 53600 57900 72600 101000
2020-08-10 09:30 8.90 43700 182000 (2011) 29600 (2013) 48800 30400 32200 34800 35800 41300 53600 57900 72600 101000
2020-08-10 08:30 8.89 43600 182000 (2011) 29600 (2013) 48800 30400 32200 34800 35800 41300 53600 57900 72600 101000
2020-08-10 07:30 8.92 43800 182000 (2011) 29600 (2013) 48800 30400 32200 34800 35800 41300 53600 57900 72600 101000
2020-08-10 06:30 8.92 43800 182000 (2011) 29600 (2013) 48800 30400 32200 34800 35800 41300 53600 57900 72600 101000
2020-08-10 05:30 8.92 43800 182000 (2011) 29600 (2013) 48800 30400 32200 34800 35800 41300 53600 57900 72600 101000
2020-08-10 04:30 8.93 43800 182000 (2011) 29600 (2013) 48800 30400 32200 34800 35800 41300 53600 57900 72600 101000
2020-08-10 03:30 8.96 44000 182000 (2011) 29600 (2013) 48800 30400 32200 34800 35800 41300 53600 57900 72600 101000
2020-08-10 02:30 8.97 44000 182000 (2011) 29600 (2013) 48800 30400 32200 34800 35800 41300 53600 57900 72600 101000
2020-08-10 01:30 8.95 43900 182000 (2011) 29600 (2013) 48800 30400 32200 34800 35800 41300 53600 57900 72600 101000
2020-08-10 00:30 8.95 43900 182000 (2011) 29600 (2013) 48800 30400 32200 34800 35800 41300 53600 57900 72600 101000
2020-08-09 23:30 8.98 44100 183000 (2011) 26600 (1955) 49800 30800 31700 34600 36000 41900 55000 59700 72300 105000
2020-08-09 22:30 8.98 44100 183000 (2011) 26600 (1955) 49800 30800 31700 34600 36000 41900 55000 59700 72300 105000
2020-08-09 21:30 8.99 44100 183000 (2011) 26600 (1955) 49800 30800 31700 34600 36000 41900 55000 59700 72300 105000
2020-08-09 20:30 9.00 44200 183000 (2011) 26600 (1955) 49800 30800 31700 34600 36000 41900 55000 59700 72300 105000
2020-08-09 19:30 8.97 44000 183000 (2011) 26600 (1955) 49800 30800 31700 34600 36000 41900 55000 59700 72300 105000
2020-08-09 18:30 8.97 44000 183000 (2011) 26600 (1955) 49800 30800 31700 34600 36000 41900 55000 59700 72300 105000
2020-08-09 17:30 8.98 44100 183000 (2011) 26600 (1955) 49800 30800 31700 34600 36000 41900 55000 59700 72300 105000
2020-08-09 16:30 8.97 44000 183000 (2011) 26600 (1955) 49800 30800 31700 34600 36000 41900 55000 59700 72300 105000
2020-08-09 15:30 8.98 44100 183000 (2011) 26600 (1955) 49800 30800 31700 34600 36000 41900 55000 59700 72300 105000
2020-08-09 14:30 8.98 44100 183000 (2011) 26600 (1955) 49800 30800 31700 34600 36000 41900 55000 59700 72300 105000
2020-08-09 13:30 8.96 44000 183000 (2011) 26600 (1955) 49800 30800 31700 34600 36000 41900 55000 59700 72300 105000
2020-08-09 12:30 8.96 44000 183000 (2011) 26600 (1955) 49800 30800 31700 34600 36000 41900 55000 59700 72300 105000
2020-08-09 11:30 9.00 44200 183000 (2011) 26600 (1955) 49800 30800 31700 34600 36000 41900 55000 59700 72300 105000
2020-08-09 10:30 8.98 44100 183000 (2011) 26600 (1955) 49800 30800 31700 34600 36000 41900 55000 59700 72300 105000
2020-08-09 09:30 9.00 44200 183000 (2011) 26600 (1955) 49800 30800 31700 34600 36000 41900 55000 59700 72300 105000
2020-08-09 08:30 9.01 44200 183000 (2011) 26600 (1955) 49800 30800 31700 34600 36000 41900 55000 59700 72300 105000
2020-08-09 07:30 9.00 44200 183000 (2011) 26600 (1955) 49800 30800 31700 34600 36000 41900 55000 59700 72300 105000
2020-08-09 06:30 9.03 44300 183000 (2011) 26600 (1955) 49800 30800 31700 34600 36000 41900 55000 59700 72300 105000
2020-08-09 05:30 9.04 44400 183000 (2011) 26600 (1955) 49800 30800 31700 34600 36000 41900 55000 59700 72300 105000
2020-08-09 04:30 9.04 44400 183000 (2011) 26600 (1955) 49800 30800 31700 34600 36000 41900 55000 59700 72300 105000
2020-08-09 03:30 9.07 44500 183000 (2011) 26600 (1955) 49800 30800 31700 34600 36000 41900 55000 59700 72300 105000
2020-08-09 02:30 9.06 44500 183000 (2011) 26600 (1955) 49800 30800 31700 34600 36000 41900 55000 59700 72300 105000
2020-08-09 01:30 9.10 44700 183000 (2011) 26600 (1955) 49800 30800 31700 34600 36000 41900 55000 59700 72300 105000
2020-08-09 00:30 9.08 44600 183000 (2011) 26600 (1955) 49800 30800 31700 34600 36000 41900 55000 59700 72300 105000
2020-08-08 23:30 9.13 44900 186000 (2011) 18200 (1955) 49700 31400 32900 34700 35100 41500 54000 59000 72200 108000
2020-08-08 22:30 9.14 44900 186000 (2011) 18200 (1955) 49700 31400 32900 34700 35100 41500 54000 59000 72200 108000
2020-08-08 21:30 9.15 45000 186000 (2011) 18200 (1955) 49700 31400 32900 34700 35100 41500 54000 59000 72200 108000
2020-08-08 20:30 9.14 44900 186000 (2011) 18200 (1955) 49700 31400 32900 34700 35100 41500 54000 59000 72200 108000
2020-08-08 19:30 9.15 45000 186000 (2011) 18200 (1955) 49700 31400 32900 34700 35100 41500 54000 59000 72200 108000
2020-08-08 18:30 9.12 44800 186000 (2011) 18200 (1955) 49700 31400 32900 34700 35100 41500 54000 59000 72200 108000
2020-08-08 17:30 9.13 44900 186000 (2011) 18200 (1955) 49700 31400 32900 34700 35100 41500 54000 59000 72200 108000
2020-08-08 16:30 9.10 44700 186000 (2011) 18200 (1955) 49700 31400 32900 34700 35100 41500 54000 59000 72200 108000
2020-08-08 15:30 9.10 44700 186000 (2011) 18200 (1955) 49700 31400 32900 34700 35100 41500 54000 59000 72200 108000
2020-08-08 14:30 9.09 44700 186000 (2011) 18200 (1955) 49700 31400 32900 34700 35100 41500 54000 59000 72200 108000
2020-08-08 13:30 9.12 44800 186000 (2011) 18200 (1955) 49700 31400 32900 34700 35100 41500 54000 59000 72200 108000
2020-08-08 12:30 9.09 44700 186000 (2011) 18200 (1955) 49700 31400 32900 34700 35100 41500 54000 59000 72200 108000
2020-08-08 11:30 9.09 44700 186000 (2011) 18200 (1955) 49700 31400 32900 34700 35100 41500 54000 59000 72200 108000
2020-08-08 10:30 9.13 44900 186000 (2011) 18200 (1955) 49700 31400 32900 34700 35100 41500 54000 59000 72200 108000
2020-08-08 09:30 9.14 44900 186000 (2011) 18200 (1955) 49700 31400 32900 34700 35100 41500 54000 59000 72200 108000
2020-08-08 08:30 9.16 45000 186000 (2011) 18200 (1955) 49700 31400 32900 34700 35100 41500 54000 59000 72200 108000
2020-08-08 07:30 9.17 45100 186000 (2011) 18200 (1955) 49700 31400 32900 34700 35100 41500 54000 59000 72200 108000
2020-08-08 06:30 9.19 45200 186000 (2011) 18200 (1955) 49700 31400 32900 34700 35100 41500 54000 59000 72200 108000
2020-08-08 05:30 9.20 45200 186000 (2011) 18200 (1955) 49700 31400 32900 34700 35100 41500 54000 59000 72200 108000
2020-08-08 04:30 9.25 45500 186000 (2011) 18200 (1955) 49700 31400 32900 34700 35100 41500 54000 59000 72200 108000
2020-08-08 03:30 9.23 45400 186000 (2011) 18200 (1955) 49700 31400 32900 34700 35100 41500 54000 59000 72200 108000
2020-08-08 02:30 9.30 45700 186000 (2011) 18200 (1955) 49700 31400 32900 34700 35100 41500 54000 59000 72200 108000
2020-08-08 01:30 9.34 45900 186000 (2011) 18200 (1955) 49700 31400 32900 34700 35100 41500 54000 59000 72200 108000
2020-08-08 00:30 9.36 46000 186000 (2011) 18200 (1955) 49700 31400 32900 34700 35100 41500 54000 59000 72200 108000
2020-08-07 23:30 9.37 46100 188000 (2011) 12000 (1955) 49100 31100 32600 35600 36500 41100 54800 57800 72200 107000
2020-08-07 22:30 9.39 46200 188000 (2011) 12000 (1955) 49100 31100 32600 35600 36500 41100 54800 57800 72200 107000
2020-08-07 21:30 9.37 46100 188000 (2011) 12000 (1955) 49100 31100 32600 35600 36500 41100 54800 57800 72200 107000
2020-08-07 20:30 9.39 46200 188000 (2011) 12000 (1955) 49100 31100 32600 35600 36500 41100 54800 57800 72200 107000
2020-08-07 19:30 9.39 46200 188000 (2011) 12000 (1955) 49100 31100 32600 35600 36500 41100 54800 57800 72200 107000
2020-08-07 18:30 9.42 46300 188000 (2011) 12000 (1955) 49100 31100 32600 35600 36500 41100 54800 57800 72200 107000
2020-08-07 17:30 9.38 46100 188000 (2011) 12000 (1955) 49100 31100 32600 35600 36500 41100 54800 57800 72200 107000
2020-08-07 16:30 9.37 46100 188000 (2011) 12000 (1955) 49100 31100 32600 35600 36500 41100 54800 57800 72200 107000
2020-08-07 15:30 9.35 46000 188000 (2011) 12000 (1955) 49100 31100 32600 35600 36500 41100 54800 57800 72200 107000
2020-08-07 14:30 9.32 45800 188000 (2011) 12000 (1955) 49100 31100 32600 35600 36500 41100 54800 57800 72200 107000
2020-08-07 13:30 9.28 45600 188000 (2011) 12000 (1955) 49100 31100 32600 35600 36500 41100 54800 57800 72200 107000
2020-08-07 12:30 9.28 45600 188000 (2011) 12000 (1955) 49100 31100 32600 35600 36500 41100 54800 57800 72200 107000
2020-08-07 11:30 9.25 45500 188000 (2011) 12000 (1955) 49100 31100 32600 35600 36500 41100 54800 57800 72200 107000
2020-08-07 10:30 9.22 45300 188000 (2011) 12000 (1955) 49100 31100 32600 35600 36500 41100 54800 57800 72200 107000
2020-08-07 09:30 9.18 45100 188000 (2011) 12000 (1955) 49100 31100 32600 35600 36500 41100 54800 57800 72200 107000
2020-08-07 08:30 9.17 45100 188000 (2011) 12000 (1955) 49100 31100 32600 35600 36500 41100 54800 57800 72200 107000
2020-08-07 07:30 9.18 45100 188000 (2011) 12000 (1955) 49100 31100 32600 35600 36500 41100 54800 57800 72200 107000
2020-08-07 06:30 9.16 45000 188000 (2011) 12000 (1955) 49100 31100 32600 35600 36500 41100 54800 57800 72200 107000
2020-08-07 05:30 9.16 45000 188000 (2011) 12000 (1955) 49100 31100 32600 35600 36500 41100 54800 57800 72200 107000
2020-08-07 04:30 9.13 44900 188000 (2011) 12000 (1955) 49100 31100 32600 35600 36500 41100 54800 57800 72200 107000
2020-08-07 03:30 9.14 44900 188000 (2011) 12000 (1955) 49100 31100 32600 35600 36500 41100 54800 57800 72200 107000
2020-08-07 02:30 9.11 44800 188000 (2011) 12000 (1955) 49100 31100 32600 35600 36500 41100 54800 57800 72200 107000
2020-08-07 01:30 9.12 44800 188000 (2011) 12000 (1955) 49100 31100 32600 35600 36500 41100 54800 57800 72200 107000
2020-08-07 00:30 9.12 44800 188000 (2011) 12000 (1955) 49100 31100 32600 35600 36500 41100 54800 57800 72200 107000
2020-08-06 23:30 9.15 45000 190000 (2011) 11900 (1955) 48000 30400 32400 35000 35600 40400 51800 57300 71200 97100
2020-08-06 22:30 9.15 45000 190000 (2011) 11900 (1955) 48000 30400 32400 35000 35600 40400 51800 57300 71200 97100
2020-08-06 21:30 9.14 44900 190000 (2011) 11900 (1955) 48000 30400 32400 35000 35600 40400 51800 57300 71200 97100
2020-08-06 20:30 9.13 44900 190000 (2011) 11900 (1955) 48000 30400 32400 35000 35600 40400 51800 57300 71200 97100
2020-08-06 19:30 9.12 44800 190000 (2011) 11900 (1955) 48000 30400 32400 35000 35600 40400 51800 57300 71200 97100
2020-08-06 18:30 9.12 44800 190000 (2011) 11900 (1955) 48000 30400 32400 35000 35600 40400 51800 57300 71200 97100
2020-08-06 17:30 9.12 44800 190000 (2011) 11900 (1955) 48000 30400 32400 35000 35600 40400 51800 57300 71200 97100
2020-08-06 16:30 9.11 44800 190000 (2011) 11900 (1955) 48000 30400 32400 35000 35600 40400 51800 57300 71200 97100
2020-08-06 15:30 9.09 44700 190000 (2011) 11900 (1955) 48000 30400 32400 35000 35600 40400 51800 57300 71200 97100
2020-08-06 14:30 9.09 44700 190000 (2011) 11900 (1955) 48000 30400 32400 35000 35600 40400 51800 57300 71200 97100
2020-08-06 13:30 9.08 44600 190000 (2011) 11900 (1955) 48000 30400 32400 35000 35600 40400 51800 57300 71200 97100
2020-08-06 12:30 9.10 44900 190000 (2011) 11900 (1955) 48000 30400 32400 35000 35600 40400 51800 57300 71200 97100
2020-08-06 11:30 9.09 44900 190000 (2011) 11900 (1955) 48000 30400 32400 35000 35600 40400 51800 57300 71200 97100
2020-08-06 10:30 9.09 44900 190000 (2011) 11900 (1955) 48000 30400 32400 35000 35600 40400 51800 57300 71200 97100
2020-08-06 09:30 9.10 44900 190000 (2011) 11900 (1955) 48000 30400 32400 35000 35600 40400 51800 57300 71200 97100
2020-08-06 08:30 9.10 44900 190000 (2011) 11900 (1955) 48000 30400 32400 35000 35600 40400 51800 57300 71200 97100
2020-08-06 07:30 9.13 45100 190000 (2011) 11900 (1955) 48000 30400 32400 35000 35600 40400 51800 57300 71200 97100
2020-08-06 06:30 9.13 45100 190000 (2011) 11900 (1955) 48000 30400 32400 35000 35600 40400 51800 57300 71200 97100
2020-08-06 05:30 9.13 45100 190000 (2011) 11900 (1955) 48000 30400 32400 35000 35600 40400 51800 57300 71200 97100
2020-08-06 04:30 9.17 45300 190000 (2011) 11900 (1955) 48000 30400 32400 35000 35600 40400 51800 57300 71200 97100
2020-08-06 03:30 9.17 45300 190000 (2011) 11900 (1955) 48000 30400 32400 35000 35600 40400 51800 57300 71200 97100
2020-08-06 02:30 9.18 45300 190000 (2011) 11900 (1955) 48000 30400 32400 35000 35600 40400 51800 57300 71200 97100
2020-08-06 01:30 9.22 45500 190000 (2011) 11900 (1955) 48000 30400 32400 35000 35600 40400 51800 57300 71200 97100
2020-08-06 00:30 9.23 45600 190000 (2011) 11900 (1955) 48000 30400 32400 35000 35600 40400 51800 57300 71200 97100
2020-08-05 23:30 9.23 45600 191000 (2011) 13400 (1955) 47600 30900 32600 35200 35700 40000 53100 57600 71500 92100
2020-08-05 22:30 9.23 45600 191000 (2011) 13400 (1955) 47600 30900 32600 35200 35700 40000 53100 57600 71500 92100
2020-08-05 21:30 9.25 45700 191000 (2011) 13400 (1955) 47600 30900 32600 35200 35700 40000 53100 57600 71500 92100
2020-08-05 20:30 9.25 45700 191000 (2011) 13400 (1955) 47600 30900 32600 35200 35700 40000 53100 57600 71500 92100
2020-08-05 19:30 9.25 45700 191000 (2011) 13400 (1955) 47600 30900 32600 35200 35700 40000 53100 57600 71500 92100
2020-08-05 18:30 9.23 45600 191000 (2011) 13400 (1955) 47600 30900 32600 35200 35700 40000 53100 57600 71500 92100
2020-08-05 17:30 9.25 45700 191000 (2011) 13400 (1955) 47600 30900 32600 35200 35700 40000 53100 57600 71500 92100
2020-08-05 16:30 9.22 45500 191000 (2011) 13400 (1955) 47600 30900 32600 35200 35700 40000 53100 57600 71500 92100
2020-08-05 15:30 9.22 45500 191000 (2011) 13400 (1955) 47600 30900 32600 35200 35700 40000 53100 57600 71500 92100
2020-08-05 14:30 9.20 45400 191000 (2011) 13400 (1955) 47600 30900 32600 35200 35700 40000 53100 57600 71500 92100
2020-08-05 13:30 9.19 45400 191000 (2011) 13400 (1955) 47600 30900 32600 35200 35700 40000 53100 57600 71500 92100
2020-08-05 12:30 9.21 45500 191000 (2011) 13400 (1955) 47600 30900 32600 35200 35700 40000 53100 57600 71500 92100
2020-08-05 11:30 9.16 45200 191000 (2011) 13400 (1955) 47600 30900 32600 35200 35700 40000 53100 57600 71500 92100
2020-08-05 10:30 9.20 45400 191000 (2011) 13400 (1955) 47600 30900 32600 35200 35700 40000 53100 57600 71500 92100
2020-08-05 09:30 9.21 45500 191000 (2011) 13400 (1955) 47600 30900 32600 35200 35700 40000 53100 57600 71500 92100
2020-08-05 08:30 9.21 45500 191000 (2011) 13400 (1955) 47600 30900 32600 35200 35700 40000 53100 57600 71500 92100
2020-08-05 07:30 9.21 45500 191000 (2011) 13400 (1955) 47600 30900 32600 35200 35700 40000 53100 57600 71500 92100
2020-08-05 06:30 9.22 45500 191000 (2011) 13400 (1955) 47600 30900 32600 35200 35700 40000 53100 57600 71500 92100
2020-08-05 05:30 9.23 45600 191000 (2011) 13400 (1955) 47600 30900 32600 35200 35700 40000 53100 57600 71500 92100
2020-08-05 04:30 9.28 45800 191000 (2011) 13400 (1955) 47600 30900 32600 35200 35700 40000 53100 57600 71500 92100
2020-08-05 03:30 9.28 45800 191000 (2011) 13400 (1955) 47600 30900 32600 35200 35700 40000 53100 57600 71500 92100
2020-08-05 02:30 9.30 45900 191000 (2011) 13400 (1955) 47600 30900 32600 35200 35700 40000 53100 57600 71500 92100
2020-08-05 01:30 9.33 46100 191000 (2011) 13400 (1955) 47600 30900 32600 35200 35700 40000 53100 57600 71500 92100
2020-08-05 00:30 9.35 46200 191000 (2011) 13400 (1955) 47600 30900 32600 35200 35700 40000 53100 57600 71500 92100
2020-08-04 23:30 9.37 46300 192000 (2011) 16400 (1955) 48100 31200 33600 35300 36100 40400 53100 57900 72800 96000
2020-08-04 22:30 9.39 46400 192000 (2011) 16400 (1955) 48100 31200 33600 35300 36100 40400 53100 57900 72800 96000
2020-08-04 21:30 9.40 46400 192000 (2011) 16400 (1955) 48100 31200 33600 35300 36100 40400 53100 57900 72800 96000
2020-08-04 20:30 9.43 46600 192000 (2011) 16400 (1955) 48100 31200 33600 35300 36100 40400 53100 57900 72800 96000
2020-08-04 19:30 9.43 46600 192000 (2011) 16400 (1955) 48100 31200 33600 35300 36100 40400 53100 57900 72800 96000
2020-08-04 18:30 9.44 46600 192000 (2011) 16400 (1955) 48100 31200 33600 35300 36100 40400 53100 57900 72800 96000
2020-08-04 17:30 9.44 46600 192000 (2011) 16400 (1955) 48100 31200 33600 35300 36100 40400 53100 57900 72800 96000
2020-08-04 16:30 9.43 46600 192000 (2011) 16400 (1955) 48100 31200 33600 35300 36100 40400 53100 57900 72800 96000
2020-08-04 15:30 9.43 46600 192000 (2011) 16400 (1955) 48100 31200 33600 35300 36100 40400 53100 57900 72800 96000
2020-08-04 14:30 9.44 46600 192000 (2011) 16400 (1955) 48100 31200 33600 35300 36100 40400 53100 57900 72800 96000
2020-08-04 13:30 9.44 46600 192000 (2011) 16400 (1955) 48100 31200 33600 35300 36100 40400 53100 57900 72800 96000
2020-08-04 12:30 9.44 46600 192000 (2011) 16400 (1955) 48100 31200 33600 35300 36100 40400 53100 57900 72800 96000
2020-08-04 11:30 9.46 46700 192000 (2011) 16400 (1955) 48100 31200 33600 35300 36100 40400 53100 57900 72800 96000
2020-08-04 10:30 9.45 46700 192000 (2011) 16400 (1955) 48100 31200 33600 35300 36100 40400 53100 57900 72800 96000
2020-08-04 09:30 9.47 46800 192000 (2011) 16400 (1955) 48100 31200 33600 35300 36100 40400 53100 57900 72800 96000
2020-08-04 08:30 9.47 46800 192000 (2011) 16400 (1955) 48100 31200 33600 35300 36100 40400 53100 57900 72800 96000
2020-08-04 07:30 9.46 46700 192000 (2011) 16400 (1955) 48100 31200 33600 35300 36100 40400 53100 57900 72800 96000
2020-08-04 06:30 9.47 46800 192000 (2011) 16400 (1955) 48100 31200 33600 35300 36100 40400 53100 57900 72800 96000
2020-08-04 05:30 9.47 46800 192000 (2011) 16400 (1955) 48100 31200 33600 35300 36100 40400 53100 57900 72800 96000
2020-08-04 04:30 9.52 47000 192000 (2011) 16400 (1955) 48100 31200 33600 35300 36100 40400 53100 57900 72800 96000
2020-08-04 03:30 9.51 47000 192000 (2011) 16400 (1955) 48100 31200 33600 35300 36100 40400 53100 57900 72800 96000
2020-08-04 02:30 9.55 47200 192000 (2011) 16400 (1955) 48100 31200 33600 35300 36100 40400 53100 57900 72800 96000
2020-08-04 01:30 9.58 47300 192000 (2011) 16400 (1955) 48100 31200 33600 35300 36100 40400 53100 57900 72800 96000
2020-08-04 00:30 9.61 47500 192000 (2011) 16400 (1955) 48100 31200 33600 35300 36100 40400 53100 57900 72800 96000
2020-08-03 23:30 9.62 47500 196000 (2011) 19400 (1955) 48300 31500 33300 35900 36300 40300 51300 58600 71000 101000
2020-08-03 22:30 9.59 47400 196000 (2011) 19400 (1955) 48300 31500 33300 35900 36300 40300 51300 58600 71000 101000
2020-08-03 21:30 9.62 47500 196000 (2011) 19400 (1955) 48300 31500 33300 35900 36300 40300 51300 58600 71000 101000
2020-08-03 20:30 9.66 47700 196000 (2011) 19400 (1955) 48300 31500 33300 35900 36300 40300 51300 58600 71000 101000
2020-08-03 19:30 9.63 47600 196000 (2011) 19400 (1955) 48300 31500 33300 35900 36300 40300 51300 58600 71000 101000
2020-08-03 18:30 9.64 47600 196000 (2011) 19400 (1955) 48300 31500 33300 35900 36300 40300 51300 58600 71000 101000
2020-08-03 17:30 9.66 47700 196000 (2011) 19400 (1955) 48300 31500 33300 35900 36300 40300 51300 58600 71000 101000
2020-08-03 16:30 9.66 47700 196000 (2011) 19400 (1955) 48300 31500 33300 35900 36300 40300 51300 58600 71000 101000
2020-08-03 15:30 9.66 47700 196000 (2011) 19400 (1955) 48300 31500 33300 35900 36300 40300 51300 58600 71000 101000
2020-08-03 14:30 9.68 47800 196000 (2011) 19400 (1955) 48300 31500 33300 35900 36300 40300 51300 58600 71000 101000
2020-08-03 13:30 9.65 47700 196000 (2011) 19400 (1955) 48300 31500 33300 35900 36300 40300 51300 58600 71000 101000
2020-08-03 12:30 9.69 47900 196000 (2011) 19400 (1955) 48300 31500 33300 35900 36300 40300 51300 58600 71000 101000
2020-08-03 11:30 9.65 47700 196000 (2011) 19400 (1955) 48300 31500 33300 35900 36300 40300 51300 58600 71000 101000
2020-08-03 10:30 9.68 47800 196000 (2011) 19400 (1955) 48300 31500 33300 35900 36300 40300 51300 58600 71000 101000
2020-08-03 09:30 9.66 47700 196000 (2011) 19400 (1955) 48300 31500 33300 35900 36300 40300 51300 58600 71000 101000
2020-08-03 08:30 9.66 47700 196000 (2011) 19400 (1955) 48300 31500 33300 35900 36300 40300 51300 58600 71000 101000
2020-08-03 07:30 9.67 47800 196000 (2011) 19400 (1955) 48300 31500 33300 35900 36300 40300 51300 58600 71000 101000
2020-08-03 06:30 9.66 47700 196000 (2011) 19400 (1955) 48300 31500 33300 35900 36300 40300 51300 58600 71000 101000
2020-08-03 05:30 9.69 47900 196000 (2011) 19400 (1955) 48300 31500 33300 35900 36300 40300 51300 58600 71000 101000
2020-08-03 04:30 9.69 47900 196000 (2011) 19400 (1955) 48300 31500 33300 35900 36300 40300 51300 58600 71000 101000
2020-08-03 03:30 9.71 48000 196000 (2011) 19400 (1955) 48300 31500 33300 35900 36300 40300 51300 58600 71000 101000
2020-08-03 02:30 9.72 48000 196000 (2011) 19400 (1955) 48300 31500 33300 35900 36300 40300 51300 58600 71000 101000
2020-08-03 01:30 9.74 48100 196000 (2011) 19400 (1955) 48300 31500 33300 35900 36300 40300 51300 58600 71000 101000
2020-08-03 00:30 9.74 48100 196000 (2011) 19400 (1955) 48300 31500 33300 35900 36300 40300 51300 58600 71000 101000
2020-08-02 23:30 9.76 48200 198000 (2011) 21000 (1955) 48500 31300 32600 36500 37100 40700 50800 56200 71600 102000
2020-08-02 22:30 9.76 48200 198000 (2011) 21000 (1955) 48500 31300 32600 36500 37100 40700 50800 56200 71600 102000
2020-08-02 21:30 9.76 48200 198000 (2011) 21000 (1955) 48500 31300 32600 36500 37100 40700 50800 56200 71600 102000
2020-08-02 20:30 9.75 48200 198000 (2011) 21000 (1955) 48500 31300 32600 36500 37100 40700 50800 56200 71600 102000
2020-08-02 19:30 9.80 48400 198000 (2011) 21000 (1955) 48500 31300 32600 36500 37100 40700 50800 56200 71600 102000
2020-08-02 18:30 9.76 48200 198000 (2011) 21000 (1955) 48500 31300 32600 36500 37100 40700 50800 56200 71600 102000
2020-08-02 17:30 9.77 48300 198000 (2011) 21000 (1955) 48500 31300 32600 36500 37100 40700 50800 56200 71600 102000
2020-08-02 16:30 9.77 48300 198000 (2011) 21000 (1955) 48500 31300 32600 36500 37100 40700 50800 56200 71600 102000
2020-08-02 15:30 9.75 48200 198000 (2011) 21000 (1955) 48500 31300 32600 36500 37100 40700 50800 56200 71600 102000
2020-08-02 14:30 9.75 48200 198000 (2011) 21000 (1955) 48500 31300 32600 36500 37100 40700 50800 56200 71600 102000
2020-08-02 13:30 9.72 48000 198000 (2011) 21000 (1955) 48500 31300 32600 36500 37100 40700 50800 56200 71600 102000
2020-08-02 12:30 9.75 48200 198000 (2011) 21000 (1955) 48500 31300 32600 36500 37100 40700 50800 56200 71600 102000
2020-08-02 11:30 9.78 48300 198000 (2011) 21000 (1955) 48500 31300 32600 36500 37100 40700 50800 56200 71600 102000
2020-08-02 10:30 9.79 48400 198000 (2011) 21000 (1955) 48500 31300 32600 36500 37100 40700 50800 56200 71600 102000
2020-08-02 09:30 9.80 48400 198000 (2011) 21000 (1955) 48500 31300 32600 36500 37100 40700 50800 56200 71600 102000
2020-08-02 08:30 9.81 48500 198000 (2011) 21000 (1955) 48500 31300 32600 36500 37100 40700 50800 56200 71600 102000
2020-08-02 07:30 9.84 48600 198000 (2011) 21000 (1955) 48500 31300 32600 36500 37100 40700 50800 56200 71600 102000
2020-08-02 06:30 9.88 48900 198000 (2011) 21000 (1955) 48500 31300 32600 36500 37100 40700 50800 56200 71600 102000
2020-08-02 05:30 9.93 49100 198000 (2011) 21000 (1955) 48500 31300 32600 36500 37100 40700 50800 56200 71600 102000
2020-08-02 04:30 9.98 49400 198000 (2011) 21000 (1955) 48500 31300 32600 36500 37100 40700 50800 56200 71600 102000
2020-08-02 03:30 1 49500 198000 (2011) 21000 (1955) 48500 31300 32600 36500 37100 40700 50800 56200 71600 102000
2020-08-02 02:30 10.08 49900 198000 (2011) 21000 (1955) 48500 31300 32600 36500 37100 40700 50800 56200 71600 102000
2020-08-02 01:30 10.11 50000 198000 (2011) 21000 (1955) 48500 31300 32600 36500 37100 40700 50800 56200 71600 102000
2020-08-02 00:30 10.15 50200 198000 (2011) 21000 (1955) 48500 31300 32600 36500 37100 40700 50800 56200 71600 102000
2020-08-01 23:30 10.21 50500 201000 (2011) 26000 (1955) 49200 31300 32600 36000 36300 40500 51800 57300 71600 101000
2020-08-01 22:30 10.24 50700 201000 (2011) 26000 (1955) 49200 31300 32600 36000 36300 40500 51800 57300 71600 101000
2020-08-01 21:30 10.30 51000 201000 (2011) 26000 (1955) 49200 31300 32600 36000 36300 40500 51800 57300 71600 101000
2020-08-01 20:30 10.32 51100 201000 (2011) 26000 (1955) 49200 31300 32600 36000 36300 40500 51800 57300 71600 101000
2020-08-01 19:30 10.37 51300 201000 (2011) 26000 (1955) 49200 31300 32600 36000 36300 40500 51800 57300 71600 101000
2020-08-01 18:30 10.40 51500 201000 (2011) 26000 (1955) 49200 31300 32600 36000 36300 40500 51800 57300 71600 101000
2020-08-01 17:30 10.42 51600 201000 (2011) 26000 (1955) 49200 31300 32600 36000 36300 40500 51800 57300 71600 101000
2020-08-01 16:30 10.46 51800 201000 (2011) 26000 (1955) 49200 31300 32600 36000 36300 40500 51800 57300 71600 101000
2020-08-01 15:30 10.44 51700 201000 (2011) 26000 (1955) 49200 31300 32600 36000 36300 40500 51800 57300 71600 101000
2020-08-01 14:30 10.45 51800 201000 (2011) 26000 (1955) 49200 31300 32600 36000 36300 40500 51800 57300 71600 101000
2020-08-01 13:30 10.46 51800 201000 (2011) 26000 (1955) 49200 31300 32600 36000 36300 40500 51800 57300 71600 101000
2020-08-01 12:30 10.48 51900 201000 (2011) 26000 (1955) 49200 31300 32600 36000 36300 40500 51800 57300 71600 101000
2020-08-01 11:30 10.47 51900 201000 (2011) 26000 (1955) 49200 31300 32600 36000 36300 40500 51800 57300 71600 101000
2020-08-01 10:30 10.45 51800 201000 (2011) 26000 (1955) 49200 31300 32600 36000 36300 40500 51800 57300 71600 101000
2020-08-01 09:30 10.45 51800 201000 (2011) 26000 (1955) 49200 31300 32600 36000 36300 40500 51800 57300 71600 101000
2020-08-01 08:30 10.45 51800 201000 (2011) 26000 (1955) 49200 31300 32600 36000 36300 40500 51800 57300 71600 101000
2020-08-01 07:30 10.43 51700 201000 (2011) 26000 (1955) 49200 31300 32600 36000 36300 40500 51800 57300 71600 101000
2020-08-01 06:30 10.41 51600 201000 (2011) 26000 (1955) 49200 31300 32600 36000 36300 40500 51800 57300 71600 101000
2020-08-01 05:30 10.44 51700 201000 (2011) 26000 (1955) 49200 31300 32600 36000 36300 40500 51800 57300 71600 101000
2020-08-01 04:30 10.41 51600 201000 (2011) 26000 (1955) 49200 31300 32600 36000 36300 40500 51800 57300 71600 101000
2020-08-01 03:30 10.44 51700 201000 (2011) 26000 (1955) 49200 31300 32600 36000 36300 40500 51800 57300 71600 101000
2020-08-01 02:30 10.46 51800 201000 (2011) 26000 (1955) 49200 31300 32600 36000 36300 40500 51800 57300 71600 101000
2020-08-01 01:30 10.46 51800 201000 (2011) 26000 (1955) 49200 31300 32600 36000 36300 40500 51800 57300 71600 101000
2020-08-01 00:30 10.50 52000 201000 (2011) 26000 (1955) 49200 31300 32600 36000 36300 40500 51800 57300 71600 101000
2020-07-31 23:30 10.53 52200 204000 (2011) 28300 (2002) 50000 31800 33000 35200 36000 41000 57000 59000 74500 102000
2020-07-31 22:30 10.55 52300 204000 (2011) 28300 (2002) 50000 31800 33000 35200 36000 41000 57000 59000 74500 102000
2020-07-31 21:30 10.59 52500 204000 (2011) 28300 (2002) 50000 31800 33000 35200 36000 41000 57000 59000 74500 102000
2020-07-31 20:30 10.64 52700 204000 (2011) 28300 (2002) 50000 31800 33000 35200 36000 41000 57000 59000 74500 102000
2020-07-31 19:30 10.68 52900 204000 (2011) 28300 (2002) 50000 31800 33000 35200 36000 41000 57000 59000 74500 102000
2020-07-31 18:30 10.73 53200 204000 (2011) 28300 (2002) 50000 31800 33000 35200 36000 41000 57000 59000 74500 102000
2020-07-31 17:30 10.80 53600 204000 (2011) 28300 (2002) 50000 31800 33000 35200 36000 41000 57000 59000 74500 102000
2020-07-31 16:30 10.84 53800 204000 (2011) 28300 (2002) 50000 31800 33000 35200 36000 41000 57000 59000 74500 102000
2020-07-31 15:30 10.93 40200 204000 (2011) 28300 (2002) 50000 31800 33000 35200 36000 41000 57000 59000 74500 102000
2020-07-31 14:30 10.99 40500 204000 (2011) 28300 (2002) 50000 31800 33000 35200 36000 41000 57000 59000 74500 102000
2020-07-31 13:30 11.10 41100 204000 (2011) 28300 (2002) 50000 31800 33000 35200 36000 41000 57000 59000 74500 102000
2020-07-31 12:30 11.20 41600 204000 (2011) 28300 (2002) 50000 31800 33000 35200 36000 41000 57000 59000 74500 102000
2020-07-31 11:30 11.29 42000 204000 (2011) 28300 (2002) 50000 31800 33000 35200 36000 41000 57000 59000 74500 102000
2020-07-31 10:30 11.36 42400 204000 (2011) 28300 (2002) 50000 31800 33000 35200 36000 41000 57000 59000 74500 102000
2020-07-31 09:30 11.45 42800 204000 (2011) 28300 (2002) 50000 31800 33000 35200 36000 41000 57000 59000 74500 102000
2020-07-31 08:30 11.54 43300 204000 (2011) 28300 (2002) 50000 31800 33000 35200 36000 41000 57000 59000 74500 102000
2020-07-31 07:30 11.67 43900 204000 (2011) 28300 (2002) 50000 31800 33000 35200 36000 41000 57000 59000 74500 102000
2020-07-31 06:30 11.75 44300 204000 (2011) 28300 (2002) 50000 31800 33000 35200 36000 41000 57000 59000 74500 102000
2020-07-31 05:30 11.89 45100 204000 (2011) 28300 (2002) 50000 31800 33000 35200 36000 41000 57000 59000 74500 102000
2020-07-31 04:30 12.01 45700 204000 (2011) 28300 (2002) 50000 31800 33000 35200 36000 41000 57000 59000 74500 102000
2020-07-31 03:30 12.13 46300 204000 (2011) 28300 (2002) 50000 31800 33000 35200 36000 41000 57000 59000 74500 102000
2020-07-31 02:30 12.23 46800 204000 (2011) 28300 (2002) 50000 31800 33000 35200 36000 41000 57000 59000 74500 102000
2020-07-31 01:30 12.37 47500 204000 (2011) 28300 (2002) 50000 31800 33000 35200 36000 41000 57000 59000 74500 102000
2020-07-31 00:30 12.50 48100 204000 (2011) 28300 (2002) 50000 31800 33000 35200 36000 41000 57000 59000 74500 102000
2020-07-30 23:30 12.67 49000 207000 (2011) 28400 (2002) 50200 31900 33000 34900 35700 41800 53100 59200 76600 105000
2020-07-30 22:30 12.83 49800 207000 (2011) 28400 (2002) 50200 31900 33000 34900 35700 41800 53100 59200 76600 105000
2020-07-30 21:30 12.99 50600 207000 (2011) 28400 (2002) 50200 31900 33000 34900 35700 41800 53100 59200 76600 105000
2020-07-30 20:30 13.15 51500 207000 (2011) 28400 (2002) 50200 31900 33000 34900 35700 41800 53100 59200 76600 105000
2020-07-30 19:30 13.29 52200 207000 (2011) 28400 (2002) 50200 31900 33000 34900 35700 41800 53100 59200 76600 105000
2020-07-30 18:30 13.38 52600 207000 (2011) 28400 (2002) 50200 31900 33000 34900 35700 41800 53100 59200 76600 105000
2020-07-30 17:30 13.41 52800 207000 (2011) 28400 (2002) 50200 31900 33000 34900 35700 41800 53100 59200 76600 105000
2020-07-30 16:30 13.39 52700 207000 (2011) 28400 (2002) 50200 31900 33000 34900 35700 41800 53100 59200 76600 105000
2020-07-30 15:30 13.36 52500 207000 (2011) 28400 (2002) 50200 31900 33000 34900 35700 41800 53100 59200 76600 105000
2020-07-30 14:30 13.32 52300 207000 (2011) 28400 (2002) 50200 31900 33000 34900 35700 41800 53100 59200 76600 105000
2020-07-30 13:30 13.20 66500 207000 (2011) 28400 (2002) 50200 31900 33000 34900 35700 41800 53100 59200 76600 105000
2020-07-30 12:30 13.07 65800 207000 (2011) 28400 (2002) 50200 31900 33000 34900 35700 41800 53100 59200 76600 105000
2020-07-30 11:30 12.90 64800 207000 (2011) 28400 (2002) 50200 31900 33000 34900 35700 41800 53100 59200 76600 105000
2020-07-30 10:30 12.77 64100 207000 (2011) 28400 (2002) 50200 31900 33000 34900 35700 41800 53100 59200 76600 105000
2020-07-30 09:30 12.60 63100 207000 (2011) 28400 (2002) 50200 31900 33000 34900 35700 41800 53100 59200 76600 105000
2020-07-30 08:30 12.45 62300 207000 (2011) 28400 (2002) 50200 31900 33000 34900 35700 41800 53100 59200 76600 105000
2020-07-30 07:30 12.26 61200 207000 (2011) 28400 (2002) 50200 31900 33000 34900 35700 41800 53100 59200 76600 105000
2020-07-30 06:30 12.06 60100 207000 (2011) 28400 (2002) 50200 31900 33000 34900 35700 41800 53100 59200 76600 105000
2020-07-30 05:30 11.85 59000 207000 (2011) 28400 (2002) 50200 31900 33000 34900 35700 41800 53100 59200 76600 105000
2020-07-30 04:30 11.66 58000 207000 (2011) 28400 (2002) 50200 31900 33000 34900 35700 41800 53100 59200 76600 105000
2020-07-30 03:30 11.49 57100 207000 (2011) 28400 (2002) 50200 31900 33000 34900 35700 41800 53100 59200 76600 105000
2020-07-30 02:30 11.27 56000 207000 (2011) 28400 (2002) 50200 31900 33000 34900 35700 41800 53100 59200 76600 105000
2020-07-30 01:30 11.01 54600 207000 (2011) 28400 (2002) 50200 31900 33000 34900 35700 41800 53100 59200 76600 105000
2020-07-30 00:30 10.79 53500 207000 (2011) 28400 (2002) 50200 31900 33000 34900 35700 41800 53100 59200 76600 105000
2020-07-29 23:30 10.52 52100 210000 (2011) 29400 (2002) 50700 32100 32900 34500 37000 42700 53600 60200 73400 107000
2020-07-29 22:30 10.30 51000 210000 (2011) 29400 (2002) 50700 32100 32900 34500 37000 42700 53600 60200 73400 107000
2020-07-29 21:30 10.13 50100 210000 (2011) 29400 (2002) 50700 32100 32900 34500 37000 42700 53600 60200 73400 107000
2020-07-29 20:30 10.07 49800 210000 (2011) 29400 (2002) 50700 32100 32900 34500 37000 42700 53600 60200 73400 107000
2020-07-29 19:30 10.03 49600 210000 (2011) 29400 (2002) 50700 32100 32900 34500 37000 42700 53600 60200 73400 107000
2020-07-29 18:30 10.01 49500 210000 (2011) 29400 (2002) 50700 32100 32900 34500 37000 42700 53600 60200 73400 107000
2020-07-29 17:30 10.01 49500 210000 (2011) 29400 (2002) 50700 32100 32900 34500 37000 42700 53600 60200 73400 107000
2020-07-29 16:30 9.98 49400 210000 (2011) 29400 (2002) 50700 32100 32900 34500 37000 42700 53600 60200 73400 107000
2020-07-29 15:30 9.95 49200 210000 (2011) 29400 (2002) 50700 32100 32900 34500 37000 42700 53600 60200 73400 107000
2020-07-29 14:30 9.94 49200 210000 (2011) 29400 (2002) 50700 32100 32900 34500 37000 42700 53600 60200 73400 107000
2020-07-29 13:30 9.92 49100 210000 (2011) 29400 (2002) 50700 32100 32900 34500 37000 42700 53600 60200 73400 107000
2020-07-29 12:30 9.92 49100 210000 (2011) 29400 (2002) 50700 32100 32900 34500 37000 42700 53600 60200 73400 107000
2020-07-29 11:30 9.90 49000 210000 (2011) 29400 (2002) 50700 32100 32900 34500 37000 42700 53600 60200 73400 107000
2020-07-29 10:30 9.93 49100 210000 (2011) 29400 (2002) 50700 32100 32900 34500 37000 42700 53600 60200 73400 107000
2020-07-29 09:30 9.91 49000 210000 (2011) 29400 (2002) 50700 32100 32900 34500 37000 42700 53600 60200 73400 107000
2020-07-29 08:30 9.96 49300 210000 (2011) 29400 (2002) 50700 32100 32900 34500 37000 42700 53600 60200 73400 107000
2020-07-29 07:30 9.97 49300 210000 (2011) 29400 (2002) 50700 32100 32900 34500 37000 42700 53600 60200 73400 107000
2020-07-29 06:30 10.01 49500 210000 (2011) 29400 (2002) 50700 32100 32900 34500 37000 42700 53600 60200 73400 107000
2020-07-29 05:30 10.05 49700 210000 (2011) 29400 (2002) 50700 32100 32900 34500 37000 42700 53600 60200 73400 107000
2020-07-29 04:30 10.10 50000 210000 (2011) 29400 (2002) 50700 32100 32900 34500 37000 42700 53600 60200 73400 107000
2020-07-29 03:30 10.12 50100 210000 (2011) 29400 (2002) 50700 32100 32900 34500 37000 42700 53600 60200 73400 107000
2020-07-29 02:30 10.16 50300 210000 (2011) 29400 (2002) 50700 32100 32900 34500 37000 42700 53600 60200 73400 107000
2020-07-29 01:30 10.19 50400 210000 (2011) 29400 (2002) 50700 32100 32900 34500 37000 42700 53600 60200 73400 107000
2020-07-29 00:30 10.24 50700 210000 (2011) 29400 (2002) 50700 32100 32900 34500 37000 42700 53600 60200 73400 107000
2020-07-28 23:30 10.27 50800 217000 (2011) 29800 (2006) 51600 31600 32800 35100 36500 43200 51900 61200 74300 109000
2020-07-28 22:30 10.28 50900 217000 (2011) 29800 (2006) 51600 31600 32800 35100 36500 43200 51900 61200 74300 109000
2020-07-28 21:30 10.33 51100 217000 (2011) 29800 (2006) 51600 31600 32800 35100 36500 43200 51900 61200 74300 109000
2020-07-28 20:30 10.35 51200 217000 (2011) 29800 (2006) 51600 31600 32800 35100 36500 43200 51900 61200 74300 109000
2020-07-28 19:30 10.39 51500 217000 (2011) 29800 (2006) 51600 31600 32800 35100 36500 43200 51900 61200 74300 109000
2020-07-28 18:30 10.41 51600 217000 (2011) 29800 (2006) 51600 31600 32800 35100 36500 43200 51900 61200 74300 109000
2020-07-28 17:30 10.41 51600 217000 (2011) 29800 (2006) 51600 31600 32800 35100 36500 43200 51900 61200 74300 109000
2020-07-28 16:30 10.42 51600 217000 (2011) 29800 (2006) 51600 31600 32800 35100 36500 43200 51900 61200 74300 109000
2020-07-28 15:30 10.45 51800 217000 (2011) 29800 (2006) 51600 31600 32800 35100 36500 43200 51900 61200 74300 109000
2020-07-28 14:30 10.46 51800 217000 (2011) 29800 (2006) 51600 31600 32800 35100 36500 43200 51900 61200 74300 109000
2020-07-28 13:30 10.51 52100 217000 (2011) 29800 (2006) 51600 31600 32800 35100 36500 43200 51900 61200 74300 109000
2020-07-28 12:30 10.50 52000 217000 (2011) 29800 (2006) 51600 31600 32800 35100 36500 43200 51900 61200 74300 109000
2020-07-28 11:30 10.52 52100 217000 (2011) 29800 (2006) 51600 31600 32800 35100 36500 43200 51900 61200 74300 109000
2020-07-28 10:30 10.54 52200 217000 (2011) 29800 (2006) 51600 31600 32800 35100 36500 43200 51900 61200 74300 109000
2020-07-28 09:30 10.58 52400 217000 (2011) 29800 (2006) 51600 31600 32800 35100 36500 43200 51900 61200 74300 109000
2020-07-28 08:30 10.66 52800 217000 (2011) 29800 (2006) 51600 31600 32800 35100 36500 43200 51900 61200 74300 109000
2020-07-28 07:30 10.70 53000 217000 (2011) 29800 (2006) 51600 31600 32800 35100 36500 43200 51900 61200 74300 109000
2020-07-28 06:30 10.75 53300 217000 (2011) 29800 (2006) 51600 31600 32800 35100 36500 43200 51900 61200 74300 109000
2020-07-28 05:30 10.82 53700 217000 (2011) 29800 (2006) 51600 31600 32800 35100 36500 43200 51900 61200 74300 109000
2020-07-28 04:30 10.88 54000 217000 (2011) 29800 (2006) 51600 31600 32800 35100 36500 43200 51900 61200 74300 109000
2020-07-28 03:30 10.93 54200 217000 (2011) 29800 (2006) 51600 31600 32800 35100 36500 43200 51900 61200 74300 109000
2020-07-28 02:30 10.97 54400 217000 (2011) 29800 (2006) 51600 31600 32800 35100 36500 43200 51900 61200 74300 109000
2020-07-28 01:30 11.00 54600 217000 (2011) 29800 (2006) 51600 31600 32800 35100 36500 43200 51900 61200 74300 109000
2020-07-28 00:30 11.03 54700 217000 (2011) 29800 (2006) 51600 31600 32800 35100 36500 43200 51900 61200 74300 109000
2020-07-27 23:30 11.04 54800 232000 (1993) 29300 (2002) 52700 30900 32100 34400 35900 41800 54400 62700 75800 110000
2020-07-27 22:30 11.04 54800 232000 (1993) 29300 (2002) 52700 30900 32100 34400 35900 41800 54400 62700 75800 110000
2020-07-27 21:30 11.04 54800 232000 (1993) 29300 (2002) 52700 30900 32100 34400 35900 41800 54400 62700 75800 110000
2020-07-27 20:30 11.02 54700 232000 (1993) 29300 (2002) 52700 30900 32100 34400 35900 41800 54400 62700 75800 110000
2020-07-27 19:30 10.96 54400 232000 (1993) 29300 (2002) 52700 30900 32100 34400 35900 41800 54400 62700 75800 110000
2020-07-27 18:30 10.95 54300 232000 (1993) 29300 (2002) 52700 30900 32100 34400 35900 41800 54400 62700 75800 110000
2020-07-27 17:30 10.93 54200 232000 (1993) 29300 (2002) 52700 30900 32100 34400 35900 41800 54400 62700 75800 110000
2020-07-27 16:30 10.90 54100 232000 (1993) 29300 (2002) 52700 30900 32100 34400 35900 41800 54400 62700 75800 110000
2020-07-27 15:30 10.91 54100 232000 (1993) 29300 (2002) 52700 30900 32100 34400 35900 41800 54400 62700 75800 110000
2020-07-27 14:30 10.91 54100 232000 (1993) 29300 (2002) 52700 30900 32100 34400 35900 41800 54400 62700 75800 110000
2020-07-27 13:30 10.96 54400 232000 (1993) 29300 (2002) 52700 30900 32100 34400 35900 41800 54400 62700 75800 110000
2020-07-27 12:30 11.01 54600 232000 (1993) 29300 (2002) 52700 30900 32100 34400 35900 41800 54400 62700 75800 110000
2020-07-27 11:30 11.04 54800 232000 (1993) 29300 (2002) 52700 30900 32100 34400 35900 41800 54400 62700 75800 110000
2020-07-27 10:30 11.05 54800 232000 (1993) 29300 (2002) 52700 30900 32100 34400 35900 41800 54400 62700 75800 110000
2020-07-27 09:30 11.06 54900 232000 (1993) 29300 (2002) 52700 30900 32100 34400 35900 41800 54400 62700 75800 110000
2020-07-27 08:30 11.11 55100 232000 (1993) 29300 (2002) 52700 30900 32100 34400 35900 41800 54400 62700 75800 110000
2020-07-27 07:30 11.14 55300 232000 (1993) 29300 (2002) 52700 30900 32100 34400 35900 41800 54400 62700 75800 110000
2020-07-27 06:30 11.12 55200 232000 (1993) 29300 (2002) 52700 30900 32100 34400 35900 41800 54400 62700 75800 110000
2020-07-27 05:30 11.12 55200 232000 (1993) 29300 (2002) 52700 30900 32100 34400 35900 41800 54400 62700 75800 110000
2020-07-27 04:30 11.10 55100 232000 (1993) 29300 (2002) 52700 30900 32100 34400 35900 41800 54400 62700 75800 110000
2020-07-27 03:30 11.02 54700 232000 (1993) 29300 (2002) 52700 30900 32100 34400 35900 41800 54400 62700 75800 110000
2020-07-27 02:30 10.91 54100 232000 (1993) 29300 (2002) 52700 30900 32100 34400 35900 41800 54400 62700 75800 110000
2020-07-27 01:30 10.79 53500 232000 (1993) 29300 (2002) 52700 30900 32100 34400 35900 41800 54400 62700 75800 110000
2020-07-27 00:30 10.64 52700 232000 (1993) 29300 (2002) 52700 30900 32100 34400 35900 41800 54400 62700 75800 110000
2020-07-26 23:30 10.52 52100 252000 (1993) 28600 (2002) 52900 30800 32800 34100 35900 42400 51800 61900 75900 110000
2020-07-26 22:30 10.44 51700 252000 (1993) 28600 (2002) 52900 30800 32800 34100 35900 42400 51800 61900 75900 110000
2020-07-26 21:30 10.32 51100 252000 (1993) 28600 (2002) 52900 30800 32800 34100 35900 42400 51800 61900 75900 110000
2020-07-26 20:30 10.21 50500 252000 (1993) 28600 (2002) 52900 30800 32800 34100 35900 42400 51800 61900 75900 110000
2020-07-26 19:30 10.15 50200 252000 (1993) 28600 (2002) 52900 30800 32800 34100 35900 42400 51800 61900 75900 110000
2020-07-26 18:30 10.10 50000 252000 (1993) 28600 (2002) 52900 30800 32800 34100 35900 42400 51800 61900 75900 110000
2020-07-26 17:30 10.04 49700 252000 (1993) 28600 (2002) 52900 30800 32800 34100 35900 42400 51800 61900 75900 110000
2020-07-26 16:30 10.03 49600 252000 (1993) 28600 (2002) 52900 30800 32800 34100 35900 42400 51800 61900 75900 110000
2020-07-26 15:30 9.91 49000 252000 (1993) 28600 (2002) 52900 30800 32800 34100 35900 42400 51800 61900 75900 110000
2020-07-26 14:30 9.88 48900 252000 (1993) 28600 (2002) 52900 30800 32800 34100 35900 42400 51800 61900 75900 110000
2020-07-26 13:30 9.89 48900 252000 (1993) 28600 (2002) 52900 30800 32800 34100 35900 42400 51800 61900 75900 110000
2020-07-26 12:30 9.91 49000 252000 (1993) 28600 (2002) 52900 30800 32800 34100 35900 42400 51800 61900 75900 110000
2020-07-26 11:30 9.91 49000 252000 (1993) 28600 (2002) 52900 30800 32800 34100 35900 42400 51800 61900 75900 110000
2020-07-26 10:30 9.94 49200 252000 (1993) 28600 (2002) 52900 30800 32800 34100 35900 42400 51800 61900 75900 110000
2020-07-26 09:30 9.92 49100 252000 (1993) 28600 (2002) 52900 30800 32800 34100 35900 42400 51800 61900 75900 110000
2020-07-26 08:30 9.90 49000 252000 (1993) 28600 (2002) 52900 30800 32800 34100 35900 42400 51800 61900 75900 110000
2020-07-26 07:30 9.87 48800 252000 (1993) 28600 (2002) 52900 30800 32800 34100 35900 42400 51800 61900 75900 110000
2020-07-26 06:30 9.88 48900 252000 (1993) 28600 (2002) 52900 30800 32800 34100 35900 42400 51800 61900 75900 110000
2020-07-26 05:30 9.88 48900 252000 (1993) 28600 (2002) 52900 30800 32800 34100 35900 42400 51800 61900 75900 110000
2020-07-26 04:30 9.89 48900 252000 (1993) 28600 (2002) 52900 30800 32800 34100 35900 42400 51800 61900 75900 110000
2020-07-26 03:30 9.89 48900 252000 (1993) 28600 (2002) 52900 30800 32800 34100 35900 42400 51800 61900 75900 110000
2020-07-26 02:30 9.89 48900 252000 (1993) 28600 (2002) 52900 30800 32800 34100 35900 42400 51800 61900 75900 110000
2020-07-26 01:30 9.87 48800 252000 (1993) 28600 (2002) 52900 30800 32800 34100 35900 42400 51800 61900 75900 110000
2020-07-26 00:30 9.87 48800 252000 (1993) 28600 (2002) 52900 30800 32800 34100 35900 42400 51800 61900 75900 110000
2020-07-25 23:30 9.89 48900 273000 (1993) 28100 (2002) 52500 30700 32900 34300 36300 42500 52600 59200 74200 109000
2020-07-25 22:30 9.88 48900 273000 (1993) 28100 (2002) 52500 30700 32900 34300 36300 42500 52600 59200 74200 109000
2020-07-25 21:30 9.90 49000 273000 (1993) 28100 (2002) 52500 30700 32900 34300 36300 42500 52600 59200 74200 109000
2020-07-25 20:30 9.89 48900 273000 (1993) 28100 (2002) 52500 30700 32900 34300 36300 42500 52600 59200 74200 109000
2020-07-25 19:30 9.89 48900 273000 (1993) 28100 (2002) 52500 30700 32900 34300 36300 42500 52600 59200 74200 109000
2020-07-25 18:30 9.87 48800 273000 (1993) 28100 (2002) 52500 30700 32900 34300 36300 42500 52600 59200 74200 109000
2020-07-25 17:30 9.85 48700 273000 (1993) 28100 (2002) 52500 30700 32900 34300 36300 42500 52600 59200 74200 109000
2020-07-25 16:30 9.82 48500 273000 (1993) 28100 (2002) 52500 30700 32900 34300 36300 42500 52600 59200 74200 109000
2020-07-25 15:30 9.83 48600 273000 (1993) 28100 (2002) 52500 30700 32900 34300 36300 42500 52600 59200 74200 109000
2020-07-25 14:30 9.81 48500 273000 (1993) 28100 (2002) 52500 30700 32900 34300 36300 42500 52600 59200 74200 109000
2020-07-25 13:30 9.79 48400 273000 (1993) 28100 (2002) 52500 30700 32900 34300 36300 42500 52600 59200 74200 109000
2020-07-25 12:30 9.82 48500 273000 (1993) 28100 (2002) 52500 30700 32900 34300 36300 42500 52600 59200 74200 109000
2020-07-25 11:30 9.77 48300 273000 (1993) 28100 (2002) 52500 30700 32900 34300 36300 42500 52600 59200 74200 109000
2020-07-25 10:30 9.77 48300 273000 (1993) 28100 (2002) 52500 30700 32900 34300 36300 42500 52600 59200 74200 109000
2020-07-25 09:30 9.76 48200 273000 (1993) 28100 (2002) 52500 30700 32900 34300 36300 42500 52600 59200 74200 109000
2020-07-25 08:30 9.78 48300 273000 (1993) 28100 (2002) 52500 30700 32900 34300 36300 42500 52600 59200 74200 109000
2020-07-25 07:30 9.76 48200 273000 (1993) 28100 (2002) 52500 30700 32900 34300 36300 42500 52600 59200 74200 109000
2020-07-25 06:30 9.78 48300 273000 (1993) 28100 (2002) 52500 30700 32900 34300 36300 42500 52600 59200 74200 109000
2020-07-25 05:30 9.80 48400 273000 (1993) 28100 (2002) 52500 30700 32900 34300 36300 42500 52600 59200 74200 109000
2020-07-25 04:30 9.82 48500 273000 (1993) 28100 (2002) 52500 30700 32900 34300 36300 42500 52600 59200 74200 109000
2020-07-25 03:30 9.84 48600 273000 (1993) 28100 (2002) 52500 30700 32900 34300 36300 42500 52600 59200 74200 109000
2020-07-25 02:30 9.84 48600 273000 (1993) 28100 (2002) 52500 30700 32900 34300 36300 42500 52600 59200 74200 109000
2020-07-25 01:30 9.85 48700 273000 (1993) 28100 (2002) 52500 30700 32900 34300 36300 42500 52600 59200 74200 109000
2020-07-25 00:30 9.86 48700 273000 (1993) 28100 (2002) 52500 30700 32900 34300 36300 42500 52600 59200 74200 109000
2020-07-24 23:30 9.88 48900 289000 (1993) 27900 (2002) 52900 30700 32600 35400 36500 41400 52800 58900 77100 108000
2020-07-24 22:30 9.89 48900 289000 (1993) 27900 (2002) 52900 30700 32600 35400 36500 41400 52800 58900 77100 108000
2020-07-24 21:30 9.90 49000 289000 (1993) 27900 (2002) 52900 30700 32600 35400 36500 41400 52800 58900 77100 108000
2020-07-24 20:30 9.92 49100 289000 (1993) 27900 (2002) 52900 30700 32600 35400 36500 41400 52800 58900 77100 108000
2020-07-24 19:30 9.94 49200 289000 (1993) 27900 (2002) 52900 30700 32600 35400 36500 41400 52800 58900 77100 108000
2020-07-24 18:30 9.95 49200 289000 (1993) 27900 (2002) 52900 30700 32600 35400 36500 41400 52800 58900 77100 108000
2020-07-24 17:30 9.94 49200 289000 (1993) 27900 (2002) 52900 30700 32600 35400 36500 41400 52800 58900 77100 108000
2020-07-24 16:30 9.95 49200 289000 (1993) 27900 (2002) 52900 30700 32600 35400 36500 41400 52800 58900 77100 108000
2020-07-24 15:30 9.96 49300 289000 (1993) 27900 (2002) 52900 30700 32600 35400 36500 41400 52800 58900 77100 108000
2020-07-24 14:30 9.95 49200 289000 (1993) 27900 (2002) 52900 30700 32600 35400 36500 41400 52800 58900 77100 108000
2020-07-24 13:30 9.96 49300 289000 (1993) 27900 (2002) 52900 30700 32600 35400 36500 41400 52800 58900 77100 108000
2020-07-24 12:30 9.97 49300 289000 (1993) 27900 (2002) 52900 30700 32600 35400 36500 41400 52800 58900 77100 108000
2020-07-24 11:30 9.98 49400 289000 (1993) 27900 (2002) 52900 30700 32600 35400 36500 41400 52800 58900 77100 108000
2020-07-24 10:30 9.98 49400 289000 (1993) 27900 (2002) 52900 30700 32600 35400 36500 41400 52800 58900 77100 108000
2020-07-24 09:30 1 49500 289000 (1993) 27900 (2002) 52900 30700 32600 35400 36500 41400 52800 58900 77100 108000
2020-07-24 08:30 10.01 49500 289000 (1993) 27900 (2002) 52900 30700 32600 35400 36500 41400 52800 58900 77100 108000
2020-07-24 07:30 10.04 49700 289000 (1993) 27900 (2002) 52900 30700 32600 35400 36500 41400 52800 58900 77100 108000
2020-07-24 06:30 10.05 49700 289000 (1993) 27900 (2002) 52900 30700 32600 35400 36500 41400 52800 58900 77100 108000
2020-07-24 05:30 10.09 49900 289000 (1993) 27900 (2002) 52900 30700 32600 35400 36500 41400 52800 58900 77100 108000
2020-07-24 04:30 10.12 50100 289000 (1993) 27900 (2002) 52900 30700 32600 35400 36500 41400 52800 58900 77100 108000
2020-07-24 03:30 10.13 50100 289000 (1993) 27900 (2002) 52900 30700 32600 35400 36500 41400 52800 58900 77100 108000
2020-07-24 02:30 10.17 50300 289000 (1993) 27900 (2002) 52900 30700 32600 35400 36500 41400 52800 58900 77100 108000
2020-07-24 01:30 10.20 50500 289000 (1993) 27900 (2002) 52900 30700 32600 35400 36500 41400 52800 58900 77100 108000
2020-07-24 00:30 10.19 50400 289000 (1993) 27900 (2002) 52900 30700 32600 35400 36500 41400 52800 58900 77100 108000
2020-07-23 23:30 10.22 50600 213000 (2011) 27600 (2002) 52500 31200 33100 34900 37100 43000 50400 58800 81500 112000
2020-07-23 22:30 10.24 50700 213000 (2011) 27600 (2002) 52500 31200 33100 34900 37100 43000 50400 58800 81500 112000
2020-07-23 21:30 10.25 50700 213000 (2011) 27600 (2002) 52500 31200 33100 34900 37100 43000 50400 58800 81500 112000
2020-07-23 20:30 10.27 50800 213000 (2011) 27600 (2002) 52500 31200 33100 34900 37100 43000 50400 58800 81500 112000
2020-07-23 19:30 10.29 50900 213000 (2011) 27600 (2002) 52500 31200 33100 34900 37100 43000 50400 58800 81500 112000
2020-07-23 18:30 10.29 50900 213000 (2011) 27600 (2002) 52500 31200 33100 34900 37100 43000 50400 58800 81500 112000
2020-07-23 17:30 10.30 51000 213000 (2011) 27600 (2002) 52500 31200 33100 34900 37100 43000 50400 58800 81500 112000
2020-07-23 16:30 10.32 51100 213000 (2011) 27600 (2002) 52500 31200 33100 34900 37100 43000 50400 58800 81500 112000
2020-07-23 15:30 10.33 51100 213000 (2011) 27600 (2002) 52500 31200 33100 34900 37100 43000 50400 58800 81500 112000
2020-07-23 14:30 10.36 51300 213000 (2011) 27600 (2002) 52500 31200 33100 34900 37100 43000 50400 58800 81500 112000
2020-07-23 13:30 10.36 51300 213000 (2011) 27600 (2002) 52500 31200 33100 34900 37100 43000 50400 58800 81500 112000
2020-07-23 12:30 10.39 51700 213000 (2011) 27600 (2002) 52500 31200 33100 34900 37100 43000 50400 58800 81500 112000
2020-07-23 11:30 10.40 51800 213000 (2011) 27600 (2002) 52500 31200 33100 34900 37100 43000 50400 58800 81500 112000
2020-07-23 10:30 10.42 51900 213000 (2011) 27600 (2002) 52500 31200 33100 34900 37100 43000 50400 58800 81500 112000
2020-07-23 09:30 10.42 51900 213000 (2011) 27600 (2002) 52500 31200 33100 34900 37100 43000 50400 58800 81500 112000
2020-07-23 08:30 10.46 52100 213000 (2011) 27600 (2002) 52500 31200 33100 34900 37100 43000 50400 58800 81500 112000
2020-07-23 07:30 10.48 52200 213000 (2011) 27600 (2002) 52500 31200 33100 34900 37100 43000 50400 58800 81500 112000
2020-07-23 06:30 10.49 52200 213000 (2011) 27600 (2002) 52500 31200 33100 34900 37100 43000 50400 58800 81500 112000
2020-07-23 05:30 10.52 52400 213000 (2011) 27600 (2002) 52500 31200 33100 34900 37100 43000 50400 58800 81500 112000
2020-07-23 04:30 10.54 52500 213000 (2011) 27600 (2002) 52500 31200 33100 34900 37100 43000 50400 58800 81500 112000
2020-07-23 03:30 10.55 52500 213000 (2011) 27600 (2002) 52500 31200 33100 34900 37100 43000 50400 58800 81500 112000
2020-07-23 02:30 10.59 52700 213000 (2011) 27600 (2002) 52500 31200 33100 34900 37100 43000 50400 58800 81500 112000
2020-07-23 01:30 10.61 52800 213000 (2011) 27600 (2002) 52500 31200 33100 34900 37100 43000 50400 58800 81500 112000
2020-07-23 00:30 10.63 52900 213000 (2011) 27600 (2002) 52500 31200 33100 34900 37100 43000 50400 58800 81500 112000
2020-07-22 23:30 10.67 53100 212000 (2011) 27600 (2002) 52600 32100 32600 36000 36800 43200 52500 57700 86300 109000
2020-07-22 22:30 10.69 53200 212000 (2011) 27600 (2002) 52600 32100 32600 36000 36800 43200 52500 57700 86300 109000
2020-07-22 21:30 10.73 53500 212000 (2011) 27600 (2002) 52600 32100 32600 36000 36800 43200 52500 57700 86300 109000
2020-07-22 20:30 10.77 53700 212000 (2011) 27600 (2002) 52600 32100 32600 36000 36800 43200 52500 57700 86300 109000
2020-07-22 19:30 10.80 53800 212000 (2011) 27600 (2002) 52600 32100 32600 36000 36800 43200 52500 57700 86300 109000
2020-07-22 18:30 10.84 54000 212000 (2011) 27600 (2002) 52600 32100 32600 36000 36800 43200 52500 57700 86300 109000
2020-07-22 17:30 10.88 54200 212000 (2011) 27600 (2002) 52600 32100 32600 36000 36800 43200 52500 57700 86300 109000
2020-07-22 16:30 10.91 54400 212000 (2011) 27600 (2002) 52600 32100 32600 36000 36800 43200 52500 57700 86300 109000
2020-07-22 15:30 10.96 54600 212000 (2011) 27600 (2002) 52600 32100 32600 36000 36800 43200 52500 57700 86300 109000
2020-07-22 14:30 11.00 54800 212000 (2011) 27600 (2002) 52600 32100 32600 36000 36800 43200 52500 57700 86300 109000
2020-07-22 13:30 11.03 55000 212000 (2011) 27600 (2002) 52600 32100 32600 36000 36800 43200 52500 57700 86300 109000
2020-07-22 12:30 11.08 55300 212000 (2011) 27600 (2002) 52600 32100 32600 36000 36800 43200 52500 57700 86300 109000
2020-07-22 11:30 11.12 55500 212000 (2011) 27600 (2002) 52600 32100 32600 36000 36800 43200 52500 57700 86300 109000
2020-07-22 10:30 11.15 55600 212000 (2011) 27600 (2002) 52600 32100 32600 36000 36800 43200 52500 57700 86300 109000
2020-07-22 09:30 11.19 55800 212000 (2011) 27600 (2002) 52600 32100 32600 36000 36800 43200 52500 57700 86300 109000
2020-07-22 08:30 11.23 56000 212000 (2011) 27600 (2002) 52600 32100 32600 36000 36800 43200 52500 57700 86300 109000
2020-07-22 07:30 11.27 56200 212000 (2011) 27600 (2002) 52600 32100 32600 36000 36800 43200 52500 57700 86300 109000
2020-07-22 06:30 11.31 56400 212000 (2011) 27600 (2002) 52600 32100 32600 36000 36800 43200 52500 57700 86300 109000
2020-07-22 05:30 11.35 56600 212000 (2011) 27600 (2002) 52600 32100 32600 36000 36800 43200 52500 57700 86300 109000
2020-07-22 04:30 11.38 56800 212000 (2011) 27600 (2002) 52600 32100 32600 36000 36800 43200 52500 57700 86300 109000
2020-07-22 03:30 11.39 56900 212000 (2011) 27600 (2002) 52600 32100 32600 36000 36800 43200 52500 57700 86300 109000
2020-07-22 02:30 11.42 57000 212000 (2011) 27600 (2002) 52600 32100 32600 36000 36800 43200 52500 57700 86300 109000
2020-07-22 01:30 11.41 57000 212000 (2011) 27600 (2002) 52600 32100 32600 36000 36800 43200 52500 57700 86300 109000
2020-07-22 00:30 11.42 57000 212000 (2011) 27600 (2002) 52600 32100 32600 36000 36800 43200 52500 57700 86300 109000
2020-07-21 23:30 11.41 57000 212000 (2011) 27900 (2002) 52800 32600 33000 35600 36900 43500 55800 58000 76700 117000
2020-07-21 22:30 11.42 57000 212000 (2011) 27900 (2002) 52800 32600 33000 35600 36900 43500 55800 58000 76700 117000
2020-07-21 21:30 11.43 57100 212000 (2011) 27900 (2002) 52800 32600 33000 35600 36900 43500 55800 58000 76700 117000
2020-07-21 20:30 11.46 57200 212000 (2011) 27900 (2002) 52800 32600 33000 35600 36900 43500 55800 58000 76700 117000
2020-07-21 19:30 11.49 57400 212000 (2011) 27900 (2002) 52800 32600 33000 35600 36900 43500 55800 58000 76700 117000
2020-07-21 18:30 11.51 57500 212000 (2011) 27900 (2002) 52800 32600 33000 35600 36900 43500 55800 58000 76700 117000
2020-07-21 17:30 11.54 57600 212000 (2011) 27900 (2002) 52800 32600 33000 35600 36900 43500 55800 58000 76700 117000
2020-07-21 16:30 11.54 57600 212000 (2011) 27900 (2002) 52800 32600 33000 35600 36900 43500 55800 58000 76700 117000
2020-07-21 15:30 11.53 57600 212000 (2011) 27900 (2002) 52800 32600 33000 35600 36900 43500 55800 58000 76700 117000
2020-07-21 14:30 11.53 57600 212000 (2011) 27900 (2002) 52800 32600 33000 35600 36900 43500 55800 58000 76700 117000
2020-07-21 13:30 11.49 57400 212000 (2011) 27900 (2002) 52800 32600 33000 35600 36900 43500 55800 58000 76700 117000
2020-07-21 12:30 11.45 57200 212000 (2011) 27900 (2002) 52800 32600 33000 35600 36900 43500 55800 58000 76700 117000
2020-07-21 11:30 11.42 57000 212000 (2011) 27900 (2002) 52800 32600 33000 35600 36900 43500 55800 58000 76700 117000
2020-07-21 10:30 11.39 56900 212000 (2011) 27900 (2002) 52800 32600 33000 35600 36900 43500 55800 58000 76700 117000
2020-07-21 09:30 11.39 56900 212000 (2011) 27900 (2002) 52800 32600 33000 35600 36900 43500 55800 58000 76700 117000
2020-07-21 08:30 11.39 56900 212000 (2011) 27900 (2002) 52800 32600 33000 35600 36900 43500 55800 58000 76700 117000
2020-07-21 07:30 11.39 56900 212000 (2011) 27900 (2002) 52800 32600 33000 35600 36900 43500 55800 58000 76700 117000
2020-07-21 06:30 11.42 57000 212000 (2011) 27900 (2002) 52800 32600 33000 35600 36900 43500 55800 58000 76700 117000
2020-07-21 05:30 11.44 57100 212000 (2011) 27900 (2002) 52800 32600 33000 35600 36900 43500 55800 58000 76700 117000
2020-07-21 04:30 11.49 57400 212000 (2011) 27900 (2002) 52800 32600 33000 35600 36900 43500 55800 58000 76700 117000
2020-07-21 03:30 11.54 57600 212000 (2011) 27900 (2002) 52800 32600 33000 35600 36900 43500 55800 58000 76700 117000
2020-07-21 02:30 11.60 57900 212000 (2011) 27900 (2002) 52800 32600 33000 35600 36900 43500 55800 58000 76700 117000
2020-07-21 01:30 11.62 58000 212000 (2011) 27900 (2002) 52800 32600 33000 35600 36900 43500 55800 58000 76700 117000
2020-07-21 00:30 11.71 58500 212000 (2011) 27900 (2002) 52800 32600 33000 35600 36900 43500 55800 58000 76700 117000
2020-07-20 23:30 11.78 58900 216000 (2011) 28200 (2002) 53900 32400 33400 35000 36200 44100 58900 61400 76700 116000
2020-07-20 22:30 11.87 59300 216000 (2011) 28200 (2002) 53900 32400 33400 35000 36200 44100 58900 61400 76700 116000
2020-07-20 21:30 11.95 59800 216000 (2011) 28200 (2002) 53900 32400 33400 35000 36200 44100 58900 61400 76700 116000
2020-07-20 20:30 12.02 60100 216000 (2011) 28200 (2002) 53900 32400 33400 35000 36200 44100 58900 61400 76700 116000
2020-07-20 19:30 12.08 60500 216000 (2011) 28200 (2002) 53900 32400 33400 35000 36200 44100 58900 61400 76700 116000
2020-07-20 18:30 12.10 60600 216000 (2011) 28200 (2002) 53900 32400 33400 35000 36200 44100 58900 61400 76700 116000
2020-07-20 17:30 12.09 60500 216000 (2011) 28200 (2002) 53900 32400 33400 35000 36200 44100 58900 61400 76700 116000
2020-07-20 16:30 12.01 60100 216000 (2011) 28200 (2002) 53900 32400 33400 35000 36200 44100 58900 61400 76700 116000
2020-07-20 15:30 11.85 59200 216000 (2011) 28200 (2002) 53900 32400 33400 35000 36200 44100 58900 61400 76700 116000
2020-07-20 14:30 11.60 57900 216000 (2011) 28200 (2002) 53900 32400 33400 35000 36200 44100 58900 61400 76700 116000
2020-07-20 13:30 11.29 56300 216000 (2011) 28200 (2002) 53900 32400 33400 35000 36200 44100 58900 61400 76700 116000
2020-07-20 12:30 10.92 54400 216000 (2011) 28200 (2002) 53900 32400 33400 35000 36200 44100 58900 61400 76700 116000
2020-07-20 11:30 10.54 52500 216000 (2011) 28200 (2002) 53900 32400 33400 35000 36200 44100 58900 61400 76700 116000
2020-07-20 10:30 10.34 51500 216000 (2011) 28200 (2002) 53900 32400 33400 35000 36200 44100 58900 61400 76700 116000
2020-07-20 09:30 10.23 50900 216000 (2011) 28200 (2002) 53900 32400 33400 35000 36200 44100 58900 61400 76700 116000
2020-07-20 08:30 10.14 50400 216000 (2011) 28200 (2002) 53900 32400 33400 35000 36200 44100 58900 61400 76700 116000
2020-07-20 07:30 10.06 50000 216000 (2011) 28200 (2002) 53900 32400 33400 35000 36200 44100 58900 61400 76700 116000
2020-07-20 06:30 10.01 49800 216000 (2011) 28200 (2002) 53900 32400 33400 35000 36200 44100 58900 61400 76700 116000
2020-07-20 05:30 9.94 49400 216000 (2011) 28200 (2002) 53900 32400 33400 35000 36200 44100 58900 61400 76700 116000
2020-07-20 04:30 9.93 49400 216000 (2011) 28200 (2002) 53900 32400 33400 35000 36200 44100 58900 61400 76700 116000
2020-07-20 03:30 9.94 49400 216000 (2011) 28200 (2002) 53900 32400 33400 35000 36200 44100 58900 61400 76700 116000
2020-07-20 02:30 9.97 49600 216000 (2011) 28200 (2002) 53900 32400 33400 35000 36200 44100 58900 61400 76700 116000
2020-07-20 01:30 9.98 49600 216000 (2011) 28200 (2002) 53900 32400 33400 35000 36200 44100 58900 61400 76700 116000
2020-07-20 00:30 1 49700 216000 (2011) 28200 (2002) 53900 32400 33400 35000 36200 44100 58900 61400 76700 116000
2020-07-19 23:30 10.02 49800 222000 (2011) 28400 (2002) 54000 32700 33900 36500 37400 44100 56200 59200 79600 113000
2020-07-19 22:30 10.03 49900 222000 (2011) 28400 (2002) 54000 32700 33900 36500 37400 44100 56200 59200 79600 113000
2020-07-19 21:30 10.03 49900 222000 (2011) 28400 (2002) 54000 32700 33900 36500 37400 44100 56200 59200 79600 113000
2020-07-19 20:30 10.04 49900 222000 (2011) 28400 (2002) 54000 32700 33900 36500 37400 44100 56200 59200 79600 113000
2020-07-19 19:30 10.03 49900 222000 (2011) 28400 (2002) 54000 32700 33900 36500 37400 44100 56200 59200 79600 113000
2020-07-19 18:30 10.03 49900 222000 (2011) 28400 (2002) 54000 32700 33900 36500 37400 44100 56200 59200 79600 113000
2020-07-19 17:30 10.02 49800 222000 (2011) 28400 (2002) 54000 32700 33900 36500 37400 44100 56200 59200 79600 113000
2020-07-19 16:30 1 49700 222000 (2011) 28400 (2002) 54000 32700 33900 36500 37400 44100 56200 59200 79600 113000
2020-07-19 15:30 10.02 49800 222000 (2011) 28400 (2002) 54000 32700 33900 36500 37400 44100 56200 59200 79600 113000
2020-07-19 14:30 10.01 49800 222000 (2011) 28400 (2002) 54000 32700 33900 36500 37400 44100 56200 59200 79600 113000
2020-07-19 13:30 10.01 49800 222000 (2011) 28400 (2002) 54000 32700 33900 36500 37400 44100 56200 59200 79600 113000
2020-07-19 12:30 10.02 49800 222000 (2011) 28400 (2002) 54000 32700 33900 36500 37400 44100 56200 59200 79600 113000
2020-07-19 11:30 10.02 49800 222000 (2011) 28400 (2002) 54000 32700 33900 36500 37400 44100 56200 59200 79600 113000
2020-07-19 10:30 10.02 49800 222000 (2011) 28400 (2002) 54000 32700 33900 36500 37400 44100 56200 59200 79600 113000
2020-07-19 09:30 10.02 49800 222000 (2011) 28400 (2002) 54000 32700 33900 36500 37400 44100 56200 59200 79600 113000
2020-07-19 08:30 10.05 50000 222000 (2011) 28400 (2002) 54000 32700 33900 36500 37400 44100 56200 59200 79600 113000
2020-07-19 07:30 10.06 50000 222000 (2011) 28400 (2002) 54000 32700 33900 36500 37400 44100 56200 59200 79600 113000
2020-07-19 06:30 10.09 50200 222000 (2011) 28400 (2002) 54000 32700 33900 36500 37400 44100 56200 59200 79600 113000
2020-07-19 05:30 10.12 50300 222000 (2011) 28400 (2002) 54000 32700 33900 36500 37400 44100 56200 59200 79600 113000
2020-07-19 04:30 10.13 50400 222000 (2011) 28400 (2002) 54000 32700 33900 36500 37400 44100 56200 59200 79600 113000
2020-07-19 03:30 10.14 50400 222000 (2011) 28400 (2002) 54000 32700 33900 36500 37400 44100 56200 59200 79600 113000
2020-07-19 02:30 10.15 50500 222000 (2011) 28400 (2002) 54000 32700 33900 36500 37400 44100 56200 59200 79600 113000
2020-07-19 01:30 10.18 50600 222000 (2011) 28400 (2002) 54000 32700 33900 36500 37400 44100 56200 59200 79600 113000
2020-07-19 00:30 10.20 50700 222000 (2011) 28400 (2002) 54000 32700 33900 36500 37400 44100 56200 59200 79600 113000
2020-07-18 23:30 10.22 50800 220000 (2011) 28700 (2002) 52800 32900 33500 35600 36600 43500 55700 58600 84700 110000
2020-07-18 22:30 10.22 50800 220000 (2011) 28700 (2002) 52800 32900 33500 35600 36600 43500 55700 58600 84700 110000
2020-07-18 21:30 10.23 50900 220000 (2011) 28700 (2002) 52800 32900 33500 35600 36600 43500 55700 58600 84700 110000
2020-07-18 20:30 10.25 51000 220000 (2011) 28700 (2002) 52800 32900 33500 35600 36600 43500 55700 58600 84700 110000
2020-07-18 19:30 10.26 51000 220000 (2011) 28700 (2002) 52800 32900 33500 35600 36600 43500 55700 58600 84700 110000
2020-07-18 18:30 10.26 51000 220000 (2011) 28700 (2002) 52800 32900 33500 35600 36600 43500 55700 58600 84700 110000
2020-07-18 17:30 10.28 51100 220000 (2011) 28700 (2002) 52800 32900 33500 35600 36600 43500 55700 58600 84700 110000
2020-07-18 16:30 10.28 51100 220000 (2011) 28700 (2002) 52800 32900 33500 35600 36600 43500 55700 58600 84700 110000
2020-07-18 15:30 10.28 51100 220000 (2011) 28700 (2002) 52800 32900 33500 35600 36600 43500 55700 58600 84700 110000
2020-07-18 14:30 10.27 51100 220000 (2011) 28700 (2002) 52800 32900 33500 35600 36600 43500 55700 58600 84700 110000
2020-07-18 13:30 10.27 51100 220000 (2011) 28700 (2002) 52800 32900 33500 35600 36600 43500 55700 58600 84700 110000
2020-07-18 12:30 10.27 51100 220000 (2011) 28700 (2002) 52800 32900 33500 35600 36600 43500 55700 58600 84700 110000
2020-07-18 11:30 10.26 51000 220000 (2011) 28700 (2002) 52800 32900 33500 35600 36600 43500 55700 58600 84700 110000
2020-07-18 10:30 10.27 51100 220000 (2011) 28700 (2002) 52800 32900 33500 35600 36600 43500 55700 58600 84700 110000
2020-07-18 09:30 10.26 51000 220000 (2011) 28700 (2002) 52800 32900 33500 35600 36600 43500 55700 58600 84700 110000
2020-07-18 08:30 10.27 51100 220000 (2011) 28700 (2002) 52800 32900 33500 35600 36600 43500 55700 58600 84700 110000
2020-07-18 07:30 10.29 51200 220000 (2011) 28700 (2002) 52800 32900 33500 35600 36600 43500 55700 58600 84700 110000
2020-07-18 06:30 10.32 51300 220000 (2011) 28700 (2002) 52800 32900 33500 35600 36600 43500 55700 58600 84700 110000
2020-07-18 05:30 10.34 51500 220000 (2011) 28700 (2002) 52800 32900 33500 35600 36600 43500 55700 58600 84700 110000
2020-07-18 04:30 10.35 51500 220000 (2011) 28700 (2002) 52800 32900 33500 35600 36600 43500 55700 58600 84700 110000
2020-07-18 03:30 10.38 51700 220000 (2011) 28700 (2002) 52800 32900 33500 35600 36600 43500 55700 58600 84700 110000
2020-07-18 02:30 10.39 51700 220000 (2011) 28700 (2002) 52800 32900 33500 35600 36600 43500 55700 58600 84700 110000
2020-07-18 01:30 10.42 51900 220000 (2011) 28700 (2002) 52800 32900 33500 35600 36600 43500 55700 58600 84700 110000
2020-07-18 00:30 10.42 51900 220000 (2011) 28700 (2002) 52800 32900 33500 35600 36600 43500 55700 58600 84700 110000
2020-07-17 23:30 10.45 52000 214000 (2011) 29100 (2002) 51900 32000 33700 34800 36400 42800 54500 59700 71800 114000
2020-07-17 22:30 10.47 52100 214000 (2011) 29100 (2002) 51900 32000 33700 34800 36400 42800 54500 59700 71800 114000
2020-07-17 21:30 10.49 52200 214000 (2011) 29100 (2002) 51900 32000 33700 34800 36400 42800 54500 59700 71800 114000
2020-07-17 20:30 10.50 52300 214000 (2011) 29100 (2002) 51900 32000 33700 34800 36400 42800 54500 59700 71800 114000
2020-07-17 19:30 10.51 52300 214000 (2011) 29100 (2002) 51900 32000 33700 34800 36400 42800 54500 59700 71800 114000
2020-07-17 18:30 10.53 52400 214000 (2011) 29100 (2002) 51900 32000 33700 34800 36400 42800 54500 59700 71800 114000
2020-07-17 17:30 10.53 52400 214000 (2011) 29100 (2002) 51900 32000 33700 34800 36400 42800 54500 59700 71800 114000
2020-07-17 16:30 10.54 52500 214000 (2011) 29100 (2002) 51900 32000 33700 34800 36400 42800 54500 59700 71800 114000
2020-07-17 15:30 10.53 52400 214000 (2011) 29100 (2002) 51900 32000 33700 34800 36400 42800 54500 59700 71800 114000
2020-07-17 14:30 10.55 52500 214000 (2011) 29100 (2002) 51900 32000 33700 34800 36400 42800 54500 59700 71800 114000
2020-07-17 13:30 10.55 52500 214000 (2011) 29100 (2002) 51900 32000 33700 34800 36400 42800 54500 59700 71800 114000
2020-07-17 12:30 10.55 53000 214000 (2011) 29100 (2002) 51900 32000 33700 34800 36400 42800 54500 59700 71800 114000
2020-07-17 11:30 10.56 53100 214000 (2011) 29100 (2002) 51900 32000 33700 34800 36400 42800 54500 59700 71800 114000
2020-07-17 10:30 10.58 53200 214000 (2011) 29100 (2002) 51900 32000 33700 34800 36400 42800 54500 59700 71800 114000
2020-07-17 09:30 10.57 53100 214000 (2011) 29100 (2002) 51900 32000 33700 34800 36400 42800 54500 59700 71800 114000
2020-07-17 08:30 10.60 53300 214000 (2011) 29100 (2002) 51900 32000 33700 34800 36400 42800 54500 59700 71800 114000
2020-07-17 07:30 10.63 53500 214000 (2011) 29100 (2002) 51900 32000 33700 34800 36400 42800 54500 59700 71800 114000
2020-07-17 06:30 10.65 53600 214000 (2011) 29100 (2002) 51900 32000 33700 34800 36400 42800 54500 59700 71800 114000
2020-07-17 05:30 10.68 53700 214000 (2011) 29100 (2002) 51900 32000 33700 34800 36400 42800 54500 59700 71800 114000
2020-07-17 04:30 10.70 53800 214000 (2011) 29100 (2002) 51900 32000 33700 34800 36400 42800 54500 59700 71800 114000
2020-07-17 03:30 10.76 54100 214000 (2011) 29100 (2002) 51900 32000 33700 34800 36400 42800 54500 59700 71800 114000
2020-07-17 02:30 10.80 54300 214000 (2011) 29100 (2002) 51900 32000 33700 34800 36400 42800 54500 59700 71800 114000
2020-07-17 01:30 10.81 54400 214000 (2011) 29100 (2002) 51900 32000 33700 34800 36400 42800 54500 59700 71800 114000
2020-07-17 00:30 10.87 54700 214000 (2011) 29100 (2002) 51900 32000 33700 34800 36400 42800 54500 59700 71800 114000
2020-07-16 23:30 10.91 54900 212000 (2011) 29600 (2002) 52600 32700 33900 35400 35900 42500 56500 59600 71100 115000
2020-07-16 22:30 10.94 55000 212000 (2011) 29600 (2002) 52600 32700 33900 35400 35900 42500 56500 59600 71100 115000
2020-07-16 21:30 10.97 55200 212000 (2011) 29600 (2002) 52600 32700 33900 35400 35900 42500 56500 59600 71100 115000
2020-07-16 20:30 11.00 55400 212000 (2011) 29600 (2002) 52600 32700 33900 35400 35900 42500 56500 59600 71100 115000
2020-07-16 19:30 11.03 55500 212000 (2011) 29600 (2002) 52600 32700 33900 35400 35900 42500 56500 59600 71100 115000
2020-07-16 18:30 11.05 55600 212000 (2011) 29600 (2002) 52600 32700 33900 35400 35900 42500 56500 59600 71100 115000
2020-07-16 17:30 11.07 55700 212000 (2011) 29600 (2002) 52600 32700 33900 35400 35900 42500 56500 59600 71100 115000
2020-07-16 16:30 11.10 55900 212000 (2011) 29600 (2002) 52600 32700 33900 35400 35900 42500 56500 59600 71100 115000
2020-07-16 15:30 11.15 56100 212000 (2011) 29600 (2002) 52600 32700 33900 35400 35900 42500 56500 59600 71100 115000
2020-07-16 14:30 11.17 56200 212000 (2011) 29600 (2002) 52600 32700 33900 35400 35900 42500 56500 59600 71100 115000
2020-07-16 13:30 11.20 56400 212000 (2011) 29600 (2002) 52600 32700 33900 35400 35900 42500 56500 59600 71100 115000
2020-07-16 12:30 11.22 56500 212000 (2011) 29600 (2002) 52600 32700 33900 35400 35900 42500 56500 59600 71100 115000
2020-07-16 11:30 11.27 56700 212000 (2011) 29600 (2002) 52600 32700 33900 35400 35900 42500 56500 59600 71100 115000
2020-07-16 10:30 11.29 56900 212000 (2011) 29600 (2002) 52600 32700 33900 35400 35900 42500 56500 59600 71100 115000
2020-07-16 09:30 11.34 57100 212000 (2011) 29600 (2002) 52600 32700 33900 35400 35900 42500 56500 59600 71100 115000
2020-07-16 08:30 11.38 57300 212000 (2011) 29600 (2002) 52600 32700 33900 35400 35900 42500 56500 59600 71100 115000
2020-07-16 07:30 11.44 57600 212000 (2011) 29600 (2002) 52600 32700 33900 35400 35900 42500 56500 59600 71100 115000
2020-07-16 06:30 11.49 57900 212000 (2011) 29600 (2002) 52600 32700 33900 35400 35900 42500 56500 59600 71100 115000
2020-07-16 05:30 11.52 58000 212000 (2011) 29600 (2002) 52600 32700 33900 35400 35900 42500 56500 59600 71100 115000
2020-07-16 04:30 11.57 58300 212000 (2011) 29600 (2002) 52600 32700 33900 35400 35900 42500 56500 59600 71100 115000
2020-07-16 03:30 11.62 58600 212000 (2011) 29600 (2002) 52600 32700 33900 35400 35900 42500 56500 59600 71100 115000
2020-07-16 02:30 11.66 58800 212000 (2011) 29600 (2002) 52600 32700 33900 35400 35900 42500 56500 59600 71100 115000
2020-07-16 01:30 11.69 58900 212000 (2011) 29600 (2002) 52600 32700 33900 35400 35900 42500 56500 59600 71100 115000
2020-07-16 00:30 11.72 59100 212000 (2011) 29600 (2002) 52600 32700 33900 35400 35900 42500 56500 59600 71100 115000
2020-07-15 23:30 11.77 59300 211000 (2011) 29800 (2002) 53500 32900 33600 35200 36200 43400 58500 61600 76700 112000
2020-07-15 22:30 11.78 59400 211000 (2011) 29800 (2002) 53500 32900 33600 35200 36200 43400 58500 61600 76700 112000
2020-07-15 21:30 11.77 59300 211000 (2011) 29800 (2002) 53500 32900 33600 35200 36200 43400 58500 61600 76700 112000
2020-07-15 20:30 11.76 59300 211000 (2011) 29800 (2002) 53500 32900 33600 35200 36200 43400 58500 61600 76700 112000
2020-07-15 19:30 11.74 59200 211000 (2011) 29800 (2002) 53500 32900 33600 35200 36200 43400 58500 61600 76700 112000
2020-07-15 18:30 11.71 59000 211000 (2011) 29800 (2002) 53500 32900 33600 35200 36200 43400 58500 61600 76700 112000
2020-07-15 17:30 11.63 58600 211000 (2011) 29800 (2002) 53500 32900 33600 35200 36200 43400 58500 61600 76700 112000
2020-07-15 16:30 11.54 58100 211000 (2011) 29800 (2002) 53500 32900 33600 35200 36200 43400 58500 61600 76700 112000
2020-07-15 15:30 11.44 57600 211000 (2011) 29800 (2002) 53500 32900 33600 35200 36200 43400 58500 61600 76700 112000
2020-07-15 14:30 11.34 57100 211000 (2011) 29800 (2002) 53500 32900 33600 35200 36200 43400 58500 61600 76700 112000
2020-07-15 13:30 11.25 56600 211000 (2011) 29800 (2002) 53500 32900 33600 35200 36200 43400 58500 61600 76700 112000
2020-07-15 12:30 11.21 56400 211000 (2011) 29800 (2002) 53500 32900 33600 35200 36200 43400 58500 61600 76700 112000
2020-07-15 11:30 11.14 56100 211000 (2011) 29800 (2002) 53500 32900 33600 35200 36200 43400 58500 61600 76700 112000
2020-07-15 10:30 11.10 55900 211000 (2011) 29800 (2002) 53500 32900 33600 35200 36200 43400 58500 61600 76700 112000
2020-07-15 09:30 11.03 55500 211000 (2011) 29800 (2002) 53500 32900 33600 35200 36200 43400 58500 61600 76700 112000
2020-07-15 08:30 10.97 55200 211000 (2011) 29800 (2002) 53500 32900 33600 35200 36200 43400 58500 61600 76700 112000
2020-07-15 07:30 10.89 54800 211000 (2011) 29800 (2002) 53500 32900 33600 35200 36200 43400 58500 61600 76700 112000
2020-07-15 06:30 10.78 54200 211000 (2011) 29800 (2002) 53500 32900 33600 35200 36200 43400 58500 61600 76700 112000
2020-07-15 05:30 10.72 53900 211000 (2011) 29800 (2002) 53500 32900 33600 35200 36200 43400 58500 61600 76700 112000
2020-07-15 04:30 10.72 53900 211000 (2011) 29800 (2002) 53500 32900 33600 35200 36200 43400 58500 61600 76700 112000
2020-07-15 03:30 10.65 53600 211000 (2011) 29800 (2002) 53500 32900 33600 35200 36200 43400 58500 61600 76700 112000
2020-07-15 02:30 10.63 53500 211000 (2011) 29800 (2002) 53500 32900 33600 35200 36200 43400 58500 61600 76700 112000
2020-07-15 01:30 10.66 53600 211000 (2011) 29800 (2002) 53500 32900 33600 35200 36200 43400 58500 61600 76700 112000
2020-07-15 00:30 10.68 53700 211000 (2011) 29800 (2002) 53500 32900 33600 35200 36200 43400 58500 61600 76700 112000
2020-07-14 23:30 10.72 53900 212000 (2011) 31500 (2002) 54000 32900 34300 35800 37100 44800 59800 63300 78600 108000
2020-07-14 22:30 10.74 54000 212000 (2011) 31500 (2002) 54000 32900 34300 35800 37100 44800 59800 63300 78600 108000
2020-07-14 21:30 10.76 54100 212000 (2011) 31500 (2002) 54000 32900 34300 35800 37100 44800 59800 63300 78600 108000
2020-07-14 20:30 10.80 54300 212000 (2011) 31500 (2002) 54000 32900 34300 35800 37100 44800 59800 63300 78600 108000
2020-07-14 19:30 10.80 54300 212000 (2011) 31500 (2002) 54000 32900 34300 35800 37100 44800 59800 63300 78600 108000
2020-07-14 18:30 10.80 54300 212000 (2011) 31500 (2002) 54000 32900 34300 35800 37100 44800 59800 63300 78600 108000
2020-07-14 17:30 10.83 54500 212000 (2011) 31500 (2002) 54000 32900 34300 35800 37100 44800 59800 63300 78600 108000
2020-07-14 16:30 10.83 54500 212000 (2011) 31500 (2002) 54000 32900 34300 35800 37100 44800 59800 63300 78600 108000
2020-07-14 15:30 10.83 54500 212000 (2011) 31500 (2002) 54000 32900 34300 35800 37100 44800 59800 63300 78600 108000
2020-07-14 14:30 10.82 54400 212000 (2011) 31500 (2002) 54000 32900 34300 35800 37100 44800 59800 63300 78600 108000
2020-07-14 13:30 10.80 54300 212000 (2011) 31500 (2002) 54000 32900 34300 35800 37100 44800 59800 63300 78600 108000
2020-07-14 12:30 10.81 54400 212000 (2011) 31500 (2002) 54000 32900 34300 35800 37100 44800 59800 63300 78600 108000
2020-07-14 11:30 10.81 54400 212000 (2011) 31500 (2002) 54000 32900 34300 35800 37100 44800 59800 63300 78600 108000
2020-07-14 10:30 10.82 54400 212000 (2011) 31500 (2002) 54000 32900 34300 35800 37100 44800 59800 63300 78600 108000
2020-07-14 09:30 10.83 54500 212000 (2011) 31500 (2002) 54000 32900 34300 35800 37100 44800 59800 63300 78600 108000
2020-07-14 08:30 10.86 54600 212000 (2011) 31500 (2002) 54000 32900 34300 35800 37100 44800 59800 63300 78600 108000
2020-07-14 07:30 10.85 54600 212000 (2011) 31500 (2002) 54000 32900 34300 35800 37100 44800 59800 63300 78600 108000
2020-07-14 06:30 10.87 54700 212000 (2011) 31500 (2002) 54000 32900 34300 35800 37100 44800 59800 63300 78600 108000
2020-07-14 05:30 10.87 54700 212000 (2011) 31500 (2002) 54000 32900 34300 35800 37100 44800 59800 63300 78600 108000
2020-07-14 04:30 10.87 54700 212000 (2011) 31500 (2002) 54000 32900 34300 35800 37100 44800 59800 63300 78600 108000
2020-07-14 03:30 10.89 54800 212000 (2011) 31500 (2002) 54000 32900 34300 35800 37100 44800 59800 63300 78600 108000
2020-07-14 02:30 10.93 55000 212000 (2011) 31500 (2002) 54000 32900 34300 35800 37100 44800 59800 63300 78600 108000
2020-07-14 01:30 10.97 55200 212000 (2011) 31500 (2002) 54000 32900 34300 35800 37100 44800 59800 63300 78600 108000
2020-07-14 00:30 11.00 55400 212000 (2011) 31500 (2002) 54000 32900 34300 35800 37100 44800 59800 63300 78600 108000
2020-07-13 23:30 11.02 55500 215000 (2011) 31300 (2006) 55100 33200 34000 36300 37300 45600 61600 66100 82800 111000
2020-07-13 22:30 11.05 55600 215000 (2011) 31300 (2006) 55100 33200 34000 36300 37300 45600 61600 66100 82800 111000
2020-07-13 21:30 11.08 55800 215000 (2011) 31300 (2006) 55100 33200 34000 36300 37300 45600 61600 66100 82800 111000
2020-07-13 20:30 11.10 55900 215000 (2011) 31300 (2006) 55100 33200 34000 36300 37300 45600 61600 66100 82800 111000
2020-07-13 19:30 11.11 55900 215000 (2011) 31300 (2006) 55100 33200 34000 36300 37300 45600 61600 66100 82800 111000
2020-07-13 18:30 11.12 56000 215000 (2011) 31300 (2006) 55100 33200 34000 36300 37300 45600 61600 66100 82800 111000
2020-07-13 17:30 11.13 56000 215000 (2011) 31300 (2006) 55100 33200 34000 36300 37300 45600 61600 66100 82800 111000
2020-07-13 16:30 11.15 56100 215000 (2011) 31300 (2006) 55100 33200 34000 36300 37300 45600 61600 66100 82800 111000
2020-07-13 15:30 11.15 56100 215000 (2011) 31300 (2006) 55100 33200 34000 36300 37300 45600 61600 66100 82800 111000
2020-07-13 14:30 11.19 56300 215000 (2011) 31300 (2006) 55100 33200 34000 36300 37300 45600 61600 66100 82800 111000
2020-07-13 13:30 11.17 56200 215000 (2011) 31300 (2006) 55100 33200 34000 36300 37300 45600 61600 66100 82800 111000
2020-07-13 12:30 11.17 56200 215000 (2011) 31300 (2006) 55100 33200 34000 36300 37300 45600 61600 66100 82800 111000
2020-07-13 11:30 11.18 56300 215000 (2011) 31300 (2006) 55100 33200 34000 36300 37300 45600 61600 66100 82800 111000
2020-07-13 10:30 11.18 56300 215000 (2011) 31300 (2006) 55100 33200 34000 36300 37300 45600 61600 66100 82800 111000
2020-07-13 09:30 11.18 56300 215000 (2011) 31300 (2006) 55100 33200 34000 36300 37300 45600 61600 66100 82800 111000
2020-07-13 08:30 11.20 56400 215000 (2011) 31300 (2006) 55100 33200 34000 36300 37300 45600 61600 66100 82800 111000
2020-07-13 07:30 11.20 56400 215000 (2011) 31300 (2006) 55100 33200 34000 36300 37300 45600 61600 66100 82800 111000
2020-07-13 06:30 11.23 56500 215000 (2011) 31300 (2006) 55100 33200 34000 36300 37300 45600 61600 66100 82800 111000
2020-07-13 05:30 11.23 56500 215000 (2011) 31300 (2006) 55100 33200 34000 36300 37300 45600 61600 66100 82800 111000
2020-07-13 04:30 11.25 56600 215000 (2011) 31300 (2006) 55100 33200 34000 36300 37300 45600 61600 66100 82800 111000
2020-07-13 03:30 11.28 56800 215000 (2011) 31300 (2006) 55100 33200 34000 36300 37300 45600 61600 66100 82800 111000
2020-07-13 02:30 11.28 56800 215000 (2011) 31300 (2006) 55100 33200 34000 36300 37300 45600 61600 66100 82800 111000
2020-07-13 01:30 11.30 56900 215000 (2011) 31300 (2006) 55100 33200 34000 36300 37300 45600 61600 66100 82800 111000
2020-07-13 00:30 11.32 57000 215000 (2011) 31300 (2006) 55100 33200 34000 36300 37300 45600 61600 66100 82800 111000
2020-07-12 23:30 11.32 57000 215000 (2011) 30900 (2002) 55100 33300 34100 36200 37000 47300 64300 69300 81700 111000
2020-07-12 22:30 11.33 57100 215000 (2011) 30900 (2002) 55100 33300 34100 36200 37000 47300 64300 69300 81700 111000
2020-07-12 21:30 11.36 57200 215000 (2011) 30900 (2002) 55100 33300 34100 36200 37000 47300 64300 69300 81700 111000
2020-07-12 20:30 11.37 57300 215000 (2011) 30900 (2002) 55100 33300 34100 36200 37000 47300 64300 69300 81700 111000
2020-07-12 19:30 11.36 57200 215000 (2011) 30900 (2002) 55100 33300 34100 36200 37000 47300 64300 69300 81700 111000
2020-07-12 18:30 11.37 57300 215000 (2011) 30900 (2002) 55100 33300 34100 36200 37000 47300 64300 69300 81700 111000
2020-07-12 17:30 11.38 57300 215000 (2011) 30900 (2002) 55100 33300 34100 36200 37000 47300 64300 69300 81700 111000
2020-07-12 16:30 11.39 57400 215000 (2011) 30900 (2002) 55100 33300 34100 36200 37000 47300 64300 69300 81700 111000
2020-07-12 15:30 11.39 57400 215000 (2011) 30900 (2002) 55100 33300 34100 36200 37000 47300 64300 69300 81700 111000
2020-07-12 14:30 11.40 57400 215000 (2011) 30900 (2002) 55100 33300 34100 36200 37000 47300 64300 69300 81700 111000
2020-07-12 13:30 11.39 57400 215000 (2011) 30900 (2002) 55100 33300 34100 36200 37000 47300 64300 69300 81700 111000
2020-07-12 12:30 11.40 57400 215000 (2011) 30900 (2002) 55100 33300 34100 36200 37000 47300 64300 69300 81700 111000
2020-07-12 11:30 11.42 57500 215000 (2011) 30900 (2002) 55100 33300 34100 36200 37000 47300 64300 69300 81700 111000
2020-07-12 10:30 11.40 57400 215000 (2011) 30900 (2002) 55100 33300 34100 36200 37000 47300 64300 69300 81700 111000
2020-07-12 09:30 11.40 57400 215000 (2011) 30900 (2002) 55100 33300 34100 36200 37000 47300 64300 69300 81700 111000
2020-07-12 08:30 11.44 57600 215000 (2011) 30900 (2002) 55100 33300 34100 36200 37000 47300 64300 69300 81700 111000
2020-07-12 07:30 11.43 57600 215000 (2011) 30900 (2002) 55100 33300 34100 36200 37000 47300 64300 69300 81700 111000
2020-07-12 06:30 11.46 57700 215000 (2011) 30900 (2002) 55100 33300 34100 36200 37000 47300 64300 69300 81700 111000
2020-07-12 05:30 11.46 57700 215000 (2011) 30900 (2002) 55100 33300 34100 36200 37000 47300 64300 69300 81700 111000
2020-07-12 04:30 11.47 57800 215000 (2011) 30900 (2002) 55100 33300 34100 36200 37000 47300 64300 69300 81700 111000
2020-07-12 03:30 11.45 57700 215000 (2011) 30900 (2002) 55100 33300 34100 36200 37000 47300 64300 69300 81700 111000
2020-07-12 02:30 11.46 57700 215000 (2011) 30900 (2002) 55100 33300 34100 36200 37000 47300 64300 69300 81700 111000
2020-07-12 01:30 11.47 57800 215000 (2011) 30900 (2002) 55100 33300 34100 36200 37000 47300 64300 69300 81700 111000
2020-07-12 00:30 11.48 57800 215000 (2011) 30900 (2002) 55100 33300 34100 36200 37000 47300 64300 69300 81700 111000
2020-07-11 23:30 11.47 57800 218000 (2011) 30300 (2002) 55300 31900 33900 36400 37100 46100 60400 68200 90800 111000
2020-07-11 22:30 11.46 57700 218000 (2011) 30300 (2002) 55300 31900 33900 36400 37100 46100 60400 68200 90800 111000
2020-07-11 21:30 11.47 57800 218000 (2011) 30300 (2002) 55300 31900 33900 36400 37100 46100 60400 68200 90800 111000
2020-07-11 20:30 11.47 57800 218000 (2011) 30300 (2002) 55300 31900 33900 36400 37100 46100 60400 68200 90800 111000
2020-07-11 19:30 11.43 57600 218000 (2011) 30300 (2002) 55300 31900 33900 36400 37100 46100 60400 68200 90800 111000
2020-07-11 18:30 11.42 57500 218000 (2011) 30300 (2002) 55300 31900 33900 36400 37100 46100 60400 68200 90800 111000
2020-07-11 17:30 11.39 57400 218000 (2011) 30300 (2002) 55300 31900 33900 36400 37100 46100 60400 68200 90800 111000
2020-07-11 16:30 11.37 57300 218000 (2011) 30300 (2002) 55300 31900 33900 36400 37100 46100 60400 68200 90800 111000
2020-07-11 15:30 11.35 57200 218000 (2011) 30300 (2002) 55300 31900 33900 36400 37100 46100 60400 68200 90800 111000
2020-07-11 14:30 11.34 57100 218000 (2011) 30300 (2002) 55300 31900 33900 36400 37100 46100 60400 68200 90800 111000
2020-07-11 13:30 11.31 57000 218000 (2011) 30300 (2002) 55300 31900 33900 36400 37100 46100 60400 68200 90800 111000
2020-07-11 12:30 11.30 56900 218000 (2011) 30300 (2002) 55300 31900 33900 36400 37100 46100 60400 68200 90800 111000
2020-07-11 11:30 11.29 56900 218000 (2011) 30300 (2002) 55300 31900 33900 36400 37100 46100 60400 68200 90800 111000
2020-07-11 10:30 11.27 56700 218000 (2011) 30300 (2002) 55300 31900 33900 36400 37100 46100 60400 68200 90800 111000
2020-07-11 09:30 11.28 56800 218000 (2011) 30300 (2002) 55300 31900 33900 36400 37100 46100 60400 68200 90800 111000
2020-07-11 08:30 11.25 56600 218000 (2011) 30300 (2002) 55300 31900 33900 36400 37100 46100 60400 68200 90800 111000
2020-07-11 07:30 11.24 56600 218000 (2011) 30300 (2002) 55300 31900 33900 36400 37100 46100 60400 68200 90800 111000
2020-07-11 06:30 11.25 56600 218000 (2011) 30300 (2002) 55300 31900 33900 36400 37100 46100 60400 68200 90800 111000
2020-07-11 05:30 11.24 56600 218000 (2011) 30300 (2002) 55300 31900 33900 36400 37100 46100 60400 68200 90800 111000
2020-07-11 04:30 11.26 56700 218000 (2011) 30300 (2002) 55300 31900 33900 36400 37100 46100 60400 68200 90800 111000
2020-07-11 03:30 11.27 56700 218000 (2011) 30300 (2002) 55300 31900 33900 36400 37100 46100 60400 68200 90800 111000
2020-07-11 02:30 11.28 56800 218000 (2011) 30300 (2002) 55300 31900 33900 36400 37100 46100 60400 68200 90800 111000
2020-07-11 01:30 11.29 56900 218000 (2011) 30300 (2002) 55300 31900 33900 36400 37100 46100 60400 68200 90800 111000
2020-07-11 00:30 11.29 56900 218000 (2011) 30300 (2002) 55300 31900 33900 36400 37100 46100 60400 68200 90800 111000
2020-07-10 23:30 11.30 56900 221000 (2011) 30400 (2006) 55300 31900 34000 36800 37600 45500 63500 67600 89400 114000
2020-07-10 22:30 11.30 56900 221000 (2011) 30400 (2006) 55300 31900 34000 36800 37600 45500 63500 67600 89400 114000
2020-07-10 21:30 11.30 56900 221000 (2011) 30400 (2006) 55300 31900 34000 36800 37600 45500 63500 67600 89400 114000
2020-07-10 20:30 11.30 56900 221000 (2011) 30400 (2006) 55300 31900 34000 36800 37600 45500 63500 67600 89400 114000
2020-07-10 19:30 11.32 57000 221000 (2011) 30400 (2006) 55300 31900 34000 36800 37600 45500 63500 67600 89400 114000
2020-07-10 18:30 11.32 57000 221000 (2011) 30400 (2006) 55300 31900 34000 36800 37600 45500 63500 67600 89400 114000
2020-07-10 17:30 11.32 57000 221000 (2011) 30400 (2006) 55300 31900 34000 36800 37600 45500 63500 67600 89400 114000
2020-07-10 16:30 11.34 57100 221000 (2011) 30400 (2006) 55300 31900 34000 36800 37600 45500 63500 67600 89400 114000
2020-07-10 15:30 11.34 57100 221000 (2011) 30400 (2006) 55300 31900 34000 36800 37600 45500 63500 67600 89400 114000
2020-07-10 14:30 11.35 57200 221000 (2011) 30400 (2006) 55300 31900 34000 36800 37600 45500 63500 67600 89400 114000
2020-07-10 13:30 11.36 57200 221000 (2011) 30400 (2006) 55300 31900 34000 36800 37600 45500 63500 67600 89400 114000
2020-07-10 12:30 11.37 57300 221000 (2011) 30400 (2006) 55300 31900 34000 36800 37600 45500 63500 67600 89400 114000
2020-07-10 11:30 11.38 57300 221000 (2011) 30400 (2006) 55300 31900 34000 36800 37600 45500 63500 67600 89400 114000
2020-07-10 10:30 11.41 57500 221000 (2011) 30400 (2006) 55300 31900 34000 36800 37600 45500 63500 67600 89400 114000
2020-07-10 09:30 11.43 57600 221000 (2011) 30400 (2006) 55300 31900 34000 36800 37600 45500 63500 67600 89400 114000
2020-07-10 08:30 11.42 57500 221000 (2011) 30400 (2006) 55300 31900 34000 36800 37600 45500 63500 67600 89400 114000
2020-07-10 07:30 11.44 57600 221000 (2011) 30400 (2006) 55300 31900 34000 36800 37600 45500 63500 67600 89400 114000
2020-07-10 06:30 11.48 57800 221000 (2011) 30400 (2006) 55300 31900 34000 36800 37600 45500 63500 67600 89400 114000
2020-07-10 05:30 11.49 57900 221000 (2011) 30400 (2006) 55300 31900 34000 36800 37600 45500 63500 67600 89400 114000
2020-07-10 04:30 11.50 57900 221000 (2011) 30400 (2006) 55300 31900 34000 36800 37600 45500 63500 67600 89400 114000
2020-07-10 03:30 11.54 58100 221000 (2011) 30400 (2006) 55300 31900 34000 36800 37600 45500 63500 67600 89400 114000
2020-07-10 02:30 11.54 58100 221000 (2011) 30400 (2006) 55300 31900 34000 36800 37600 45500 63500 67600 89400 114000
2020-07-10 01:30 11.54 58100 221000 (2011) 30400 (2006) 55300 31900 34000 36800 37600 45500 63500 67600 89400 114000
2020-07-10 00:30 11.55 58200 221000 (2011) 30400 (2006) 55300 31900 34000 36800 37600 45500 63500 67600 89400 114000
2020-07-09 23:30 11.55 58200 230000 (2011) 30000 (2002) 55200 32900 34000 36300 37000 46000 61500 69000 84800 111000
2020-07-09 22:30 11.55 58200 230000 (2011) 30000 (2002) 55200 32900 34000 36300 37000 46000 61500 69000 84800 111000
2020-07-09 21:30 11.54 58100 230000 (2011) 30000 (2002) 55200 32900 34000 36300 37000 46000 61500 69000 84800 111000
2020-07-09 20:30 11.54 58100 230000 (2011) 30000 (2002) 55200 32900 34000 36300 37000 46000 61500 69000 84800 111000
2020-07-09 19:30 11.53 58100 230000 (2011) 30000 (2002) 55200 32900 34000 36300 37000 46000 61500 69000 84800 111000
2020-07-09 18:30 11.54 58100 230000 (2011) 30000 (2002) 55200 32900 34000 36300 37000 46000 61500 69000 84800 111000
2020-07-09 17:30 11.53 58100 230000 (2011) 30000 (2002) 55200 32900 34000 36300 37000 46000 61500 69000 84800 111000
2020-07-09 16:30 11.52 57400 230000 (2011) 30000 (2002) 55200 32900 34000 36300 37000 46000 61500 69000 84800 111000
2020-07-09 15:30 11.52 57400 230000 (2011) 30000 (2002) 55200 32900 34000 36300 37000 46000 61500 69000 84800 111000
2020-07-09 14:30 11.51 57300 230000 (2011) 30000 (2002) 55200 32900 34000 36300 37000 46000 61500 69000 84800 111000
2020-07-09 13:30 11.49 57200 230000 (2011) 30000 (2002) 55200 32900 34000 36300 37000 46000 61500 69000 84800 111000
2020-07-09 12:30 11.49 57200 230000 (2011) 30000 (2002) 55200 32900 34000 36300 37000 46000 61500 69000 84800 111000
2020-07-09 11:30 11.48 57200 230000 (2011) 30000 (2002) 55200 32900 34000 36300 37000 46000 61500 69000 84800 111000
2020-07-09 10:30 11.48 57200 230000 (2011) 30000 (2002) 55200 32900 34000 36300 37000 46000 61500 69000 84800 111000
2020-07-09 09:30 11.50 57300 230000 (2011) 30000 (2002) 55200 32900 34000 36300 37000 46000 61500 69000 84800 111000
2020-07-09 08:30 11.50 57300 230000 (2011) 30000 (2002) 55200 32900 34000 36300 37000 46000 61500 69000 84800 111000
2020-07-09 07:30 11.49 57200 230000 (2011) 30000 (2002) 55200 32900 34000 36300 37000 46000 61500 69000 84800 111000
2020-07-09 06:30 11.46 57100 230000 (2011) 30000 (2002) 55200 32900 34000 36300 37000 46000 61500 69000 84800 111000
2020-07-09 05:30 11.53 57400 230000 (2011) 30000 (2002) 55200 32900 34000 36300 37000 46000 61500 69000 84800 111000
2020-07-09 04:30 11.52 57400 230000 (2011) 30000 (2002) 55200 32900 34000 36300 37000 46000 61500 69000 84800 111000
2020-07-09 03:30 11.50 57300 230000 (2011) 30000 (2002) 55200 32900 34000 36300 37000 46000 61500 69000 84800 111000
2020-07-09 02:30 11.50 57300 230000 (2011) 30000 (2002) 55200 32900 34000 36300 37000 46000 61500 69000 84800 111000
2020-07-09 01:30 11.53 57400 230000 (2011) 30000 (2002) 55200 32900 34000 36300 37000 46000 61500 69000 84800 111000
2020-07-09 00:30 11.53 57400 230000 (2011) 30000 (2002) 55200 32900 34000 36300 37000 46000 61500 69000 84800 111000
2020-07-08 23:30 11.53 57400 253000 (2011) 30100 (2002) 56400 32600 34900 36200 37700 45100 64500 73200 88600 115000
2020-07-08 22:30 11.52 57400 253000 (2011) 30100 (2002) 56400 32600 34900 36200 37700 45100 64500 73200 88600 115000
2020-07-08 21:30 11.51 57300 253000 (2011) 30100 (2002) 56400 32600 34900 36200 37700 45100 64500 73200 88600 115000
2020-07-08 20:30 11.51 57300 253000 (2011) 30100 (2002) 56400 32600 34900 36200 37700 45100 64500 73200 88600 115000
2020-07-08 19:30 11.49 57200 253000 (2011) 30100 (2002) 56400 32600 34900 36200 37700 45100 64500 73200 88600 115000
2020-07-08 18:30 11.48 57200 253000 (2011) 30100 (2002) 56400 32600 34900 36200 37700 45100 64500 73200 88600 115000
2020-07-08 17:30 11.47 57100 253000 (2011) 30100 (2002) 56400 32600 34900 36200 37700 45100 64500 73200 88600 115000
2020-07-08 16:30 11.45 57000 253000 (2011) 30100 (2002) 56400 32600 34900 36200 37700 45100 64500 73200 88600 115000
2020-07-08 15:30 11.45 57000 253000 (2011) 30100 (2002) 56400 32600 34900 36200 37700 45100 64500 73200 88600 115000
2020-07-08 14:30 11.45 57000 253000 (2011) 30100 (2002) 56400 32600 34900 36200 37700 45100 64500 73200 88600 115000
2020-07-08 13:30 11.45 57000 253000 (2011) 30100 (2002) 56400 32600 34900 36200 37700 45100 64500 73200 88600 115000
2020-07-08 12:30 11.44 57000 253000 (2011) 30100 (2002) 56400 32600 34900 36200 37700 45100 64500 73200 88600 115000
2020-07-08 11:30 11.47 57100 253000 (2011) 30100 (2002) 56400 32600 34900 36200 37700 45100 64500 73200 88600 115000
2020-07-08 10:30 11.45 57000 253000 (2011) 30100 (2002) 56400 32600 34900 36200 37700 45100 64500 73200 88600 115000
2020-07-08 09:30 11.45 57000 253000 (2011) 30100 (2002) 56400 32600 34900 36200 37700 45100 64500 73200 88600 115000
2020-07-08 08:30 11.47 57100 253000 (2011) 30100 (2002) 56400 32600 34900 36200 37700 45100 64500 73200 88600 115000
2020-07-08 07:30 11.47 57100 253000 (2011) 30100 (2002) 56400 32600 34900 36200 37700 45100 64500 73200 88600 115000
2020-07-08 06:30 11.48 57200 253000 (2011) 30100 (2002) 56400 32600 34900 36200 37700 45100 64500 73200 88600 115000
2020-07-08 05:30 11.48 57200 253000 (2011) 30100 (2002) 56400 32600 34900 36200 37700 45100 64500 73200 88600 115000
2020-07-08 04:30 11.49 57200 253000 (2011) 30100 (2002) 56400 32600 34900 36200 37700 45100 64500 73200 88600 115000
2020-07-08 03:30 11.51 57300 253000 (2011) 30100 (2002) 56400 32600 34900 36200 37700 45100 64500 73200 88600 115000
2020-07-08 02:30 11.53 57400 253000 (2011) 30100 (2002) 56400 32600 34900 36200 37700 45100 64500 73200 88600 115000
2020-07-08 01:30 11.52 57400 253000 (2011) 30100 (2002) 56400 32600 34900 36200 37700 45100 64500 73200 88600 115000
2020-07-08 00:30 11.56 57600 253000 (2011) 30100 (2002) 56400 32600 34900 36200 37700 45100 64500 73200 88600 115000
2020-07-07 23:30 11.55 57500 236000 (2011) 30100 (2002) 56500 32400 34500 36800 37900 44500 60000 72500 100000 118000
2020-07-07 22:30 11.56 57600 236000 (2011) 30100 (2002) 56500 32400 34500 36800 37900 44500 60000 72500 100000 118000
2020-07-07 21:30 11.60 57800 236000 (2011) 30100 (2002) 56500 32400 34500 36800 37900 44500 60000 72500 100000 118000
2020-07-07 20:30 11.60 57800 236000 (2011) 30100 (2002) 56500 32400 34500 36800 37900 44500 60000 72500 100000 118000
2020-07-07 19:30 11.58 57700 236000 (2011) 30100 (2002) 56500 32400 34500 36800 37900 44500 60000 72500 100000 118000
2020-07-07 18:30 11.56 57600 236000 (2011) 30100 (2002) 56500 32400 34500 36800 37900 44500 60000 72500 100000 118000
2020-07-07 17:30 11.55 57500 236000 (2011) 30100 (2002) 56500 32400 34500 36800 37900 44500 60000 72500 100000 118000
2020-07-07 16:30 11.53 57400 236000 (2011) 30100 (2002) 56500 32400 34500 36800 37900 44500 60000 72500 100000 118000
2020-07-07 15:30 11.53 57400 236000 (2011) 30100 (2002) 56500 32400 34500 36800 37900 44500 60000 72500 100000 118000
2020-07-07 14:30 11.53 57400 236000 (2011) 30100 (2002) 56500 32400 34500 36800 37900 44500 60000 72500 100000 118000
2020-07-07 13:30 11.52 57400 236000 (2011) 30100 (2002) 56500 32400 34500 36800 37900 44500 60000 72500 100000 118000
2020-07-07 12:30 11.51 57300 236000 (2011) 30100 (2002) 56500 32400 34500 36800 37900 44500 60000 72500 100000 118000
2020-07-07 11:30 11.52 57400 236000 (2011) 30100 (2002) 56500 32400 34500 36800 37900 44500 60000 72500 100000 118000
2020-07-07 10:30 11.51 57300 236000 (2011) 30100 (2002) 56500 32400 34500 36800 37900 44500 60000 72500 100000 118000
2020-07-07 09:30 11.53 57400 236000 (2011) 30100 (2002) 56500 32400 34500 36800 37900 44500 60000 72500 100000 118000
2020-07-07 08:30 11.53 57400 236000 (2011) 30100 (2002) 56500 32400 34500 36800 37900 44500 60000 72500 100000 118000
2020-07-07 07:30 11.53 57400 236000 (2011) 30100 (2002) 56500 32400 34500 36800 37900 44500 60000 72500 100000 118000
2020-07-07 06:30 11.54 57500 236000 (2011) 30100 (2002) 56500 32400 34500 36800 37900 44500 60000 72500 100000 118000
2020-07-07 05:30 11.54 57500 236000 (2011) 30100 (2002) 56500 32400 34500 36800 37900 44500 60000 72500 100000 118000
2020-07-07 04:30 11.55 57500 236000 (2011) 30100 (2002) 56500 32400 34500 36800 37900 44500 60000 72500 100000 118000
2020-07-07 03:30 11.56 57600 236000 (2011) 30100 (2002) 56500 32400 34500 36800 37900 44500 60000 72500 100000 118000
2020-07-07 02:30 11.58 57700 236000 (2011) 30100 (2002) 56500 32400 34500 36800 37900 44500 60000 72500 100000 118000
2020-07-07 01:30 11.60 57800 236000 (2011) 30100 (2002) 56500 32400 34500 36800 37900 44500 60000 72500 100000 118000
2020-07-07 00:30 11.62 57900 236000 (2011) 30100 (2002) 56500 32400 34500 36800 37900 44500 60000 72500 100000 118000
2020-07-06 23:30 11.62 57900 238000 (2011) 30300 (2002) 57100 32600 35000 36600 38600 43900 59500 75400 96400 126000
2020-07-06 22:30 11.63 57900 238000 (2011) 30300 (2002) 57100 32600 35000 36600 38600 43900 59500 75400 96400 126000
2020-07-06 21:30 11.64 58000 238000 (2011) 30300 (2002) 57100 32600 35000 36600 38600 43900 59500 75400 96400 126000
2020-07-06 20:30 11.64 58000 238000 (2011) 30300 (2002) 57100 32600 35000 36600 38600 43900 59500 75400 96400 126000
2020-07-06 19:30 11.65 58000 238000 (2011) 30300 (2002) 57100 32600 35000 36600 38600 43900 59500 75400 96400 126000
2020-07-06 18:30 11.66 58100 238000 (2011) 30300 (2002) 57100 32600 35000 36600 38600 43900 59500 75400 96400 126000
2020-07-06 17:30 11.65 58000 238000 (2011) 30300 (2002) 57100 32600 35000 36600 38600 43900 59500 75400 96400 126000
2020-07-06 16:30 11.64 58000 238000 (2011) 30300 (2002) 57100 32600 35000 36600 38600 43900 59500 75400 96400 126000
2020-07-06 15:30 11.63 57900 238000 (2011) 30300 (2002) 57100 32600 35000 36600 38600 43900 59500 75400 96400 126000
2020-07-06 14:30 11.62 57900 238000 (2011) 30300 (2002) 57100 32600 35000 36600 38600 43900 59500 75400 96400 126000
2020-07-06 13:30 11.63 57900 238000 (2011) 30300 (2002) 57100 32600 35000 36600 38600 43900 59500 75400 96400 126000
2020-07-06 12:30 11.59 57700 238000 (2011) 30300 (2002) 57100 32600 35000 36600 38600 43900 59500 75400 96400 126000
2020-07-06 11:30 11.62 57900 238000 (2011) 30300 (2002) 57100 32600 35000 36600 38600 43900 59500 75400 96400 126000
2020-07-06 10:30 11.61 57800 238000 (2011) 30300 (2002) 57100 32600 35000 36600 38600 43900 59500 75400 96400 126000
2020-07-06 09:30 11.61 57800 238000 (2011) 30300 (2002) 57100 32600 35000 36600 38600 43900 59500 75400 96400 126000
2020-07-06 08:30 11.60 57800 238000 (2011) 30300 (2002) 57100 32600 35000 36600 38600 43900 59500 75400 96400 126000
2020-07-06 07:30 11.61 57800 238000 (2011) 30300 (2002) 57100 32600 35000 36600 38600 43900 59500 75400 96400 126000
2020-07-06 06:30 11.62 57900 238000 (2011) 30300 (2002) 57100 32600 35000 36600 38600 43900 59500 75400 96400 126000
2020-07-06 05:30 11.64 58000 238000 (2011) 30300 (2002) 57100 32600 35000 36600 38600 43900 59500 75400 96400 126000
2020-07-06 04:30 11.64 58000 238000 (2011) 30300 (2002) 57100 32600 35000 36600 38600 43900 59500 75400 96400 126000
2020-07-06 03:30 11.66 58100 238000 (2011) 30300 (2002) 57100 32600 35000 36600 38600 43900 59500 75400 96400 126000
2020-07-06 02:30 11.67 58100 238000 (2011) 30300 (2002) 57100 32600 35000 36600 38600 43900 59500 75400 96400 126000
2020-07-06 01:30 11.69 58200 238000 (2011) 30300 (2002) 57100 32600 35000 36600 38600 43900 59500 75400 96400 126000
2020-07-06 00:30 11.72 58400 238000 (2011) 30300 (2002) 57100 32600 35000 36600 38600 43900 59500 75400 96400 126000
2020-07-05 23:30 11.75 58600 235000 (2011) 30800 (2002) 57700 32300 35000 37700 39000 45100 62900 69600 108000 127000
2020-07-05 22:30 11.77 58700 235000 (2011) 30800 (2002) 57700 32300 35000 37700 39000 45100 62900 69600 108000 127000
2020-07-05 21:30 11.78 58700 235000 (2011) 30800 (2002) 57700 32300 35000 37700 39000 45100 62900 69600 108000 127000
2020-07-05 20:30 11.79 58800 235000 (2011) 30800 (2002) 57700 32300 35000 37700 39000 45100 62900 69600 108000 127000
2020-07-05 19:30 11.80 58800 235000 (2011) 30800 (2002) 57700 32300 35000 37700 39000 45100 62900 69600 108000 127000
2020-07-05 18:30 11.81 58900 235000 (2011) 30800 (2002) 57700 32300 35000 37700 39000 45100 62900 69600 108000 127000
2020-07-05 17:30 11.81 58900 235000 (2011) 30800 (2002) 57700 32300 35000 37700 39000 45100 62900 69600 108000 127000
2020-07-05 16:30 11.79 58800 235000 (2011) 30800 (2002) 57700 32300 35000 37700 39000 45100 62900 69600 108000 127000
2020-07-05 15:30 11.80 58800 235000 (2011) 30800 (2002) 57700 32300 35000 37700 39000 45100 62900 69600 108000 127000
2020-07-05 14:30 11.80 58800 235000 (2011) 30800 (2002) 57700 32300 35000 37700 39000 45100 62900 69600 108000 127000
2020-07-05 13:30 11.81 58900 235000 (2011) 30800 (2002) 57700 32300 35000 37700 39000 45100 62900 69600 108000 127000
2020-07-05 12:30 11.79 58800 235000 (2011) 30800 (2002) 57700 32300 35000 37700 39000 45100 62900 69600 108000 127000
2020-07-05 11:30 11.77 58700 235000 (2011) 30800 (2002) 57700 32300 35000 37700 39000 45100 62900 69600 108000 127000
2020-07-05 10:30 11.77 58700 235000 (2011) 30800 (2002) 57700 32300 35000 37700 39000 45100 62900 69600 108000 127000
2020-07-05 09:30 11.78 58700 235000 (2011) 30800 (2002) 57700 32300 35000 37700 39000 45100 62900 69600 108000 127000
2020-07-05 08:30 11.80 58800 235000 (2011) 30800 (2002) 57700 32300 35000 37700 39000 45100 62900 69600 108000 127000
2020-07-05 07:30 11.80 58800 235000 (2011) 30800 (2002) 57700 32300 35000 37700 39000 45100 62900 69600 108000 127000
2020-07-05 06:30 11.80 58800 235000 (2011) 30800 (2002) 57700 32300 35000 37700 39000 45100 62900 69600 108000 127000
2020-07-05 05:30 11.81 58900 235000 (2011) 30800 (2002) 57700 32300 35000 37700 39000 45100 62900 69600 108000 127000
2020-07-05 04:30 11.84 59000 235000 (2011) 30800 (2002) 57700 32300 35000 37700 39000 45100 62900 69600 108000 127000
2020-07-05 03:30 11.85 59100 235000 (2011) 30800 (2002) 57700 32300 35000 37700 39000 45100 62900 69600 108000 127000
2020-07-05 02:30 11.88 59200 235000 (2011) 30800 (2002) 57700 32300 35000 37700 39000 45100 62900 69600 108000 127000
2020-07-05 01:30 11.91 59400 235000 (2011) 30800 (2002) 57700 32300 35000 37700 39000 45100 62900 69600 108000 127000
2020-07-05 00:30 11.94 59500 235000 (2011) 30800 (2002) 57700 32300 35000 37700 39000 45100 62900 69600 108000 127000
2020-07-04 23:30 11.96 59600 236000 (2011) 30900 (2002) 58500 32800 35600 38700 39400 47100 62000 73300 103000 122000
2020-07-04 22:30 11.97 59700 236000 (2011) 30900 (2002) 58500 32800 35600 38700 39400 47100 62000 73300 103000 122000
2020-07-04 21:30 11.99 59800 236000 (2011) 30900 (2002) 58500 32800 35600 38700 39400 47100 62000 73300 103000 122000
2020-07-04 20:30 12.03 60000 236000 (2011) 30900 (2002) 58500 32800 35600 38700 39400 47100 62000 73300 103000 122000
2020-07-04 19:30 12.02 60000 236000 (2011) 30900 (2002) 58500 32800 35600 38700 39400 47100 62000 73300 103000 122000
2020-07-04 18:30 12.06 60200 236000 (2011) 30900 (2002) 58500 32800 35600 38700 39400 47100 62000 73300 103000 122000
2020-07-04 17:30 12.08 60300 236000 (2011) 30900 (2002) 58500 32800 35600 38700 39400 47100 62000 73300 103000 122000
2020-07-04 16:30 12.07 60200 236000 (2011) 30900 (2002) 58500 32800 35600 38700 39400 47100 62000 73300 103000 122000
2020-07-04 15:30 12.07 60200 236000 (2011) 30900 (2002) 58500 32800 35600 38700 39400 47100 62000 73300 103000 122000
2020-07-04 14:30 12.05 60100 236000 (2011) 30900 (2002) 58500 32800 35600 38700 39400 47100 62000 73300 103000 122000
2020-07-04 13:30 12.06 60200 236000 (2011) 30900 (2002) 58500 32800 35600 38700 39400 47100 62000 73300 103000 122000
2020-07-04 12:30 12.07 60200 236000 (2011) 30900 (2002) 58500 32800 35600 38700 39400 47100 62000 73300 103000 122000
2020-07-04 11:30 12.07 60200 236000 (2011) 30900 (2002) 58500 32800 35600 38700 39400 47100 62000 73300 103000 122000
2020-07-04 10:30 12.07 60200 236000 (2011) 30900 (2002) 58500 32800 35600 38700 39400 47100 62000 73300 103000 122000
2020-07-04 09:30 12.08 60300 236000 (2011) 30900 (2002) 58500 32800 35600 38700 39400 47100 62000 73300 103000 122000
2020-07-04 08:30 12.09 60400 236000 (2011) 30900 (2002) 58500 32800 35600 38700 39400 47100 62000 73300 103000 122000
2020-07-04 07:30 12.13 60600 236000 (2011) 30900 (2002) 58500 32800 35600 38700 39400 47100 62000 73300 103000 122000
2020-07-04 06:30 12.13 60600 236000 (2011) 30900 (2002) 58500 32800 35600 38700 39400 47100 62000 73300 103000 122000
2020-07-04 05:30 12.15 60700 236000 (2011) 30900 (2002) 58500 32800 35600 38700 39400 47100 62000 73300 103000 122000
2020-07-04 04:30 12.19 60900 236000 (2011) 30900 (2002) 58500 32800 35600 38700 39400 47100 62000 73300 103000 122000
2020-07-04 03:30 12.21 61000 236000 (2011) 30900 (2002) 58500 32800 35600 38700 39400 47100 62000 73300 103000 122000
2020-07-04 02:30 12.24 61200 236000 (2011) 30900 (2002) 58500 32800 35600 38700 39400 47100 62000 73300 103000 122000
2020-07-04 01:30 12.26 61300 236000 (2011) 30900 (2002) 58500 32800 35600 38700 39400 47100 62000 73300 103000 122000
2020-07-04 00:30 12.29 61500 236000 (2011) 30900 (2002) 58500 32800 35600 38700 39400 47100 62000 73300 103000 122000
2020-07-03 23:30 12.32 61700 224000 (2011) 30900 (2002) 59700 33000 35900 38300 39600 47700 65000 78800 113000 122000
2020-07-03 22:30 12.36 61900 224000 (2011) 30900 (2002) 59700 33000 35900 38300 39600 47700 65000 78800 113000 122000
2020-07-03 21:30 12.39 62100 224000 (2011) 30900 (2002) 59700 33000 35900 38300 39600 47700 65000 78800 113000 122000
2020-07-03 20:30 12.42 62200 224000 (2011) 30900 (2002) 59700 33000 35900 38300 39600 47700 65000 78800 113000 122000
2020-07-03 19:30 12.44 62300 224000 (2011) 30900 (2002) 59700 33000 35900 38300 39600 47700 65000 78800 113000 122000
2020-07-03 18:30 12.45 62400 224000 (2011) 30900 (2002) 59700 33000 35900 38300 39600 47700 65000 78800 113000 122000
2020-07-03 17:30 12.50 62700 224000 (2011) 30900 (2002) 59700 33000 35900 38300 39600 47700 65000 78800 113000 122000
2020-07-03 16:30 12.52 62800 224000 (2011) 30900 (2002) 59700 33000 35900 38300 39600 47700 65000 78800 113000 122000
2020-07-03 15:30 12.55 63000 224000 (2011) 30900 (2002) 59700 33000 35900 38300 39600 47700 65000 78800 113000 122000
2020-07-03 14:30 12.57 63100 224000 (2011) 30900 (2002) 59700 33000 35900 38300 39600 47700 65000 78800 113000 122000
2020-07-03 13:30 12.61 63300 224000 (2011) 30900 (2002) 59700 33000 35900 38300 39600 47700 65000 78800 113000 122000
2020-07-03 12:30 12.64 63500 224000 (2011) 30900 (2002) 59700 33000 35900 38300 39600 47700 65000 78800 113000 122000
2020-07-03 11:30 12.64 63500 224000 (2011) 30900 (2002) 59700 33000 35900 38300 39600 47700 65000 78800 113000 122000
2020-07-03 10:30 12.66 63600 224000 (2011) 30900 (2002) 59700 33000 35900 38300 39600 47700 65000 78800 113000 122000
2020-07-03 09:30 12.67 63600 224000 (2011) 30900 (2002) 59700 33000 35900 38300 39600 47700 65000 78800 113000 122000
2020-07-03 08:30 12.71 63900 224000 (2011) 30900 (2002) 59700 33000 35900 38300 39600 47700 65000 78800 113000 122000
2020-07-03 07:30 12.73 64000 224000 (2011) 30900 (2002) 59700 33000 35900 38300 39600 47700 65000 78800 113000 122000
2020-07-03 06:30 12.75 64100 224000 (2011) 30900 (2002) 59700 33000 35900 38300 39600 47700 65000 78800 113000 122000
2020-07-03 05:30 12.79 64300 224000 (2011) 30900 (2002) 59700 33000 35900 38300 39600 47700 65000 78800 113000 122000
2020-07-03 04:30 12.81 64400 224000 (2011) 30900 (2002) 59700 33000 35900 38300 39600 47700 65000 78800 113000 122000
2020-07-03 03:30 12.86 64700 224000 (2011) 30900 (2002) 59700 33000 35900 38300 39600 47700 65000 78800 113000 122000
2020-07-03 02:30 12.91 65000 224000 (2011) 30900 (2002) 59700 33000 35900 38300 39600 47700 65000 78800 113000 122000
2020-07-03 01:30 12.91 65000 224000 (2011) 30900 (2002) 59700 33000 35900 38300 39600 47700 65000 78800 113000 122000
2020-07-03 00:30 12.94 65200 224000 (2011) 30900 (2002) 59700 33000 35900 38300 39600 47700 65000 78800 113000 122000
2020-07-02 23:30 12.94 65200 212000 (2011) 31200 (2002) 60500 33200 35600 38500 39800 47100 63500 81900 121000 132000
2020-07-02 22:30 13.00 65500 212000 (2011) 31200 (2002) 60500 33200 35600 38500 39800 47100 63500 81900 121000 132000
2020-07-02 21:30 13.00 65500 212000 (2011) 31200 (2002) 60500 33200 35600 38500 39800 47100 63500 81900 121000 132000
2020-07-02 20:30 13.04 65700 212000 (2011) 31200 (2002) 60500 33200 35600 38500 39800 47100 63500 81900 121000 132000
2020-07-02 19:30 13.05 65800 212000 (2011) 31200 (2002) 60500 33200 35600 38500 39800 47100 63500 81900 121000 132000
2020-07-02 18:30 13.08 66000 212000 (2011) 31200 (2002) 60500 33200 35600 38500 39800 47100 63500 81900 121000 132000
2020-07-02 17:30 13.09 66000 212000 (2011) 31200 (2002) 60500 33200 35600 38500 39800 47100 63500 81900 121000 132000
2020-07-02 16:30 13.11 66100 212000 (2011) 31200 (2002) 60500 33200 35600 38500 39800 47100 63500 81900 121000 132000
2020-07-02 15:30 13.13 66300 212000 (2011) 31200 (2002) 60500 33200 35600 38500 39800 47100 63500 81900 121000 132000
2020-07-02 14:30 13.14 66300 212000 (2011) 31200 (2002) 60500 33200 35600 38500 39800 47100 63500 81900 121000 132000
2020-07-02 13:30 13.18 66500 212000 (2011) 31200 (2002) 60500 33200 35600 38500 39800 47100 63500 81900 121000 132000
2020-07-02 12:30 13.20 68000 212000 (2011) 31200 (2002) 60500 33200 35600 38500 39800 47100 63500 81900 121000 132000
2020-07-02 11:30 13.24 68300 212000 (2011) 31200 (2002) 60500 33200 35600 38500 39800 47100 63500 81900 121000 132000
2020-07-02 10:30 13.29 68600 212000 (2011) 31200 (2002) 60500 33200 35600 38500 39800 47100 63500 81900 121000 132000
2020-07-02 09:30 13.34 68900 212000 (2011) 31200 (2002) 60500 33200 35600 38500 39800 47100 63500 81900 121000 132000
2020-07-02 08:30 13.38 69200 212000 (2011) 31200 (2002) 60500 33200 35600 38500 39800 47100 63500 81900 121000 132000
2020-07-02 07:30 13.45 69700 212000 (2011) 31200 (2002) 60500 33200 35600 38500 39800 47100 63500 81900 121000 132000
2020-07-02 06:30 13.49 69900 212000 (2011) 31200 (2002) 60500 33200 35600 38500 39800 47100 63500 81900 121000 132000
2020-07-02 05:30 13.53 70200 212000 (2011) 31200 (2002) 60500 33200 35600 38500 39800 47100 63500 81900 121000 132000
2020-07-02 04:30 13.57 70400 212000 (2011) 31200 (2002) 60500 33200 35600 38500 39800 47100 63500 81900 121000 132000
2020-07-02 03:30 13.60 70600 212000 (2011) 31200 (2002) 60500 33200 35600 38500 39800 47100 63500 81900 121000 132000
2020-07-02 02:30 13.62 70800 212000 (2011) 31200 (2002) 60500 33200 35600 38500 39800 47100 63500 81900 121000 132000
2020-07-02 01:30 13.63 70800 212000 (2011) 31200 (2002) 60500 33200 35600 38500 39800 47100 63500 81900 121000 132000
2020-07-02 00:30 13.60 70600 212000 (2011) 31200 (2002) 60500 33200 35600 38500 39800 47100 63500 81900 121000 132000
2020-07-01 23:30 13.57 70400 223000 (2011) 30700 (1956) 60600 31900 34300 37900 40400 47900 66500 77200 117000 131000
2020-07-01 22:30 13.54 70200 223000 (2011) 30700 (1956) 60600 31900 34300 37900 40400 47900 66500 77200 117000 131000
2020-07-01 21:30 13.46 69700 223000 (2011) 30700 (1956) 60600 31900 34300 37900 40400 47900 66500 77200 117000 131000
2020-07-01 20:30 13.38 69200 223000 (2011) 30700 (1956) 60600 31900 34300 37900 40400 47900 66500 77200 117000 131000
2020-07-01 19:30 13.28 68500 223000 (2011) 30700 (1956) 60600 31900 34300 37900 40400 47900 66500 77200 117000 131000
2020-07-01 18:30 13.20 68000 223000 (2011) 30700 (1956) 60600 31900 34300 37900 40400 47900 66500 77200 117000 131000
2020-07-01 17:30 13.16 67700 223000 (2011) 30700 (1956) 60600 31900 34300 37900 40400 47900 66500 77200 117000 131000
2020-07-01 16:30 13.08 67200 223000 (2011) 30700 (1956) 60600 31900 34300 37900 40400 47900 66500 77200 117000 131000
2020-07-01 15:30 13.02 66900 223000 (2011) 30700 (1956) 60600 31900 34300 37900 40400 47900 66500 77200 117000 131000
2020-07-01 14:30 12.95 66500 223000 (2011) 30700 (1956) 60600 31900 34300 37900 40400 47900 66500 77200 117000 131000
2020-07-01 13:30 12.86 66000 223000 (2011) 30700 (1956) 60600 31900 34300 37900 40400 47900 66500 77200 117000 131000
2020-07-01 12:30 12.78 65500 223000 (2011) 30700 (1956) 60600 31900 34300 37900 40400 47900 66500 77200 117000 131000
2020-07-01 11:30 12.71 65100 223000 (2011) 30700 (1956) 60600 31900 34300 37900 40400 47900 66500 77200 117000 131000
2020-07-01 10:30 12.62 64600 223000 (2011) 30700 (1956) 60600 31900 34300 37900 40400 47900 66500 77200 117000 131000
2020-07-01 09:30 12.58 64400 223000 (2011) 30700 (1956) 60600 31900 34300 37900 40400 47900 66500 77200 117000 131000
2020-07-01 08:30 12.48 63800 223000 (2011) 30700 (1956) 60600 31900 34300 37900 40400 47900 66500 77200 117000 131000
2020-07-01 07:30 12.44 63600 223000 (2011) 30700 (1956) 60600 31900 34300 37900 40400 47900 66500 77200 117000 131000
2020-07-01 06:30 12.37 63200 223000 (2011) 30700 (1956) 60600 31900 34300 37900 40400 47900 66500 77200 117000 131000
2020-07-01 05:30 12.29 62700 223000 (2011) 30700 (1956) 60600 31900 34300 37900 40400 47900 66500 77200 117000 131000
2020-07-01 04:30 12.31 62800 223000 (2011) 30700 (1956) 60600 31900 34300 37900 40400 47900 66500 77200 117000 131000
2020-07-01 03:30 12.27 62600 223000 (2011) 30700 (1956) 60600 31900 34300 37900 40400 47900 66500 77200 117000 131000
2020-07-01 02:30 12.18 62100 223000 (2011) 30700 (1956) 60600 31900 34300 37900 40400 47900 66500 77200 117000 131000
2020-07-01 01:30 12.18 62100 223000 (2011) 30700 (1956) 60600 31900 34300 37900 40400 47900 66500 77200 117000 131000
2020-07-01 00:30 12.21 62300 223000 (2011) 30700 (1956) 60600 31900 34300 37900 40400 47900 66500 77200 117000 131000
2020-06-30 23:30 12.22 62300 235000 (2011) 29800 (1958) 60800 32700 36400 39000 39400 49500 62900 79800 111000 128000
2020-06-30 22:30 12.26 62600 235000 (2011) 29800 (1958) 60800 32700 36400 39000 39400 49500 62900 79800 111000 128000
2020-06-30 21:30 12.28 62700 235000 (2011) 29800 (1958) 60800 32700 36400 39000 39400 49500 62900 79800 111000 128000
2020-06-30 20:30 12.30 62800 235000 (2011) 29800 (1958) 60800 32700 36400 39000 39400 49500 62900 79800 111000 128000
2020-06-30 19:30 12.32 62900 235000 (2011) 29800 (1958) 60800 32700 36400 39000 39400 49500 62900 79800 111000 128000
2020-06-30 18:30 12.30 62800 235000 (2011) 29800 (1958) 60800 32700 36400 39000 39400 49500 62900 79800 111000 128000
2020-06-30 17:30 12.31 62800 235000 (2011) 29800 (1958) 60800 32700 36400 39000 39400 49500 62900 79800 111000 128000
2020-06-30 16:30 12.32 62900 235000 (2011) 29800 (1958) 60800 32700 36400 39000 39400 49500 62900 79800 111000 128000
2020-06-30 15:30 12.34 63000 235000 (2011) 29800 (1958) 60800 32700 36400 39000 39400 49500 62900 79800 111000 128000
2020-06-30 14:30 12.34 63000 235000 (2011) 29800 (1958) 60800 32700 36400 39000 39400 49500 62900 79800 111000 128000
2020-06-30 13:30 12.33 63000 235000 (2011) 29800 (1958) 60800 32700 36400 39000 39400 49500 62900 79800 111000 128000
2020-06-30 12:30 12.34 63000 235000 (2011) 29800 (1958) 60800 32700 36400 39000 39400 49500 62900 79800 111000 128000
2020-06-30 11:30 12.36 63100 235000 (2011) 29800 (1958) 60800 32700 36400 39000 39400 49500 62900 79800 111000 128000
2020-06-30 10:30 12.36 63100 235000 (2011) 29800 (1958) 60800 32700 36400 39000 39400 49500 62900 79800 111000 128000
2020-06-30 09:30 12.35 63100 235000 (2011) 29800 (1958) 60800 32700 36400 39000 39400 49500 62900 79800 111000 128000
2020-06-30 08:30 12.38 63200 235000 (2011) 29800 (1958) 60800 32700 36400 39000 39400 49500 62900 79800 111000 128000
2020-06-30 07:30 12.42 63500 235000 (2011) 29800 (1958) 60800 32700 36400 39000 39400 49500 62900 79800 111000 128000
2020-06-30 06:30 12.40 63400 235000 (2011) 29800 (1958) 60800 32700 36400 39000 39400 49500 62900 79800 111000 128000
2020-06-30 05:30 12.41 63400 235000 (2011) 29800 (1958) 60800 32700 36400 39000 39400 49500 62900 79800 111000 128000
2020-06-30 04:30 12.44 63600 235000 (2011) 29800 (1958) 60800 32700 36400 39000 39400 49500 62900 79800 111000 128000
2020-06-30 03:30 12.44 63600 235000 (2011) 29800 (1958) 60800 32700 36400 39000 39400 49500 62900 79800 111000 128000
2020-06-30 02:30 12.47 63800 235000 (2011) 29800 (1958) 60800 32700 36400 39000 39400 49500 62900 79800 111000 128000
2020-06-30 01:30 12.48 63800 235000 (2011) 29800 (1958) 60800 32700 36400 39000 39400 49500 62900 79800 111000 128000
2020-06-30 00:30 12.52 64000 235000 (2011) 29800 (1958) 60800 32700 36400 39000 39400 49500 62900 79800 111000 128000
2020-06-29 23:30 12.55 64200 247000 (2011) 30100 (1958) 61800 34500 37500 39600 40400 50000 66600 77400 108000 124000
2020-06-29 22:30 12.58 64400 247000 (2011) 30100 (1958) 61800 34500 37500 39600 40400 50000 66600 77400 108000 124000
2020-06-29 21:30 12.61 64500 247000 (2011) 30100 (1958) 61800 34500 37500 39600 40400 50000 66600 77400 108000 124000
2020-06-29 20:30 12.63 64700 247000 (2011) 30100 (1958) 61800 34500 37500 39600 40400 50000 66600 77400 108000 124000
2020-06-29 19:30 12.66 64800 247000 (2011) 30100 (1958) 61800 34500 37500 39600 40400 50000 66600 77400 108000 124000
2020-06-29 18:30 12.66 64800 247000 (2011) 30100 (1958) 61800 34500 37500 39600 40400 50000 66600 77400 108000 124000
2020-06-29 17:30 12.68 64900 247000 (2011) 30100 (1958) 61800 34500 37500 39600 40400 50000 66600 77400 108000 124000
2020-06-29 16:30 12.71 65100 247000 (2011) 30100 (1958) 61800 34500 37500 39600 40400 50000 66600 77400 108000 124000
2020-06-29 15:30 12.73 65200 247000 (2011) 30100 (1958) 61800 34500 37500 39600 40400 50000 66600 77400 108000 124000
2020-06-29 14:30 12.75 65300 247000 (2011) 30100 (1958) 61800 34500 37500 39600 40400 50000 66600 77400 108000 124000
2020-06-29 13:30 12.75 65300 247000 (2011) 30100 (1958) 61800 34500 37500 39600 40400 50000 66600 77400 108000 124000
2020-06-29 12:30 12.77 65500 247000 (2011) 30100 (1958) 61800 34500 37500 39600 40400 50000 66600 77400 108000 124000
2020-06-29 11:30 12.80 65600 247000 (2011) 30100 (1958) 61800 34500 37500 39600 40400 50000 66600 77400 108000 124000
2020-06-29 10:30 12.82 65700 247000 (2011) 30100 (1958) 61800 34500 37500 39600 40400 50000 66600 77400 108000 124000
2020-06-29 09:30 12.85 65900 247000 (2011) 30100 (1958) 61800 34500 37500 39600 40400 50000 66600 77400 108000 124000
2020-06-29 08:30 12.87 66000 247000 (2011) 30100 (1958) 61800 34500 37500 39600 40400 50000 66600 77400 108000 124000
2020-06-29 07:30 12.91 66300 247000 (2011) 30100 (1958) 61800 34500 37500 39600 40400 50000 66600 77400 108000 124000
2020-06-29 06:30 12.94 66400 247000 (2011) 30100 (1958) 61800 34500 37500 39600 40400 50000 66600 77400 108000 124000
2020-06-29 05:30 12.95 66500 247000 (2011) 30100 (1958) 61800 34500 37500 39600 40400 50000 66600 77400 108000 124000
2020-06-29 04:30 12.96 66500 247000 (2011) 30100 (1958) 61800 34500 37500 39600 40400 50000 66600 77400 108000 124000
2020-06-29 03:30 12.98 66700 247000 (2011) 30100 (1958) 61800 34500 37500 39600 40400 50000 66600 77400 108000 124000
2020-06-29 02:30 12.98 66700 247000 (2011) 30100 (1958) 61800 34500 37500 39600 40400 50000 66600 77400 108000 124000
2020-06-29 01:30 12.98 66700 247000 (2011) 30100 (1958) 61800 34500 37500 39600 40400 50000 66600 77400 108000 124000
2020-06-29 00:30 12.96 66500 247000 (2011) 30100 (1958) 61800 34500 37500 39600 40400 50000 66600 77400 108000 124000
2020-06-28 23:30 12.94 66400 279000 (2011) 30400 (1958) 62900 34900 36300 39700 41400 50400 68600 84000 113000 125000
2020-06-28 22:30 12.94 66400 279000 (2011) 30400 (1958) 62900 34900 36300 39700 41400 50400 68600 84000 113000 125000
2020-06-28 21:30 12.96 66500 279000 (2011) 30400 (1958) 62900 34900 36300 39700 41400 50400 68600 84000 113000 125000
2020-06-28 20:30 12.97 66600 279000 (2011) 30400 (1958) 62900 34900 36300 39700 41400 50400 68600 84000 113000 125000
2020-06-28 19:30 13.00 66800 279000 (2011) 30400 (1958) 62900 34900 36300 39700 41400 50400 68600 84000 113000 125000
2020-06-28 18:30 13.02 66900 279000 (2011) 30400 (1958) 62900 34900 36300 39700 41400 50400 68600 84000 113000 125000
2020-06-28 17:30 13.05 67100 279000 (2011) 30400 (1958) 62900 34900 36300 39700 41400 50400 68600 84000 113000 125000
2020-06-28 16:30 13.08 67200 279000 (2011) 30400 (1958) 62900 34900 36300 39700 41400 50400 68600 84000 113000 125000
2020-06-28 15:30 13.11 67400 279000 (2011) 30400 (1958) 62900 34900 36300 39700 41400 50400 68600 84000 113000 125000
2020-06-28 14:30 13.12 67500 279000 (2011) 30400 (1958) 62900 34900 36300 39700 41400 50400 68600 84000 113000 125000
2020-06-28 13:30 13.16 67700 279000 (2011) 30400 (1958) 62900 34900 36300 39700 41400 50400 68600 84000 113000 125000
2020-06-28 12:30 13.22 68100 279000 (2011) 30400 (1958) 62900 34900 36300 39700 41400 50400 68600 84000 113000 125000
2020-06-28 11:30 13.26 68400 279000 (2011) 30400 (1958) 62900 34900 36300 39700 41400 50400 68600 84000 113000 125000
2020-06-28 10:30 13.32 68800 279000 (2011) 30400 (1958) 62900 34900 36300 39700 41400 50400 68600 84000 113000 125000
2020-06-28 09:30 13.33 68900 279000 (2011) 30400 (1958) 62900 34900 36300 39700 41400 50400 68600 84000 113000 125000
2020-06-28 08:30 13.37 69100 279000 (2011) 30400 (1958) 62900 34900 36300 39700 41400 50400 68600 84000 113000 125000
2020-06-28 07:30 13.46 69700 279000 (2011) 30400 (1958) 62900 34900 36300 39700 41400 50400 68600 84000 113000 125000
2020-06-28 06:30 13.53 70200 279000 (2011) 30400 (1958) 62900 34900 36300 39700 41400 50400 68600 84000 113000 125000
2020-06-28 05:30 13.62 70800 279000 (2011) 30400 (1958) 62900 34900 36300 39700 41400 50400 68600 84000 113000 125000
2020-06-28 04:30 13.68 71200 279000 (2011) 30400 (1958) 62900 34900 36300 39700 41400 50400 68600 84000 113000 125000
2020-06-28 03:30 13.78 71800 279000 (2011) 30400 (1958) 62900 34900 36300 39700 41400 50400 68600 84000 113000 125000
2020-06-28 02:30 13.88 72500 279000 (2011) 30400 (1958) 62900 34900 36300 39700 41400 50400 68600 84000 113000 125000
2020-06-28 01:30 13.99 73300 279000 (2011) 30400 (1958) 62900 34900 36300 39700 41400 50400 68600 84000 113000 125000
2020-06-28 00:30 14.12 74100 279000 (2011) 30400 (1958) 62900 34900 36300 39700 41400 50400 68600 84000 113000 125000
2020-06-27 23:30 14.24 74900 302000 (2011) 31000 (1958) 64000 32900 35600 40400 41300 50400 71900 78200 108000 131000
2020-06-27 22:30 14.35 75700 302000 (2011) 31000 (1958) 64000 32900 35600 40400 41300 50400 71900 78200 108000 131000
2020-06-27 21:30 14.44 76300 302000 (2011) 31000 (1958) 64000 32900 35600 40400 41300 50400 71900 78200 108000 131000
2020-06-27 20:30 14.53 76900 302000 (2011) 31000 (1958) 64000 32900 35600 40400 41300 50400 71900 78200 108000 131000
2020-06-27 19:30 14.58 77300 302000 (2011) 31000 (1958) 64000 32900 35600 40400 41300 50400 71900 78200 108000 131000
2020-06-27 18:30 14.59 77300 302000 (2011) 31000 (1958) 64000 32900 35600 40400 41300 50400 71900 78200 108000 131000
2020-06-27 17:30 14.60 77400 302000 (2011) 31000 (1958) 64000 32900 35600 40400 41300 50400 71900 78200 108000 131000
2020-06-27 16:30 14.59 77300 302000 (2011) 31000 (1958) 64000 32900 35600 40400 41300 50400 71900 78200 108000 131000
2020-06-27 15:30 14.54 77000 302000 (2011) 31000 (1958) 64000 32900 35600 40400 41300 50400 71900 78200 108000 131000
2020-06-27 14:30 14.42 76200 302000 (2011) 31000 (1958) 64000 32900 35600 40400 41300 50400 71900 78200 108000 131000
2020-06-27 13:30 14.30 75300 302000 (2011) 31000 (1958) 64000 32900 35600 40400 41300 50400 71900 78200 108000 131000
2020-06-27 12:30 14.12 74100 302000 (2011) 31000 (1958) 64000 32900 35600 40400 41300 50400 71900 78200 108000 131000
2020-06-27 11:30 13.91 72700 302000 (2011) 31000 (1958) 64000 32900 35600 40400 41300 50400 71900 78200 108000 131000
2020-06-27 10:30 13.67 71100 302000 (2011) 31000 (1958) 64000 32900 35600 40400 41300 50400 71900 78200 108000 131000
2020-06-27 09:30 13.45 69700 302000 (2011) 31000 (1958) 64000 32900 35600 40400 41300 50400 71900 78200 108000 131000
2020-06-27 08:30 13.28 68500 302000 (2011) 31000 (1958) 64000 32900 35600 40400 41300 50400 71900 78200 108000 131000
2020-06-27 07:30 13.14 67600 302000 (2011) 31000 (1958) 64000 32900 35600 40400 41300 50400 71900 78200 108000 131000
2020-06-27 06:30 13.06 67100 302000 (2011) 31000 (1958) 64000 32900 35600 40400 41300 50400 71900 78200 108000 131000
2020-06-27 05:30 12.97 66600 302000 (2011) 31000 (1958) 64000 32900 35600 40400 41300 50400 71900 78200 108000 131000
2020-06-27 04:30 12.89 66100 302000 (2011) 31000 (1958) 64000 32900 35600 40400 41300 50400 71900 78200 108000 131000
2020-06-27 03:30 12.85 65900 302000 (2011) 31000 (1958) 64000 32900 35600 40400 41300 50400 71900 78200 108000 131000
2020-06-27 02:30 12.78 65500 302000 (2011) 31000 (1958) 64000 32900 35600 40400 41300 50400 71900 78200 108000 131000
2020-06-27 01:30 12.74 65300 302000 (2011) 31000 (1958) 64000 32900 35600 40400 41300 50400 71900 78200 108000 131000
2020-06-27 00:30 12.74 65300 302000 (2011) 31000 (1958) 64000 32900 35600 40400 41300 50400 71900 78200 108000 131000
2020-06-26 23:30 12.69 65000 220000 (2011) 31700 (1958) 64600 33700 35700 41600 42400 52200 74800 84100 113000 147000
2020-06-26 22:30 12.70 65100 220000 (2011) 31700 (1958) 64600 33700 35700 41600 42400 52200 74800 84100 113000 147000
2020-06-26 21:30 12.73 65200 220000 (2011) 31700 (1958) 64600 33700 35700 41600 42400 52200 74800 84100 113000 147000
2020-06-26 20:30 12.76 65400 220000 (2011) 31700 (1958) 64600 33700 35700 41600 42400 52200 74800 84100 113000 147000
2020-06-26 19:30 12.79 65600 220000 (2011) 31700 (1958) 64600 33700 35700 41600 42400 52200 74800 84100 113000 147000
2020-06-26 18:30 12.79 65600 220000 (2011) 31700 (1958) 64600 33700 35700 41600 42400 52200 74800 84100 113000 147000
2020-06-26 17:30 12.80 65600 220000 (2011) 31700 (1958) 64600 33700 35700 41600 42400 52200 74800 84100 113000 147000
2020-06-26 16:30 12.81 65700 220000 (2011) 31700 (1958) 64600 33700 35700 41600 42400 52200 74800 84100 113000 147000
2020-06-26 15:30 12.81 65700 220000 (2011) 31700 (1958) 64600 33700 35700 41600 42400 52200 74800 84100 113000 147000
2020-06-26 14:30 12.81 65700 220000 (2011) 31700 (1958) 64600 33700 35700 41600 42400 52200 74800 84100 113000 147000
2020-06-26 13:30 12.79 65600 220000 (2011) 31700 (1958) 64600 33700 35700 41600 42400 52200 74800 84100 113000 147000
2020-06-26 12:30 12.79 65600 220000 (2011) 31700 (1958) 64600 33700 35700 41600 42400 52200 74800 84100 113000 147000
2020-06-26 11:30 12.76 65400 220000 (2011) 31700 (1958) 64600 33700 35700 41600 42400 52200 74800 84100 113000 147000
2020-06-26 10:30 12.76 65400 220000 (2011) 31700 (1958) 64600 33700 35700 41600 42400 52200 74800 84100 113000 147000
2020-06-26 09:30 12.75 65300 220000 (2011) 31700 (1958) 64600 33700 35700 41600 42400 52200 74800 84100 113000 147000
2020-06-26 08:30 12.76 65400 220000 (2011) 31700 (1958) 64600 33700 35700 41600 42400 52200 74800 84100 113000 147000
2020-06-26 07:30 12.74 65300 220000 (2011) 31700 (1958) 64600 33700 35700 41600 42400 52200 74800 84100 113000 147000
2020-06-26 06:30 12.73 65200 220000 (2011) 31700 (1958) 64600 33700 35700 41600 42400 52200 74800 84100 113000 147000
2020-06-26 05:30 12.73 65200 220000 (2011) 31700 (1958) 64600 33700 35700 41600 42400 52200 74800 84100 113000 147000
2020-06-26 04:30 12.73 65200 220000 (2011) 31700 (1958) 64600 33700 35700 41600 42400 52200 74800 84100 113000 147000
2020-06-26 03:30 12.75 65300 220000 (2011) 31700 (1958) 64600 33700 35700 41600 42400 52200 74800 84100 113000 147000
2020-06-26 02:30 12.76 65400 220000 (2011) 31700 (1958) 64600 33700 35700 41600 42400 52200 74800 84100 113000 147000
2020-06-26 01:30 12.77 65500 220000 (2011) 31700 (1958) 64600 33700 35700 41600 42400 52200 74800 84100 113000 147000
2020-06-26 00:30 12.75 65300 220000 (2011) 31700 (1958) 64600 33700 35700 41600 42400 52200 74800 84100 113000 147000
2020-06-25 23:30 12.79 65600 201000 (2010) 32000 (1958) 64700 34600 36000 41700 43700 51300 73400 77500 111000 149000
2020-06-25 22:30 12.81 65700 201000 (2010) 32000 (1958) 64700 34600 36000 41700 43700 51300 73400 77500 111000 149000
2020-06-25 21:30 12.79 65600 201000 (2010) 32000 (1958) 64700 34600 36000 41700 43700 51300 73400 77500 111000 149000
2020-06-25 20:30 12.81 65700 201000 (2010) 32000 (1958) 64700 34600 36000 41700 43700 51300 73400 77500 111000 149000
2020-06-25 19:30 12.83 65800 201000 (2010) 32000 (1958) 64700 34600 36000 41700 43700 51300 73400 77500 111000 149000
2020-06-25 18:30 12.81 65700 201000 (2010) 32000 (1958) 64700 34600 36000 41700 43700 51300 73400 77500 111000 149000
2020-06-25 17:30 12.83 65800 201000 (2010) 32000 (1958) 64700 34600 36000 41700 43700 51300 73400 77500 111000 149000
2020-06-25 16:30 12.84 65900 201000 (2010) 32000 (1958) 64700 34600 36000 41700 43700 51300 73400 77500 111000 149000
2020-06-25 15:30 12.85 65900 201000 (2010) 32000 (1958) 64700 34600 36000 41700 43700 51300 73400 77500 111000 149000
2020-06-25 14:30 12.85 65900 201000 (2010) 32000 (1958) 64700 34600 36000 41700 43700 51300 73400 77500 111000 149000
2020-06-25 13:30 12.84 65900 201000 (2010) 32000 (1958) 64700 34600 36000 41700 43700 51300 73400 77500 111000 149000
2020-06-25 12:30 12.83 65300 201000 (2010) 32000 (1958) 64700 34600 36000 41700 43700 51300 73400 77500 111000 149000
2020-06-25 11:30 12.81 65200 201000 (2010) 32000 (1958) 64700 34600 36000 41700 43700 51300 73400 77500 111000 149000
2020-06-25 10:30 12.86 65500 201000 (2010) 32000 (1958) 64700 34600 36000 41700 43700 51300 73400 77500 111000 149000
2020-06-25 09:30 12.83 65300 201000 (2010) 32000 (1958) 64700 34600 36000 41700 43700 51300 73400 77500 111000 149000
2020-06-25 08:30 12.83 65300 201000 (2010) 32000 (1958) 64700 34600 36000 41700 43700 51300 73400 77500 111000 149000
2020-06-25 07:30 12.82 65200 201000 (2010) 32000 (1958) 64700 34600 36000 41700 43700 51300 73400 77500 111000 149000
2020-06-25 06:30 12.82 65200 201000 (2010) 32000 (1958) 64700 34600 36000 41700 43700 51300 73400 77500 111000 149000
2020-06-25 05:30 12.83 65300 201000 (2010) 32000 (1958) 64700 34600 36000 41700 43700 51300 73400 77500 111000 149000
2020-06-25 04:30 12.81 65200 201000 (2010) 32000 (1958) 64700 34600 36000 41700 43700 51300 73400 77500 111000 149000
2020-06-25 03:30 12.81 65200 201000 (2010) 32000 (1958) 64700 34600 36000 41700 43700 51300 73400 77500 111000 149000
2020-06-25 02:30 12.84 65300 201000 (2010) 32000 (1958) 64700 34600 36000 41700 43700 51300 73400 77500 111000 149000
2020-06-25 01:30 12.83 65300 201000 (2010) 32000 (1958) 64700 34600 36000 41700 43700 51300 73400 77500 111000 149000
2020-06-25 00:30 12.82 65200 201000 (2010) 32000 (1958) 64700 34600 36000 41700 43700 51300 73400 77500 111000 149000
2020-06-24 23:30 12.83 65300 213000 (2010) 32700 (1958) 64500 35300 36100 38100 41000 52600 74600 82900 111000 147000
2020-06-24 22:30 12.83 65300 213000 (2010) 32700 (1958) 64500 35300 36100 38100 41000 52600 74600 82900 111000 147000
2020-06-24 21:30 12.84 65300 213000 (2010) 32700 (1958) 64500 35300 36100 38100 41000 52600 74600 82900 111000 147000
2020-06-24 20:30 12.85 65400 213000 (2010) 32700 (1958) 64500 35300 36100 38100 41000 52600 74600 82900 111000 147000
2020-06-24 19:30 12.84 65300 213000 (2010) 32700 (1958) 64500 35300 36100 38100 41000 52600 74600 82900 111000 147000
2020-06-24 18:30 12.84 65300 213000 (2010) 32700 (1958) 64500 35300 36100 38100 41000 52600 74600 82900 111000 147000
2020-06-24 17:30 12.83 65300 213000 (2010) 32700 (1958) 64500 35300 36100 38100 41000 52600 74600 82900 111000 147000
2020-06-24 16:30 12.85 65400 213000 (2010) 32700 (1958) 64500 35300 36100 38100 41000 52600 74600 82900 111000 147000
2020-06-24 15:30 12.85 65400 213000 (2010) 32700 (1958) 64500 35300 36100 38100 41000 52600 74600 82900 111000 147000
2020-06-24 14:30 12.84 65300 213000 (2010) 32700 (1958) 64500 35300 36100 38100 41000 52600 74600 82900 111000 147000
2020-06-24 13:30 12.84 65300 213000 (2010) 32700 (1958) 64500 35300 36100 38100 41000 52600 74600 82900 111000 147000
2020-06-24 12:30 12.83 65300 213000 (2010) 32700 (1958) 64500 35300 36100 38100 41000 52600 74600 82900 111000 147000
2020-06-24 11:30 12.81 65200 213000 (2010) 32700 (1958) 64500 35300 36100 38100 41000 52600 74600 82900 111000 147000
2020-06-24 10:30 12.82 65200 213000 (2010) 32700 (1958) 64500 35300 36100 38100 41000 52600 74600 82900 111000 147000
2020-06-24 09:30 12.80 65100 213000 (2010) 32700 (1958) 64500 35300 36100 38100 41000 52600 74600 82900 111000 147000
2020-06-24 08:30 12.79 65100 213000 (2010) 32700 (1958) 64500 35300 36100 38100 41000 52600 74600 82900 111000 147000
2020-06-24 07:30 12.80 65100 213000 (2010) 32700 (1958) 64500 35300 36100 38100 41000 52600 74600 82900 111000 147000
2020-06-24 06:30 12.81 65200 213000 (2010) 32700 (1958) 64500 35300 36100 38100 41000 52600 74600 82900 111000 147000
2020-06-24 05:30 12.79 65100 213000 (2010) 32700 (1958) 64500 35300 36100 38100 41000 52600 74600 82900 111000 147000
2020-06-24 04:30 12.79 65100 213000 (2010) 32700 (1958) 64500 35300 36100 38100 41000 52600 74600 82900 111000 147000
2020-06-24 03:30 12.80 65100 213000 (2010) 32700 (1958) 64500 35300 36100 38100 41000 52600 74600 82900 111000 147000
2020-06-24 02:30 12.80 65100 213000 (2010) 32700 (1958) 64500 35300 36100 38100 41000 52600 74600 82900 111000 147000
2020-06-24 01:30 12.81 65200 213000 (2010) 32700 (1958) 64500 35300 36100 38100 41000 52600 74600 82900 111000 147000
2020-06-24 00:30 12.80 65100 213000 (2010) 32700 (1958) 64500 35300 36100 38100 41000 52600 74600 82900 111000 147000
2020-06-23 23:30 12.82 65200 217000 (2011) 32400 (1958) 65100 35700 36400 38300 41000 52700 73400 76000 113000 152000
2020-06-23 22:30 12.82 65200 217000 (2011) 32400 (1958) 65100 35700 36400 38300 41000 52700 73400 76000 113000 152000
2020-06-23 21:30 12.81 65200 217000 (2011) 32400 (1958) 65100 35700 36400 38300 41000 52700 73400 76000 113000 152000
2020-06-23 20:30 12.85 65400 217000 (2011) 32400 (1958) 65100 35700 36400 38300 41000 52700 73400 76000 113000 152000
2020-06-23 19:30 12.85 65400 217000 (2011) 32400 (1958) 65100 35700 36400 38300 41000 52700 73400 76000 113000 152000
2020-06-23 18:30 12.86 65500 217000 (2011) 32400 (1958) 65100 35700 36400 38300 41000 52700 73400 76000 113000 152000
2020-06-23 17:30 12.85 65400 217000 (2011) 32400 (1958) 65100 35700 36400 38300 41000 52700 73400 76000 113000 152000
2020-06-23 16:30 12.86 65500 217000 (2011) 32400 (1958) 65100 35700 36400 38300 41000 52700 73400 76000 113000 152000
2020-06-23 15:30 12.84 65300 217000 (2011) 32400 (1958) 65100 35700 36400 38300 41000 52700 73400 76000 113000 152000
2020-06-23 14:30 12.86 65500 217000 (2011) 32400 (1958) 65100 35700 36400 38300 41000 52700 73400 76000 113000 152000
2020-06-23 13:30 12.85 65400 217000 (2011) 32400 (1958) 65100 35700 36400 38300 41000 52700 73400 76000 113000 152000
2020-06-23 12:30 12.85 65400 217000 (2011) 32400 (1958) 65100 35700 36400 38300 41000 52700 73400 76000 113000 152000
2020-06-23 11:30 12.86 65500 217000 (2011) 32400 (1958) 65100 35700 36400 38300 41000 52700 73400 76000 113000 152000
2020-06-23 10:30 12.84 65300 217000 (2011) 32400 (1958) 65100 35700 36400 38300 41000 52700 73400 76000 113000 152000
2020-06-23 09:30 12.84 65300 217000 (2011) 32400 (1958) 65100 35700 36400 38300 41000 52700 73400 76000 113000 152000
2020-06-23 08:30 12.84 65300 217000 (2011) 32400 (1958) 65100 35700 36400 38300 41000 52700 73400 76000 113000 152000
2020-06-23 07:30 12.84 65300 217000 (2011) 32400 (1958) 65100 35700 36400 38300 41000 52700 73400 76000 113000 152000
2020-06-23 06:30 12.83 65300 217000 (2011) 32400 (1958) 65100 35700 36400 38300 41000 52700 73400 76000 113000 152000
2020-06-23 05:30 12.82 65200 217000 (2011) 32400 (1958) 65100 35700 36400 38300 41000 52700 73400 76000 113000 152000
2020-06-23 04:30 12.82 65200 217000 (2011) 32400 (1958) 65100 35700 36400 38300 41000 52700 73400 76000 113000 152000
2020-06-23 03:30 12.81 65200 217000 (2011) 32400 (1958) 65100 35700 36400 38300 41000 52700 73400 76000 113000 152000
2020-06-23 02:30 12.79 65100 217000 (2011) 32400 (1958) 65100 35700 36400 38300 41000 52700 73400 76000 113000 152000
2020-06-23 01:30 12.79 65100 217000 (2011) 32400 (1958) 65100 35700 36400 38300 41000 52700 73400 76000 113000 152000
2020-06-23 00:30 12.79 65100 217000 (2011) 32400 (1958) 65100 35700 36400 38300 41000 52700 73400 76000 113000 152000
2020-06-22 23:30 12.82 65200 200000 (2011) 32000 (1958) 64700 35300 35900 37900 40800 54900 74100 84900 111000 155000
2020-06-22 22:30 12.84 65300 200000 (2011) 32000 (1958) 64700 35300 35900 37900 40800 54900 74100 84900 111000 155000
2020-06-22 21:30 12.84 65300 200000 (2011) 32000 (1958) 64700 35300 35900 37900 40800 54900 74100 84900 111000 155000
2020-06-22 20:30 12.87 65500 200000 (2011) 32000 (1958) 64700 35300 35900 37900 40800 54900 74100 84900 111000 155000
2020-06-22 19:30 12.87 65500 200000 (2011) 32000 (1958) 64700 35300 35900 37900 40800 54900 74100 84900 111000 155000
2020-06-22 18:30 12.87 65500 200000 (2011) 32000 (1958) 64700 35300 35900 37900 40800 54900 74100 84900 111000 155000
2020-06-22 17:30 12.90 65700 200000 (2011) 32000 (1958) 64700 35300 35900 37900 40800 54900 74100 84900 111000 155000
2020-06-22 16:30 12.92 65800 200000 (2011) 32000 (1958) 64700 35300 35900 37900 40800 54900 74100 84900 111000 155000
2020-06-22 15:30 12.95 66000 200000 (2011) 32000 (1958) 64700 35300 35900 37900 40800 54900 74100 84900 111000 155000
2020-06-22 14:30 12.94 65900 200000 (2011) 32000 (1958) 64700 35300 35900 37900 40800 54900 74100 84900 111000 155000
2020-06-22 13:30 12.96 66000 200000 (2011) 32000 (1958) 64700 35300 35900 37900 40800 54900 74100 84900 111000 155000
2020-06-22 12:30 12.96 66000 200000 (2011) 32000 (1958) 64700 35300 35900 37900 40800 54900 74100 84900 111000 155000
2020-06-22 11:30 12.99 66200 200000 (2011) 32000 (1958) 64700 35300 35900 37900 40800 54900 74100 84900 111000 155000
2020-06-22 10:30 12.99 66200 200000 (2011) 32000 (1958) 64700 35300 35900 37900 40800 54900 74100 84900 111000 155000
2020-06-22 09:30 13.00 66300 200000 (2011) 32000 (1958) 64700 35300 35900 37900 40800 54900 74100 84900 111000 155000
2020-06-22 08:30 13.00 66300 200000 (2011) 32000 (1958) 64700 35300 35900 37900 40800 54900 74100 84900 111000 155000
2020-06-22 07:30 13.02 66400 200000 (2011) 32000 (1958) 64700 35300 35900 37900 40800 54900 74100 84900 111000 155000
2020-06-22 06:30 13.01 66300 200000 (2011) 32000 (1958) 64700 35300 35900 37900 40800 54900 74100 84900 111000 155000
2020-06-22 05:30 13.04 66500 200000 (2011) 32000 (1958) 64700 35300 35900 37900 40800 54900 74100 84900 111000 155000
2020-06-22 04:30 13.07 66700 200000 (2011) 32000 (1958) 64700 35300 35900 37900 40800 54900 74100 84900 111000 155000
2020-06-22 03:30 13.09 66800 200000 (2011) 32000 (1958) 64700 35300 35900 37900 40800 54900 74100 84900 111000 155000
2020-06-22 02:30 13.13 67000 200000 (2011) 32000 (1958) 64700 35300 35900 37900 40800 54900 74100 84900 111000 155000
2020-06-22 01:30 13.15 67100 200000 (2011) 32000 (1958) 64700 35300 35900 37900 40800 54900 74100 84900 111000 155000
2020-06-22 00:30 13.19 67400 200000 (2011) 32000 (1958) 64700 35300 35900 37900 40800 54900 74100 84900 111000 155000
2020-06-21 23:30 13.23 67600 186000 (1984) 31300 (1958) 64100 34900 35900 38400 41300 55400 77500 81100 101000 144000
2020-06-21 22:30 13.28 67900 186000 (1984) 31300 (1958) 64100 34900 35900 38400 41300 55400 77500 81100 101000 144000
2020-06-21 21:30 13.29 68000 186000 (1984) 31300 (1958) 64100 34900 35900 38400 41300 55400 77500 81100 101000 144000
2020-06-21 20:30 13.35 68400 186000 (1984) 31300 (1958) 64100 34900 35900 38400 41300 55400 77500 81100 101000 144000
2020-06-21 19:30 13.37 68500 186000 (1984) 31300 (1958) 64100 34900 35900 38400 41300 55400 77500 81100 101000 144000
2020-06-21 18:30 13.43 68900 186000 (1984) 31300 (1958) 64100 34900 35900 38400 41300 55400 77500 81100 101000 144000
2020-06-21 17:30 13.46 69100 186000 (1984) 31300 (1958) 64100 34900 35900 38400 41300 55400 77500 81100 101000 144000
2020-06-21 16:30 13.51 69500 186000 (1984) 31300 (1958) 64100 34900 35900 38400 41300 55400 77500 81100 101000 144000
2020-06-21 15:30 13.54 69700 186000 (1984) 31300 (1958) 64100 34900 35900 38400 41300 55400 77500 81100 101000 144000
2020-06-21 14:30 13.56 69800 186000 (1984) 31300 (1958) 64100 34900 35900 38400 41300 55400 77500 81100 101000 144000
2020-06-21 13:30 13.60 70000 186000 (1984) 31300 (1958) 64100 34900 35900 38400 41300 55400 77500 81100 101000 144000
2020-06-21 12:30 13.62 70200 186000 (1984) 31300 (1958) 64100 34900 35900 38400 41300 55400 77500 81100 101000 144000
2020-06-21 11:30 13.62 70200 186000 (1984) 31300 (1958) 64100 34900 35900 38400 41300 55400 77500 81100 101000 144000
2020-06-21 10:30 13.64 70300 186000 (1984) 31300 (1958) 64100 34900 35900 38400 41300 55400 77500 81100 101000 144000
2020-06-21 09:30 13.63 70200 186000 (1984) 31300 (1958) 64100 34900 35900 38400 41300 55400 77500 81100 101000 144000
2020-06-21 08:30 13.63 70200 186000 (1984) 31300 (1958) 64100 34900 35900 38400 41300 55400 77500 81100 101000 144000
2020-06-21 07:30 13.63 70200 186000 (1984) 31300 (1958) 64100 34900 35900 38400 41300 55400 77500 81100 101000 144000
2020-06-21 06:30 13.66 70400 186000 (1984) 31300 (1958) 64100 34900 35900 38400 41300 55400 77500 81100 101000 144000
2020-06-21 05:30 13.65 70400 186000 (1984) 31300 (1958) 64100 34900 35900 38400 41300 55400 77500 81100 101000 144000
2020-06-21 04:30 13.64 70300 186000 (1984) 31300 (1958) 64100 34900 35900 38400 41300 55400 77500 81100 101000 144000
2020-06-21 03:30 13.65 70400 186000 (1984) 31300 (1958) 64100 34900 35900 38400 41300 55400 77500 81100 101000 144000
2020-06-21 02:30 13.63 70200 186000 (1984) 31300 (1958) 64100 34900 35900 38400 41300 55400 77500 81100 101000 144000
2020-06-21 01:30 13.64 70300 186000 (1984) 31300 (1958) 64100 34900 35900 38400 41300 55400 77500 81100 101000 144000
2020-06-21 00:30 13.61 70100 186000 (1984) 31300 (1958) 64100 34900 35900 38400 41300 55400 77500 81100 101000 144000
2020-06-20 23:30 13.61 70100 188000 (1984) 30800 (1963) 63600 34800 35300 38300 41300 57200 75500 79800 112000 133000
2020-06-20 22:30 13.63 70200 188000 (1984) 30800 (1963) 63600 34800 35300 38300 41300 57200 75500 79800 112000 133000
2020-06-20 21:30 13.62 70200 188000 (1984) 30800 (1963) 63600 34800 35300 38300 41300 57200 75500 79800 112000 133000
2020-06-20 20:30 13.61 70100 188000 (1984) 30800 (1963) 63600 34800 35300 38300 41300 57200 75500 79800 112000 133000
2020-06-20 19:30 13.62 70200 188000 (1984) 30800 (1963) 63600 34800 35300 38300 41300 57200 75500 79800 112000 133000
2020-06-20 18:30 13.62 70200 188000 (1984) 30800 (1963) 63600 34800 35300 38300 41300 57200 75500 79800 112000 133000
2020-06-20 17:30 13.62 70200 188000 (1984) 30800 (1963) 63600 34800 35300 38300 41300 57200 75500 79800 112000 133000
2020-06-20 16:30 13.61 70100 188000 (1984) 30800 (1963) 63600 34800 35300 38300 41300 57200 75500 79800 112000 133000
2020-06-20 15:30 13.62 70200 188000 (1984) 30800 (1963) 63600 34800 35300 38300 41300 57200 75500 79800 112000 133000
2020-06-20 14:30 13.62 70200 188000 (1984) 30800 (1963) 63600 34800 35300 38300 41300 57200 75500 79800 112000 133000
2020-06-20 13:30 13.61 70100 188000 (1984) 30800 (1963) 63600 34800 35300 38300 41300 57200 75500 79800 112000 133000
2020-06-20 12:30 13.58 69900 188000 (1984) 30800 (1963) 63600 34800 35300 38300 41300 57200 75500 79800 112000 133000
2020-06-20 11:30 13.57 69900 188000 (1984) 30800 (1963) 63600 34800 35300 38300 41300 57200 75500 79800 112000 133000
2020-06-20 10:30 13.56 69800 188000 (1984) 30800 (1963) 63600 34800 35300 38300 41300 57200 75500 79800 112000 133000
2020-06-20 09:30 13.55 69700 188000 (1984) 30800 (1963) 63600 34800 35300 38300 41300 57200 75500 79800 112000 133000
2020-06-20 08:30 13.52 69500 188000 (1984) 30800 (1963) 63600 34800 35300 38300 41300 57200 75500 79800 112000 133000
2020-06-20 07:30 13.50 69400 188000 (1984) 30800 (1963) 63600 34800 35300 38300 41300 57200 75500 79800 112000 133000
2020-06-20 06:30 13.46 69100 188000 (1984) 30800 (1963) 63600 34800 35300 38300 41300 57200 75500 79800 112000 133000
2020-06-20 05:30 13.43 68900 188000 (1984) 30800 (1963) 63600 34800 35300 38300 41300 57200 75500 79800 112000 133000
2020-06-20 04:30 13.39 68700 188000 (1984) 30800 (1963) 63600 34800 35300 38300 41300 57200 75500 79800 112000 133000
2020-06-20 03:30 13.33 68300 188000 (1984) 30800 (1963) 63600 34800 35300 38300 41300 57200 75500 79800 112000 133000
2020-06-20 02:30 13.26 67800 188000 (1984) 30800 (1963) 63600 34800 35300 38300 41300 57200 75500 79800 112000 133000
2020-06-20 01:30 13.20 67400 188000 (1984) 30800 (1963) 63600 34800 35300 38300 41300 57200 75500 79800 112000 133000
2020-06-20 00:30 13.17 67200 188000 (1984) 30800 (1963) 63600 34800 35300 38300 41300 57200 75500 79800 112000 133000
2020-06-19 23:30 13.14 67100 186000 (1984) 31300 (1958) 64500 33700 35400 38800 43100 57500 76800 79800 116000 135000
2020-06-19 22:30 13.12 66900 186000 (1984) 31300 (1958) 64500 33700 35400 38800 43100 57500 76800 79800 116000 135000
2020-06-19 21:30 13.11 66900 186000 (1984) 31300 (1958) 64500 33700 35400 38800 43100 57500 76800 79800 116000 135000
2020-06-19 20:30 13.08 66700 186000 (1984) 31300 (1958) 64500 33700 35400 38800 43100 57500 76800 79800 116000 135000
2020-06-19 19:30 13.07 66700 186000 (1984) 31300 (1958) 64500 33700 35400 38800 43100 57500 76800 79800 116000 135000
2020-06-19 18:30 13.07 66700 186000 (1984) 31300 (1958) 64500 33700 35400 38800 43100 57500 76800 79800 116000 135000
2020-06-19 17:30 13.07 66700 186000 (1984) 31300 (1958) 64500 33700 35400 38800 43100 57500 76800 79800 116000 135000
2020-06-19 16:30 13.08 66700 186000 (1984) 31300 (1958) 64500 33700 35400 38800 43100 57500 76800 79800 116000 135000
2020-06-19 15:30 13.07 66700 186000 (1984) 31300 (1958) 64500 33700 35400 38800 43100 57500 76800 79800 116000 135000
2020-06-19 14:30 13.08 66700 186000 (1984) 31300 (1958) 64500 33700 35400 38800 43100 57500 76800 79800 116000 135000
2020-06-19 13:30 13.08 66700 186000 (1984) 31300 (1958) 64500 33700 35400 38800 43100 57500 76800 79800 116000 135000
2020-06-19 12:30 13.06 66600 186000 (1984) 31300 (1958) 64500 33700 35400 38800 43100 57500 76800 79800 116000 135000
2020-06-19 11:30 13.05 66500 186000 (1984) 31300 (1958) 64500 33700 35400 38800 43100 57500 76800 79800 116000 135000
2020-06-19 10:30 13.06 66600 186000 (1984) 31300 (1958) 64500 33700 35400 38800 43100 57500 76800 79800 116000 135000
2020-06-19 09:30 13.07 66700 186000 (1984) 31300 (1958) 64500 33700 35400 38800 43100 57500 76800 79800 116000 135000
2020-06-19 08:30 13.06 66600 186000 (1984) 31300 (1958) 64500 33700 35400 38800 43100 57500 76800 79800 116000 135000
2020-06-19 07:30 13.02 66400 186000 (1984) 31300 (1958) 64500 33700 35400 38800 43100 57500 76800 79800 116000 135000
2020-06-19 06:30 13.02 66400 186000 (1984) 31300 (1958) 64500 33700 35400 38800 43100 57500 76800 79800 116000 135000
2020-06-19 05:30 13.02 66400 186000 (1984) 31300 (1958) 64500 33700 35400 38800 43100 57500 76800 79800 116000 135000
2020-06-19 04:30 12.99 66200 186000 (1984) 31300 (1958) 64500 33700 35400 38800 43100 57500 76800 79800 116000 135000
2020-06-19 03:30 12.99 66200 186000 (1984) 31300 (1958) 64500 33700 35400 38800 43100 57500 76800 79800 116000 135000
2020-06-19 02:30 12.98 66100 186000 (1984) 31300 (1958) 64500 33700 35400 38800 43100 57500 76800 79800 116000 135000
2020-06-19 01:30 13.00 66300 186000 (1984) 31300 (1958) 64500 33700 35400 38800 43100 57500 76800 79800 116000 135000
2020-06-19 00:30 12.98 66100 186000 (1984) 31300 (1958) 64500 33700 35400 38800 43100 57500 76800 79800 116000 135000
2020-06-18 23:30 12.98 66100 182000 (1984) 31300 (1958) 65300 33100 36000 38000 44900 55000 78100 81600 115000 145000
2020-06-18 22:30 12.96 66000 182000 (1984) 31300 (1958) 65300 33100 36000 38000 44900 55000 78100 81600 115000 145000
2020-06-18 21:30 12.99 66200 182000 (1984) 31300 (1958) 65300 33100 36000 38000 44900 55000 78100 81600 115000 145000
2020-06-18 20:30 12.99 66200 182000 (1984) 31300 (1958) 65300 33100 36000 38000 44900 55000 78100 81600 115000 145000
2020-06-18 19:30 12.98 66100 182000 (1984) 31300 (1958) 65300 33100 36000 38000 44900 55000 78100 81600 115000 145000
2020-06-18 18:30 13.02 66400 182000 (1984) 31300 (1958) 65300 33100 36000 38000 44900 55000 78100 81600 115000 145000
2020-06-18 17:30 13.03 66400 182000 (1984) 31300 (1958) 65300 33100 36000 38000 44900 55000 78100 81600 115000 145000
2020-06-18 16:30 13.07 66700 182000 (1984) 31300 (1958) 65300 33100 36000 38000 44900 55000 78100 81600 115000 145000
2020-06-18 15:30 13.09 66500 182000 (1984) 31300 (1958) 65300 33100 36000 38000 44900 55000 78100 81600 115000 145000
2020-06-18 14:30 13.10 66600 182000 (1984) 31300 (1958) 65300 33100 36000 38000 44900 55000 78100 81600 115000 145000
2020-06-18 13:30 13.13 66800 182000 (1984) 31300 (1958) 65300 33100 36000 38000 44900 55000 78100 81600 115000 145000
2020-06-18 12:30 13.12 66700 182000 (1984) 31300 (1958) 65300 33100 36000 38000 44900 55000 78100 81600 115000 145000
2020-06-18 11:30 13.12 66700 182000 (1984) 31300 (1958) 65300 33100 36000 38000 44900 55000 78100 81600 115000 145000
2020-06-18 10:30 13.14 66800 182000 (1984) 31300 (1958) 65300 33100 36000 38000 44900 55000 78100 81600 115000 145000
2020-06-18 09:30 13.13 66800 182000 (1984) 31300 (1958) 65300 33100 36000 38000 44900 55000 78100 81600 115000 145000
2020-06-18 08:30 13.13 66800 182000 (1984) 31300 (1958) 65300 33100 36000 38000 44900 55000 78100 81600 115000 145000
2020-06-18 07:30 13.15 66900 182000 (1984) 31300 (1958) 65300 33100 36000 38000 44900 55000 78100 81600 115000 145000
2020-06-18 06:30 13.14 66800 182000 (1984) 31300 (1958) 65300 33100 36000 38000 44900 55000 78100 81600 115000 145000
2020-06-18 05:30 13.14 66800 182000 (1984) 31300 (1958) 65300 33100 36000 38000 44900 55000 78100 81600 115000 145000
2020-06-18 04:30 13.14 66800 182000 (1984) 31300 (1958) 65300 33100 36000 38000 44900 55000 78100 81600 115000 145000
2020-06-18 03:30 13.15 66900 182000 (1984) 31300 (1958) 65300 33100 36000 38000 44900 55000 78100 81600 115000 145000
2020-06-18 02:30 13.17 67000 182000 (1984) 31300 (1958) 65300 33100 36000 38000 44900 55000 78100 81600 115000 145000
2020-06-18 01:30 13.17 67000 182000 (1984) 31300 (1958) 65300 33100 36000 38000 44900 55000 78100 81600 115000 145000
2020-06-18 00:30 13.17 67000 182000 (1984) 31300 (1958) 65300 33100 36000 38000 44900 55000 78100 81600 115000 145000
2020-06-17 23:30 13.19 67100 184000 (1984) 32000 (1956) 65600 33700 35400 38300 44600 52900 79500 87000 118000 140000
2020-06-17 22:30 13.22 67300 184000 (1984) 32000 (1956) 65600 33700 35400 38300 44600 52900 79500 87000 118000 140000
2020-06-17 21:30 13.25 67500 184000 (1984) 32000 (1956) 65600 33700 35400 38300 44600 52900 79500 87000 118000 140000
2020-06-17 20:30 13.26 67500 184000 (1984) 32000 (1956) 65600 33700 35400 38300 44600 52900 79500 87000 118000 140000
2020-06-17 19:30 13.27 67600 184000 (1984) 32000 (1956) 65600 33700 35400 38300 44600 52900 79500 87000 118000 140000
2020-06-17 18:30 13.28 67700 184000 (1984) 32000 (1956) 65600 33700 35400 38300 44600 52900 79500 87000 118000 140000
2020-06-17 17:30 13.30 67800 184000 (1984) 32000 (1956) 65600 33700 35400 38300 44600 52900 79500 87000 118000 140000
2020-06-17 16:30 13.32 67900 184000 (1984) 32000 (1956) 65600 33700 35400 38300 44600 52900 79500 87000 118000 140000
2020-06-17 15:30 13.31 67900 184000 (1984) 32000 (1956) 65600 33700 35400 38300 44600 52900 79500 87000 118000 140000
2020-06-17 14:30 13.33 68000 184000 (1984) 32000 (1956) 65600 33700 35400 38300 44600 52900 79500 87000 118000 140000
2020-06-17 13:30 13.35 68100 184000 (1984) 32000 (1956) 65600 33700 35400 38300 44600 52900 79500 87000 118000 140000
2020-06-17 12:30 13.34 68100 184000 (1984) 32000 (1956) 65600 33700 35400 38300 44600 52900 79500 87000 118000 140000
2020-06-17 11:30 13.33 68000 184000 (1984) 32000 (1956) 65600 33700 35400 38300 44600 52900 79500 87000 118000 140000
2020-06-17 10:30 13.33 68000 184000 (1984) 32000 (1956) 65600 33700 35400 38300 44600 52900 79500 87000 118000 140000
2020-06-17 09:30 13.34 68100 184000 (1984) 32000 (1956) 65600 33700 35400 38300 44600 52900 79500 87000 118000 140000
2020-06-17 08:30 13.33 68000 184000 (1984) 32000 (1956) 65600 33700 35400 38300 44600 52900 79500 87000 118000 140000
2020-06-17 07:30 13.33 68000 184000 (1984) 32000 (1956) 65600 33700 35400 38300 44600 52900 79500 87000 118000 140000
2020-06-17 06:30 13.33 68000 184000 (1984) 32000 (1956) 65600 33700 35400 38300 44600 52900 79500 87000 118000 140000
2020-06-17 05:30 13.30 67800 184000 (1984) 32000 (1956) 65600 33700 35400 38300 44600 52900 79500 87000 118000 140000
2020-06-17 04:30 13.31 67900 184000 (1984) 32000 (1956) 65600 33700 35400 38300 44600 52900 79500 87000 118000 140000
2020-06-17 03:30 13.28 67700 184000 (1984) 32000 (1956) 65600 33700 35400 38300 44600 52900 79500 87000 118000 140000
2020-06-17 02:30 13.26 67500 184000 (1984) 32000 (1956) 65600 33700 35400 38300 44600 52900 79500 87000 118000 140000
2020-06-17 01:30 13.27 67600 184000 (1984) 32000 (1956) 65600 33700 35400 38300 44600 52900 79500 87000 118000 140000
2020-06-17 00:30 13.27 67600 184000 (1984) 32000 (1956) 65600 33700 35400 38300 44600 52900 79500 87000 118000 140000
2020-06-16 23:30 13.26 67500 216000 (1984) 30700 (1956) 66200 34500 36300 39700 43900 53600 76200 85700 123000 139000
2020-06-16 22:30 13.29 67700 216000 (1984) 30700 (1956) 66200 34500 36300 39700 43900 53600 76200 85700 123000 139000
2020-06-16 21:30 13.31 67900 216000 (1984) 30700 (1956) 66200 34500 36300 39700 43900 53600 76200 85700 123000 139000
2020-06-16 20:30 13.31 67900 216000 (1984) 30700 (1956) 66200 34500 36300 39700 43900 53600 76200 85700 123000 139000
2020-06-16 19:30 13.32 67900 216000 (1984) 30700 (1956) 66200 34500 36300 39700 43900 53600 76200 85700 123000 139000
2020-06-16 18:30 13.35 68100 216000 (1984) 30700 (1956) 66200 34500 36300 39700 43900 53600 76200 85700 123000 139000
2020-06-16 17:30 13.36 68200 216000 (1984) 30700 (1956) 66200 34500 36300 39700 43900 53600 76200 85700 123000 139000
2020-06-16 16:30 13.38 68300 216000 (1984) 30700 (1956) 66200 34500 36300 39700 43900 53600 76200 85700 123000 139000
2020-06-16 15:30 13.39 68400 216000 (1984) 30700 (1956) 66200 34500 36300 39700 43900 53600 76200 85700 123000 139000
2020-06-16 14:30 13.41 68500 216000 (1984) 30700 (1956) 66200 34500 36300 39700 43900 53600 76200 85700 123000 139000
2020-06-16 13:30 13.43 68700 216000 (1984) 30700 (1956) 66200 34500 36300 39700 43900 53600 76200 85700 123000 139000
2020-06-16 12:30 13.45 68800 216000 (1984) 30700 (1956) 66200 34500 36300 39700 43900 53600 76200 85700 123000 139000
2020-06-16 11:30 13.44 68700 216000 (1984) 30700 (1956) 66200 34500 36300 39700 43900 53600 76200 85700 123000 139000
2020-06-16 10:30 13.45 68800 216000 (1984) 30700 (1956) 66200 34500 36300 39700 43900 53600 76200 85700 123000 139000
2020-06-16 09:30 13.43 68700 216000 (1984) 30700 (1956) 66200 34500 36300 39700 43900 53600 76200 85700 123000 139000
2020-06-16 08:30 13.42 68600 216000 (1984) 30700 (1956) 66200 34500 36300 39700 43900 53600 76200 85700 123000 139000
2020-06-16 07:30 13.41 68500 216000 (1984) 30700 (1956) 66200 34500 36300 39700 43900 53600 76200 85700 123000 139000
2020-06-16 06:30 13.42 68600 216000 (1984) 30700 (1956) 66200 34500 36300 39700 43900 53600 76200 85700 123000 139000
2020-06-16 05:30 13.41 68500 216000 (1984) 30700 (1956) 66200 34500 36300 39700 43900 53600 76200 85700 123000 139000
2020-06-16 04:30 13.42 68600 216000 (1984) 30700 (1956) 66200 34500 36300 39700 43900 53600 76200 85700 123000 139000
2020-06-16 03:30 13.41 68500 216000 (1984) 30700 (1956) 66200 34500 36300 39700 43900 53600 76200 85700 123000 139000
2020-06-16 02:30 13.42 68600 216000 (1984) 30700 (1956) 66200 34500 36300 39700 43900 53600 76200 85700 123000 139000
2020-06-16 01:30 13.40 68500 216000 (1984) 30700 (1956) 66200 34500 36300 39700 43900 53600 76200 85700 123000 139000
2020-06-16 00:30 13.37 68300 216000 (1984) 30700 (1956) 66200 34500 36300 39700 43900 53600 76200 85700 123000 139000
2020-06-15 23:30 13.39 68400 169000 (1984) 30100 (1956) 64200 34100 37100 39600 42100 54000 76700 80600 105000 140000
2020-06-15 22:30 13.39 68400 169000 (1984) 30100 (1956) 64200 34100 37100 39600 42100 54000 76700 80600 105000 140000
2020-06-15 21:30 13.38 68300 169000 (1984) 30100 (1956) 64200 34100 37100 39600 42100 54000 76700 80600 105000 140000
2020-06-15 20:30 13.39 68400 169000 (1984) 30100 (1956) 64200 34100 37100 39600 42100 54000 76700 80600 105000 140000
2020-06-15 19:30 13.40 68500 169000 (1984) 30100 (1956) 64200 34100 37100 39600 42100 54000 76700 80600 105000 140000
2020-06-15 18:30 13.41 68500 169000 (1984) 30100 (1956) 64200 34100 37100 39600 42100 54000 76700 80600 105000 140000
2020-06-15 17:30 13.41 68500 169000 (1984) 30100 (1956) 64200 34100 37100 39600 42100 54000 76700 80600 105000 140000
2020-06-15 16:30 13.41 68500 169000 (1984) 30100 (1956) 64200 34100 37100 39600 42100 54000 76700 80600 105000 140000
2020-06-15 15:30 13.41 68500 169000 (1984) 30100 (1956) 64200 34100 37100 39600 42100 54000 76700 80600 105000 140000
2020-06-15 14:30 13.40 68500 169000 (1984) 30100 (1956) 64200 34100 37100 39600 42100 54000 76700 80600 105000 140000
2020-06-15 13:30 13.38 68300 169000 (1984) 30100 (1956) 64200 34100 37100 39600 42100 54000 76700 80600 105000 140000
2020-06-15 12:30 13.39 68400 169000 (1984) 30100 (1956) 64200 34100 37100 39600 42100 54000 76700 80600 105000 140000
2020-06-15 11:30 13.39 68400 169000 (1984) 30100 (1956) 64200 34100 37100 39600 42100 54000 76700 80600 105000 140000
2020-06-15 10:30 13.38 68300 169000 (1984) 30100 (1956) 64200 34100 37100 39600 42100 54000 76700 80600 105000 140000
2020-06-15 09:30 13.37 68300 169000 (1984) 30100 (1956) 64200 34100 37100 39600 42100 54000 76700 80600 105000 140000
2020-06-15 08:30 13.35 68100 169000 (1984) 30100 (1956) 64200 34100 37100 39600 42100 54000 76700 80600 105000 140000
2020-06-15 07:30 13.35 68100 169000 (1984) 30100 (1956) 64200 34100 37100 39600 42100 54000 76700 80600 105000 140000
2020-06-15 06:30 13.31 67900 169000 (1984) 30100 (1956) 64200 34100 37100 39600 42100 54000 76700 80600 105000 140000
2020-06-15 05:30 13.32 67900 169000 (1984) 30100 (1956) 64200 34100 37100 39600 42100 54000 76700 80600 105000 140000
2020-06-15 04:30 13.32 67900 169000 (1984) 30100 (1956) 64200 34100 37100 39600 42100 54000 76700 80600 105000 140000
2020-06-15 03:30 13.31 67900 169000 (1984) 30100 (1956) 64200 34100 37100 39600 42100 54000 76700 80600 105000 140000
2020-06-15 02:30 13.33 68000 169000 (1984) 30100 (1956) 64200 34100 37100 39600 42100 54000 76700 80600 105000 140000
2020-06-15 01:30 13.33 68000 169000 (1984) 30100 (1956) 64200 34100 37100 39600 42100 54000 76700 80600 105000 140000
2020-06-15 00:30 13.34 68100 169000 (1984) 30100 (1956) 64200 34100 37100 39600 42100 54000 76700 80600 105000 140000
2020-06-14 23:30 13.37 68300 160000 (2008) 30100 (1956) 61300 33100 37400 39600 43200 52200 72200 80200 101000 138000
2020-06-14 22:30 13.38 68300 160000 (2008) 30100 (1956) 61300 33100 37400 39600 43200 52200 72200 80200 101000 138000
2020-06-14 21:30 13.40 68500 160000 (2008) 30100 (1956) 61300 33100 37400 39600 43200 52200 72200 80200 101000 138000
2020-06-14 20:30 13.41 68500 160000 (2008) 30100 (1956) 61300 33100 37400 39600 43200 52200 72200 80200 101000 138000
2020-06-14 19:30 13.44 68700 160000 (2008) 30100 (1956) 61300 33100 37400 39600 43200 52200 72200 80200 101000 138000
2020-06-14 18:30 13.48 69000 160000 (2008) 30100 (1956) 61300 33100 37400 39600 43200 52200 72200 80200 101000 138000
2020-06-14 17:30 13.50 69100 160000 (2008) 30100 (1956) 61300 33100 37400 39600 43200 52200 72200 80200 101000 138000
2020-06-14 16:30 13.54 69400 160000 (2008) 30100 (1956) 61300 33100 37400 39600 43200 52200 72200 80200 101000 138000
2020-06-14 15:30 13.58 69700 160000 (2008) 30100 (1956) 61300 33100 37400 39600 43200 52200 72200 80200 101000 138000
2020-06-14 14:30 13.62 69900 160000 (2008) 30100 (1956) 61300 33100 37400 39600 43200 52200 72200 80200 101000 138000
2020-06-14 13:30 13.63 70000 160000 (2008) 30100 (1956) 61300 33100 37400 39600 43200 52200 72200 80200 101000 138000
2020-06-14 12:30 13.64 70000 160000 (2008) 30100 (1956) 61300 33100 37400 39600 43200 52200 72200 80200 101000 138000
2020-06-14 11:30 13.67 70200 160000 (2008) 30100 (1956) 61300 33100 37400 39600 43200 52200 72200 80200 101000 138000
2020-06-14 10:30 13.68 70300 160000 (2008) 30100 (1956) 61300 33100 37400 39600 43200 52200 72200 80200 101000 138000
2020-06-14 09:30 13.66 70200 160000 (2008) 30100 (1956) 61300 33100 37400 39600 43200 52200 72200 80200 101000 138000
2020-06-14 08:30 13.70 70400 160000 (2008) 30100 (1956) 61300 33100 37400 39600 43200 52200 72200 80200 101000 138000
2020-06-14 07:30 13.67 70200 160000 (2008) 30100 (1956) 61300 33100 37400 39600 43200 52200 72200 80200 101000 138000
2020-06-14 06:30 13.67 70200 160000 (2008) 30100 (1956) 61300 33100 37400 39600 43200 52200 72200 80200 101000 138000
2020-06-14 05:30 13.65 70100 160000 (2008) 30100 (1956) 61300 33100 37400 39600 43200 52200 72200 80200 101000 138000
2020-06-14 04:30 13.63 70000 160000 (2008) 30100 (1956) 61300 33100 37400 39600 43200 52200 72200 80200 101000 138000
2020-06-14 03:30 13.61 69900 160000 (2008) 30100 (1956) 61300 33100 37400 39600 43200 52200 72200 80200 101000 138000
2020-06-14 02:30 13.59 69700 160000 (2008) 30100 (1956) 61300 33100 37400 39600 43200 52200 72200 80200 101000 138000
2020-06-14 01:30 13.55 69500 160000 (2008) 30100 (1956) 61300 33100 37400 39600 43200 52200 72200 80200 101000 138000
2020-06-14 00:30 13.53 69300 160000 (2008) 30100 (1956) 61300 33100 37400 39600 43200 52200 72200 80200 101000 138000
2020-06-13 23:30 13.49 69100 150000 (2008) 30700 (1956) 60700 32800 35700 40100 44200 52200 64500 79800 100000 135000
2020-06-13 22:30 13.46 68900 150000 (2008) 30700 (1956) 60700 32800 35700 40100 44200 52200 64500 79800 100000 135000
2020-06-13 21:30 13.44 68700 150000 (2008) 30700 (1956) 60700 32800 35700 40100 44200 52200 64500 79800 100000 135000
2020-06-13 20:30 13.42 68600 150000 (2008) 30700 (1956) 60700 32800 35700 40100 44200 52200 64500 79800 100000 135000
2020-06-13 19:30 13.39 68400 150000 (2008) 30700 (1956) 60700 32800 35700 40100 44200 52200 64500 79800 100000 135000
2020-06-13 18:30 13.35 68100 150000 (2008) 30700 (1956) 60700 32800 35700 40100 44200 52200 64500 79800 100000 135000
2020-06-13 17:30 13.33 68000 150000 (2008) 30700 (1956) 60700 32800 35700 40100 44200 52200 64500 79800 100000 135000
2020-06-13 16:30 13.33 68000 150000 (2008) 30700 (1956) 60700 32800 35700 40100 44200 52200 64500 79800 100000 135000
2020-06-13 15:30 13.32 67900 150000 (2008) 30700 (1956) 60700 32800 35700 40100 44200 52200 64500 79800 100000 135000
2020-06-13 14:30 13.33 68000 150000 (2008) 30700 (1956) 60700 32800 35700 40100 44200 52200 64500 79800 100000 135000
2020-06-13 13:30 13.33 68000 150000 (2008) 30700 (1956) 60700 32800 35700 40100 44200 52200 64500 79800 100000 135000
2020-06-13 12:30 13.32 67900 150000 (2008) 30700 (1956) 60700 32800 35700 40100 44200 52200 64500 79800 100000 135000
2020-06-13 11:30 13.32 67900 150000 (2008) 30700 (1956) 60700 32800 35700 40100 44200 52200 64500 79800 100000 135000
2020-06-13 10:30 13.31 67900 150000 (2008) 30700 (1956) 60700 32800 35700 40100 44200 52200 64500 79800 100000 135000
2020-06-13 09:30 13.33 68000 150000 (2008) 30700 (1956) 60700 32800 35700 40100 44200 52200 64500 79800 100000 135000
2020-06-13 08:30 13.32 67900 150000 (2008) 30700 (1956) 60700 32800 35700 40100 44200 52200 64500 79800 100000 135000
2020-06-13 07:30 13.32 67900 150000 (2008) 30700 (1956) 60700 32800 35700 40100 44200 52200 64500 79800 100000 135000
2020-06-13 06:30 13.31 67900 150000 (2008) 30700 (1956) 60700 32800 35700 40100 44200 52200 64500 79800 100000 135000
2020-06-13 05:30 13.31 67900 150000 (2008) 30700 (1956) 60700 32800 35700 40100 44200 52200 64500 79800 100000 135000
2020-06-13 04:30 13.31 67900 150000 (2008) 30700 (1956) 60700 32800 35700 40100 44200 52200 64500 79800 100000 135000
2020-06-13 03:30 13.32 67900 150000 (2008) 30700 (1956) 60700 32800 35700 40100 44200 52200 64500 79800 100000 135000
2020-06-13 02:30 13.32 67900 150000 (2008) 30700 (1956) 60700 32800 35700 40100 44200 52200 64500 79800 100000 135000
2020-06-13 01:30 13.35 68100 150000 (2008) 30700 (1956) 60700 32800 35700 40100 44200 52200 64500 79800 100000 135000
2020-06-13 00:30 13.37 68300 150000 (2008) 30700 (1956) 60700 32800 35700 40100 44200 52200 64500 79800 100000 135000
2020-06-12 23:30 13.38 68300 153000 (2019) 31000 (1956) 59700 33000 35600 39300 41100 50400 70500 78500 99000 133000
2020-06-12 22:30 13.41 68500 153000 (2019) 31000 (1956) 59700 33000 35600 39300 41100 50400 70500 78500 99000 133000
2020-06-12 21:30 13.44 68700 153000 (2019) 31000 (1956) 59700 33000 35600 39300 41100 50400 70500 78500 99000 133000
2020-06-12 20:30 13.47 68900 153000 (2019) 31000 (1956) 59700 33000 35600 39300 41100 50400 70500 78500 99000 133000
2020-06-12 19:30 13.52 69300 153000 (2019) 31000 (1956) 59700 33000 35600 39300 41100 50400 70500 78500 99000 133000
2020-06-12 18:30 13.56 69500 153000 (2019) 31000 (1956) 59700 33000 35600 39300 41100 50400 70500 78500 99000 133000
2020-06-12 17:30 13.60 69800 153000 (2019) 31000 (1956) 59700 33000 35600 39300 41100 50400 70500 78500 99000 133000
2020-06-12 16:30 13.62 69900 153000 (2019) 31000 (1956) 59700 33000 35600 39300 41100 50400 70500 78500 99000 133000
2020-06-12 15:30 13.68 70300 153000 (2019) 31000 (1956) 59700 33000 35600 39300 41100 50400 70500 78500 99000 133000
2020-06-12 14:30 13.71 70500 153000 (2019) 31000 (1956) 59700 33000 35600 39300 41100 50400 70500 78500 99000 133000
2020-06-12 13:30 13.76 70800 153000 (2019) 31000 (1956) 59700 33000 35600 39300 41100 50400 70500 78500 99000 133000
2020-06-12 12:30 13.80 71100 153000 (2019) 31000 (1956) 59700 33000 35600 39300 41100 50400 70500 78500 99000 133000
2020-06-12 11:30 13.81 71200 153000 (2019) 31000 (1956) 59700 33000 35600 39300 41100 50400 70500 78500 99000 133000
2020-06-12 10:30 13.82 71200 153000 (2019) 31000 (1956) 59700 33000 35600 39300 41100 50400 70500 78500 99000 133000
2020-06-12 09:30 13.86 71500 153000 (2019) 31000 (1956) 59700 33000 35600 39300 41100 50400 70500 78500 99000 133000
2020-06-12 08:30 13.90 71800 153000 (2019) 31000 (1956) 59700 33000 35600 39300 41100 50400 70500 78500 99000 133000
2020-06-12 07:30 13.92 71900 153000 (2019) 31000 (1956) 59700 33000 35600 39300 41100 50400 70500 78500 99000 133000
2020-06-12 06:30 13.93 72000 153000 (2019) 31000 (1956) 59700 33000 35600 39300 41100 50400 70500 78500 99000 133000
2020-06-12 05:30 13.94 72000 153000 (2019) 31000 (1956) 59700 33000 35600 39300 41100 50400 70500 78500 99000 133000
2020-06-12 04:30 13.95 72100 153000 (2019) 31000 (1956) 59700 33000 35600 39300 41100 50400 70500 78500 99000 133000
2020-06-12 03:30 13.96 72200 153000 (2019) 31000 (1956) 59700 33000 35600 39300 41100 50400 70500 78500 99000 133000
2020-06-12 02:30 13.98 72300 153000 (2019) 31000 (1956) 59700 33000 35600 39300 41100 50400 70500 78500 99000 133000
2020-06-12 01:30 13.97 72200 153000 (2019) 31000 (1956) 59700 33000 35600 39300 41100 50400 70500 78500 99000 133000
2020-06-12 00:30 13.99 72400 153000 (2019) 31000 (1956) 59700 33000 35600 39300 41100 50400 70500 78500 99000 133000
2020-06-11 23:30 14.02 72600 158000 (2019) 31300 (1956) 58600 32700 35000 37600 40200 50200 66900 75900 92700 124000
2020-06-11 22:30 14.02 72600 158000 (2019) 31300 (1956) 58600 32700 35000 37600 40200 50200 66900 75900 92700 124000
2020-06-11 21:30 14.04 72700 158000 (2019) 31300 (1956) 58600 32700 35000 37600 40200 50200 66900 75900 92700 124000
2020-06-11 20:30 14.05 72800 158000 (2019) 31300 (1956) 58600 32700 35000 37600 40200 50200 66900 75900 92700 124000
2020-06-11 19:30 14.06 72900 158000 (2019) 31300 (1956) 58600 32700 35000 37600 40200 50200 66900 75900 92700 124000
2020-06-11 18:30 14.03 72700 158000 (2019) 31300 (1956) 58600 32700 35000 37600 40200 50200 66900 75900 92700 124000
2020-06-11 17:30 14.07 72900 158000 (2019) 31300 (1956) 58600 32700 35000 37600 40200 50200 66900 75900 92700 124000
2020-06-11 16:30 14.10 70500 158000 (2019) 31300 (1956) 58600 32700 35000 37600 40200 50200 66900 75900 92700 124000
2020-06-11 15:30 14.13 70700 158000 (2019) 31300 (1956) 58600 32700 35000 37600 40200 50200 66900 75900 92700 124000
2020-06-11 14:30 14.11 70600 158000 (2019) 31300 (1956) 58600 32700 35000 37600 40200 50200 66900 75900 92700 124000
2020-06-11 13:30 14.12 70600 158000 (2019) 31300 (1956) 58600 32700 35000 37600 40200 50200 66900 75900 92700 124000
2020-06-11 12:30 14.14 70800 158000 (2019) 31300 (1956) 58600 32700 35000 37600 40200 50200 66900 75900 92700 124000
2020-06-11 11:30 14.14 70800 158000 (2019) 31300 (1956) 58600 32700 35000 37600 40200 50200 66900 75900 92700 124000
2020-06-11 10:30 14.16 70900 158000 (2019) 31300 (1956) 58600 32700 35000 37600 40200 50200 66900 75900 92700 124000
2020-06-11 09:30 14.19 71100 158000 (2019) 31300 (1956) 58600 32700 35000 37600 40200 50200 66900 75900 92700 124000
2020-06-11 08:30 14.19 71100 158000 (2019) 31300 (1956) 58600 32700 35000 37600 40200 50200 66900 75900 92700 124000
2020-06-11 07:30 14.21 71200 158000 (2019) 31300 (1956) 58600 32700 35000 37600 40200 50200 66900 75900 92700 124000
2020-06-11 06:30 14.21 71200 158000 (2019) 31300 (1956) 58600 32700 35000 37600 40200 50200 66900 75900 92700 124000
2020-06-11 05:30 14.25 71500 158000 (2019) 31300 (1956) 58600 32700 35000 37600 40200 50200 66900 75900 92700 124000
2020-06-11 04:30 14.24 71400 158000 (2019) 31300 (1956) 58600 32700 35000 37600 40200 50200 66900 75900 92700 124000
2020-06-11 03:30 14.25 71500 158000 (2019) 31300 (1956) 58600 32700 35000 37600 40200 50200 66900 75900 92700 124000
2020-06-11 02:30 14.24 71400 158000 (2019) 31300 (1956) 58600 32700 35000 37600 40200 50200 66900 75900 92700 124000
2020-06-11 01:30 14.25 71500 158000 (2019) 31300 (1956) 58600 32700 35000 37600 40200 50200 66900 75900 92700 124000
2020-06-11 00:30 14.24 71400 158000 (2019) 31300 (1956) 58600 32700 35000 37600 40200 50200 66900 75900 92700 124000
2020-06-10 23:30 14.21 71200 168000 (2019) 32100 (2006) 59900 32700 35600 37600 40000 52300 65200 76800 101000 131000
2020-06-10 22:30 14.19 71100 168000 (2019) 32100 (2006) 59900 32700 35600 37600 40000 52300 65200 76800 101000 131000
2020-06-10 21:30 14.14 70800 168000 (2019) 32100 (2006) 59900 32700 35600 37600 40000 52300 65200 76800 101000 131000
2020-06-10 20:30 14.09 70400 168000 (2019) 32100 (2006) 59900 32700 35600 37600 40000 52300 65200 76800 101000 131000
2020-06-10 19:30 14.03 70000 168000 (2019) 32100 (2006) 59900 32700 35600 37600 40000 52300 65200 76800 101000 131000
2020-06-10 18:30 13.95 69500 168000 (2019) 32100 (2006) 59900 32700 35600 37600 40000 52300 65200 76800 101000 131000
2020-06-10 17:30 13.89 69100 168000 (2019) 32100 (2006) 59900 32700 35600 37600 40000 52300 65200 76800 101000 131000
2020-06-10 16:30 13.81 68600 168000 (2019) 32100 (2006) 59900 32700 35600 37600 40000 52300 65200 76800 101000 131000
2020-06-10 15:30 13.72 68000 168000 (2019) 32100 (2006) 59900 32700 35600 37600 40000 52300 65200 76800 101000 131000
2020-06-10 14:30 13.62 67400 168000 (2019) 32100 (2006) 59900 32700 35600 37600 40000 52300 65200 76800 101000 131000
2020-06-10 13:30 13.54 66900 168000 (2019) 32100 (2006) 59900 32700 35600 37600 40000 52300 65200 76800 101000 131000
2020-06-10 12:30 13.43 66300 168000 (2019) 32100 (2006) 59900 32700 35600 37600 40000 52300 65200 76800 101000 131000
2020-06-10 11:30 13.35 65800 168000 (2019) 32100 (2006) 59900 32700 35600 37600 40000 52300 65200 76800 101000 131000
2020-06-10 10:30 13.28 65400 168000 (2019) 32100 (2006) 59900 32700 35600 37600 40000 52300 65200 76800 101000 131000
2020-06-10 09:30 13.20 64900 168000 (2019) 32100 (2006) 59900 32700 35600 37600 40000 52300 65200 76800 101000 131000
2020-06-10 08:30 13.14 64600 168000 (2019) 32100 (2006) 59900 32700 35600 37600 40000 52300 65200 76800 101000 131000
2020-06-10 07:30 13.08 64300 168000 (2019) 32100 (2006) 59900 32700 35600 37600 40000 52300 65200 76800 101000 131000
2020-06-10 06:30 13.03 64000 168000 (2019) 32100 (2006) 59900 32700 35600 37600 40000 52300 65200 76800 101000 131000
2020-06-10 05:30 12.96 63600 168000 (2019) 32100 (2006) 59900 32700 35600 37600 40000 52300 65200 76800 101000 131000
2020-06-10 04:30 12.90 63200 168000 (2019) 32100 (2006) 59900 32700 35600 37600 40000 52300 65200 76800 101000 131000
2020-06-10 03:30 12.89 63200 168000 (2019) 32100 (2006) 59900 32700 35600 37600 40000 52300 65200 76800 101000 131000
2020-06-10 02:30 12.91 63300 168000 (2019) 32100 (2006) 59900 32700 35600 37600 40000 52300 65200 76800 101000 131000
2020-06-10 01:30 12.90 63200 168000 (2019) 32100 (2006) 59900 32700 35600 37600 40000 52300 65200 76800 101000 131000
2020-06-10 00:30 12.89 63200 168000 (2019) 32100 (2006) 59900 32700 35600 37600 40000 52300 65200 76800 101000 131000
2020-06-09 23:30 12.89 63200 178000 (2019) 31300 (2006) 58800 33200 35800 38200 40300 53800 67500 70700 94900 119000
2020-06-09 22:30 12.90 63200 178000 (2019) 31300 (2006) 58800 33200 35800 38200 40300 53800 67500 70700 94900 119000
2020-06-09 21:30 12.90 63200 178000 (2019) 31300 (2006) 58800 33200 35800 38200 40300 53800 67500 70700 94900 119000
2020-06-09 20:30 12.92 63400 178000 (2019) 31300 (2006) 58800 33200 35800 38200 40300 53800 67500 70700 94900 119000
2020-06-09 19:30 12.93 63400 178000 (2019) 31300 (2006) 58800 33200 35800 38200 40300 53800 67500 70700 94900 119000
2020-06-09 18:30 12.94 63500 178000 (2019) 31300 (2006) 58800 33200 35800 38200 40300 53800 67500 70700 94900 119000
2020-06-09 17:30 12.95 63500 178000 (2019) 31300 (2006) 58800 33200 35800 38200 40300 53800 67500 70700 94900 119000
2020-06-09 16:30 12.96 63600 178000 (2019) 31300 (2006) 58800 33200 35800 38200 40300 53800 67500 70700 94900 119000
2020-06-09 15:30 12.97 63600 178000 (2019) 31300 (2006) 58800 33200 35800 38200 40300 53800 67500 70700 94900 119000
2020-06-09 14:30 12.96 63600 178000 (2019) 31300 (2006) 58800 33200 35800 38200 40300 53800 67500 70700 94900 119000
2020-06-09 13:30 12.99 63800 178000 (2019) 31300 (2006) 58800 33200 35800 38200 40300 53800 67500 70700 94900 119000
2020-06-09 12:30 12.99 63800 178000 (2019) 31300 (2006) 58800 33200 35800 38200 40300 53800 67500 70700 94900 119000
2020-06-09 11:30 13.00 63800 178000 (2019) 31300 (2006) 58800 33200 35800 38200 40300 53800 67500 70700 94900 119000
2020-06-09 10:30 13.02 63900 178000 (2019) 31300 (2006) 58800 33200 35800 38200 40300 53800 67500 70700 94900 119000
2020-06-09 09:30 13.02 63900 178000 (2019) 31300 (2006) 58800 33200 35800 38200 40300 53800 67500 70700 94900 119000
2020-06-09 08:30 13.07 64200 178000 (2019) 31300 (2006) 58800 33200 35800 38200 40300 53800 67500 70700 94900 119000
2020-06-09 07:30 13.06 64200 178000 (2019) 31300 (2006) 58800 33200 35800 38200 40300 53800 67500 70700 94900 119000
2020-06-09 06:30 13.06 64200 178000 (2019) 31300 (2006) 58800 33200 35800 38200 40300 53800 67500 70700 94900 119000
2020-06-09 05:30 13.07 64200 178000 (2019) 31300 (2006) 58800 33200 35800 38200 40300 53800 67500 70700 94900 119000
2020-06-09 04:30 13.10 64400 178000 (2019) 31300 (2006) 58800 33200 35800 38200 40300 53800 67500 70700 94900 119000
2020-06-09 03:30 13.12 64500 178000 (2019) 31300 (2006) 58800 33200 35800 38200 40300 53800 67500 70700 94900 119000
2020-06-09 02:30 13.15 64700 178000 (2019) 31300 (2006) 58800 33200 35800 38200 40300 53800 67500 70700 94900 119000
2020-06-09 01:30 13.16 64700 178000 (2019) 31300 (2006) 58800 33200 35800 38200 40300 53800 67500 70700 94900 119000
2020-06-09 00:30 13.18 64800 178000 (2019) 31300 (2006) 58800 33200 35800 38200 40300 53800 67500 70700 94900 119000
2020-06-08 23:30 13.17 64800 185000 (2019) 32300 (2006) 57500 33300 35200 37900 40700 51200 67000 69300 83300 121000
2020-06-08 22:30 13.21 65000 185000 (2019) 32300 (2006) 57500 33300 35200 37900 40700 51200 67000 69300 83300 121000
2020-06-08 21:30 13.22 65100 185000 (2019) 32300 (2006) 57500 33300 35200 37900 40700 51200 67000 69300 83300 121000
2020-06-08 20:30 13.25 65200 185000 (2019) 32300 (2006) 57500 33300 35200 37900 40700 51200 67000 69300 83300 121000
2020-06-08 19:30 13.25 65200 185000 (2019) 32300 (2006) 57500 33300 35200 37900 40700 51200 67000 69300 83300 121000
2020-06-08 18:30 13.26 65300 185000 (2019) 32300 (2006) 57500 33300 35200 37900 40700 51200 67000 69300 83300 121000
2020-06-08 17:30 13.27 65300 185000 (2019) 32300 (2006) 57500 33300 35200 37900 40700 51200 67000 69300 83300 121000
2020-06-08 16:30 13.27 65300 185000 (2019) 32300 (2006) 57500 33300 35200 37900 40700 51200 67000 69300 83300 121000
2020-06-08 15:30 13.29 65500 185000 (2019) 32300 (2006) 57500 33300 35200 37900 40700 51200 67000 69300 83300 121000
2020-06-08 14:30 13.31 65600 185000 (2019) 32300 (2006) 57500 33300 35200 37900 40700 51200 67000 69300 83300 121000
2020-06-08 13:30 13.33 65700 185000 (2019) 32300 (2006) 57500 33300 35200 37900 40700 51200 67000 69300 83300 121000
2020-06-08 12:30 13.33 65700 185000 (2019) 32300 (2006) 57500 33300 35200 37900 40700 51200 67000 69300 83300 121000
2020-06-08 11:30 13.33 65700 185000 (2019) 32300 (2006) 57500 33300 35200 37900 40700 51200 67000 69300 83300 121000
2020-06-08 10:30 13.35 65800 185000 (2019) 32300 (2006) 57500 33300 35200 37900 40700 51200 67000 69300 83300 121000
2020-06-08 09:30 13.36 65900 185000 (2019) 32300 (2006) 57500 33300 35200 37900 40700 51200 67000 69300 83300 121000
2020-06-08 08:30 13.38 66000 185000 (2019) 32300 (2006) 57500 33300 35200 37900 40700 51200 67000 69300 83300 121000
2020-06-08 07:30 13.40 66100 185000 (2019) 32300 (2006) 57500 33300 35200 37900 40700 51200 67000 69300 83300 121000
2020-06-08 06:30 13.39 66000 185000 (2019) 32300 (2006) 57500 33300 35200 37900 40700 51200 67000 69300 83300 121000
2020-06-08 05:30 13.41 66100 185000 (2019) 32300 (2006) 57500 33300 35200 37900 40700 51200 67000 69300 83300 121000
2020-06-08 04:30 13.43 66300 185000 (2019) 32300 (2006) 57500 33300 35200 37900 40700 51200 67000 69300 83300 121000
2020-06-08 03:30 13.43 66300 185000 (2019) 32300 (2006) 57500 33300 35200 37900 40700 51200 67000 69300 83300 121000
2020-06-08 02:30 13.42 66200 185000 (2019) 32300 (2006) 57500 33300 35200 37900 40700 51200 67000 69300 83300 121000
2020-06-08 01:30 13.44 66300 185000 (2019) 32300 (2006) 57500 33300 35200 37900 40700 51200 67000 69300 83300 121000
2020-06-08 00:30 13.45 66400 185000 (2019) 32300 (2006) 57500 33300 35200 37900 40700 51200 67000 69300 83300 121000
2020-06-07 23:30 13.49 66600 193000 (2019) 32500 (2006) 57900 33900 35300 37500 39200 52600 66800 69700 83800 124000
2020-06-07 22:30 13.53 66800 193000 (2019) 32500 (2006) 57900 33900 35300 37500 39200 52600 66800 69700 83800 124000
2020-06-07 21:30 13.54 66900 193000 (2019) 32500 (2006) 57900 33900 35300 37500 39200 52600 66800 69700 83800 124000
2020-06-07 20:30 13.55 66900 193000 (2019) 32500 (2006) 57900 33900 35300 37500 39200 52600 66800 69700 83800 124000
2020-06-07 19:30 13.57 67100 193000 (2019) 32500 (2006) 57900 33900 35300 37500 39200 52600 66800 69700 83800 124000
2020-06-07 18:30 13.57 67100 193000 (2019) 32500 (2006) 57900 33900 35300 37500 39200 52600 66800 69700 83800 124000
2020-06-07 17:30 13.61 67300 193000 (2019) 32500 (2006) 57900 33900 35300 37500 39200 52600 66800 69700 83800 124000
2020-06-07 16:30 13.63 67400 193000 (2019) 32500 (2006) 57900 33900 35300 37500 39200 52600 66800 69700 83800 124000
2020-06-07 15:30 13.64 67500 193000 (2019) 32500 (2006) 57900 33900 35300 37500 39200 52600 66800 69700 83800 124000
2020-06-07 14:30 13.65 67500 193000 (2019) 32500 (2006) 57900 33900 35300 37500 39200 52600 66800 69700 83800 124000
2020-06-07 13:30 13.67 67700 193000 (2019) 32500 (2006) 57900 33900 35300 37500 39200 52600 66800 69700 83800 124000
2020-06-07 12:30 13.66 67600 193000 (2019) 32500 (2006) 57900 33900 35300 37500 39200 52600 66800 69700 83800 124000
2020-06-07 11:30 13.69 67800 193000 (2019) 32500 (2006) 57900 33900 35300 37500 39200 52600 66800 69700 83800 124000
2020-06-07 10:30 13.73 68100 193000 (2019) 32500 (2006) 57900 33900 35300 37500 39200 52600 66800 69700 83800 124000
2020-06-07 09:30 13.73 68100 193000 (2019) 32500 (2006) 57900 33900 35300 37500 39200 52600 66800 69700 83800 124000
2020-06-07 08:30 13.76 68300 193000 (2019) 32500 (2006) 57900 33900 35300 37500 39200 52600 66800 69700 83800 124000
2020-06-07 07:30 13.78 68400 193000 (2019) 32500 (2006) 57900 33900 35300 37500 39200 52600 66800 69700 83800 124000
2020-06-07 06:30 13.80 68500 193000 (2019) 32500 (2006) 57900 33900 35300 37500 39200 52600 66800 69700 83800 124000
2020-06-07 05:30 13.81 68600 193000 (2019) 32500 (2006) 57900 33900 35300 37500 39200 52600 66800 69700 83800 124000
2020-06-07 04:30 13.82 68700 193000 (2019) 32500 (2006) 57900 33900 35300 37500 39200 52600 66800 69700 83800 124000
2020-06-07 03:30 13.84 68800 193000 (2019) 32500 (2006) 57900 33900 35300 37500 39200 52600 66800 69700 83800 124000
2020-06-07 02:30 13.87 69000 193000 (2019) 32500 (2006) 57900 33900 35300 37500 39200 52600 66800 69700 83800 124000
2020-06-07 01:30 13.89 69100 193000 (2019) 32500 (2006) 57900 33900 35300 37500 39200 52600 66800 69700 83800 124000
2020-06-07 00:30 13.91 69300 193000 (2019) 32500 (2006) 57900 33900 35300 37500 39200 52600 66800 69700 83800 124000
2020-06-06 23:30 13.92 69300 194000 (2019) 31300 (1957) 58200 33100 34900 37900 39400 52100 70100 72800 83700 125000
2020-06-06 22:30 13.94 69500 194000 (2019) 31300 (1957) 58200 33100 34900 37900 39400 52100 70100 72800 83700 125000
2020-06-06 21:30 13.95 69500 194000 (2019) 31300 (1957) 58200 33100 34900 37900 39400 52100 70100 72800 83700 125000
2020-06-06 20:30 13.98 69700 194000 (2019) 31300 (1957) 58200 33100 34900 37900 39400 52100 70100 72800 83700 125000
2020-06-06 19:30 14.02 70000 194000 (2019) 31300 (1957) 58200 33100 34900 37900 39400 52100 70100 72800 83700 125000
2020-06-06 18:30 14.01 69900 194000 (2019) 31300 (1957) 58200 33100 34900 37900 39400 52100 70100 72800 83700 125000
2020-06-06 17:30 14.05 70200 194000 (2019) 31300 (1957) 58200 33100 34900 37900 39400 52100 70100 72800 83700 125000
2020-06-06 16:30 14.07 70300 194000 (2019) 31300 (1957) 58200 33100 34900 37900 39400 52100 70100 72800 83700 125000
2020-06-06 15:30 14.07 70300 194000 (2019) 31300 (1957) 58200 33100 34900 37900 39400 52100 70100 72800 83700 125000
2020-06-06 14:30 14.08 70400 194000 (2019) 31300 (1957) 58200 33100 34900 37900 39400 52100 70100 72800 83700 125000
2020-06-06 13:30 14.11 70600 194000 (2019) 31300 (1957) 58200 33100 34900 37900 39400 52100 70100 72800 83700 125000
2020-06-06 12:30 14.12 70600 194000 (2019) 31300 (1957) 58200 33100 34900 37900 39400 52100 70100 72800 83700 125000
2020-06-06 11:30 14.15 70800 194000 (2019) 31300 (1957) 58200 33100 34900 37900 39400 52100 70100 72800 83700 125000
2020-06-06 10:30 14.17 71000 194000 (2019) 31300 (1957) 58200 33100 34900 37900 39400 52100 70100 72800 83700 125000
2020-06-06 09:30 14.20 71200 194000 (2019) 31300 (1957) 58200 33100 34900 37900 39400 52100 70100 72800 83700 125000
2020-06-06 08:30 14.19 71100 194000 (2019) 31300 (1957) 58200 33100 34900 37900 39400 52100 70100 72800 83700 125000
2020-06-06 07:30 14.23 71400 194000 (2019) 31300 (1957) 58200 33100 34900 37900 39400 52100 70100 72800 83700 125000
2020-06-06 06:30 14.24 71400 194000 (2019) 31300 (1957) 58200 33100 34900 37900 39400 52100 70100 72800 83700 125000
2020-06-06 05:30 14.28 71700 194000 (2019) 31300 (1957) 58200 33100 34900 37900 39400 52100 70100 72800 83700 125000
2020-06-06 04:30 14.33 72000 194000 (2019) 31300 (1957) 58200 33100 34900 37900 39400 52100 70100 72800 83700 125000
2020-06-06 03:30 14.32 72000 194000 (2019) 31300 (1957) 58200 33100 34900 37900 39400 52100 70100 72800 83700 125000
2020-06-06 02:30 14.35 72200 194000 (2019) 31300 (1957) 58200 33100 34900 37900 39400 52100 70100 72800 83700 125000
2020-06-06 01:30 14.38 72400 194000 (2019) 31300 (1957) 58200 33100 34900 37900 39400 52100 70100 72800 83700 125000
2020-06-06 00:30 14.41 72600 194000 (2019) 31300 (1957) 58200 33100 34900 37900 39400 52100 70100 72800 83700 125000
2020-06-05 23:30 14.45 72900 187000 (2019) 30400 (1957) 57000 33300 35300 37400 39100 51700 66600 69600 84700 110000
2020-06-05 22:30 14.49 73100 187000 (2019) 30400 (1957) 57000 33300 35300 37400 39100 51700 66600 69600 84700 110000
2020-06-05 21:30 14.49 73100 187000 (2019) 30400 (1957) 57000 33300 35300 37400 39100 51700 66600 69600 84700 110000
2020-06-05 20:30 14.54 73500 187000 (2019) 30400 (1957) 57000 33300 35300 37400 39100 51700 66600 69600 84700 110000
2020-06-05 19:30 14.54 73500 187000 (2019) 30400 (1957) 57000 33300 35300 37400 39100 51700 66600 69600 84700 110000
2020-06-05 18:30 14.57 73700 187000 (2019) 30400 (1957) 57000 33300 35300 37400 39100 51700 66600 69600 84700 110000
2020-06-05 17:30 14.59 73800 187000 (2019) 30400 (1957) 57000 33300 35300 37400 39100 51700 66600 69600 84700 110000
2020-06-05 16:30 14.63 74100 187000 (2019) 30400 (1957) 57000 33300 35300 37400 39100 51700 66600 69600 84700 110000
2020-06-05 15:30 14.64 74100 187000 (2019) 30400 (1957) 57000 33300 35300 37400 39100 51700 66600 69600 84700 110000
2020-06-05 14:30 14.65 74200 187000 (2019) 30400 (1957) 57000 33300 35300 37400 39100 51700 66600 69600 84700 110000
2020-06-05 13:30 14.65 74200 187000 (2019) 30400 (1957) 57000 33300 35300 37400 39100 51700 66600 69600 84700 110000
2020-06-05 12:30 14.68 74400 187000 (2019) 30400 (1957) 57000 33300 35300 37400 39100 51700 66600 69600 84700 110000
2020-06-05 11:30 14.68 73300 187000 (2019) 30400 (1957) 57000 33300 35300 37400 39100 51700 66600 69600 84700 110000
2020-06-05 10:30 14.70 73400 187000 (2019) 30400 (1957) 57000 33300 35300 37400 39100 51700 66600 69600 84700 110000
2020-06-05 09:30 14.71 73500 187000 (2019) 30400 (1957) 57000 33300 35300 37400 39100 51700 66600 69600 84700 110000
2020-06-05 08:30 14.72 73500 187000 (2019) 30400 (1957) 57000 33300 35300 37400 39100 51700 66600 69600 84700 110000
2020-06-05 07:30 14.72 73500 187000 (2019) 30400 (1957) 57000 33300 35300 37400 39100 51700 66600 69600 84700 110000
2020-06-05 06:30 14.77 73900 187000 (2019) 30400 (1957) 57000 33300 35300 37400 39100 51700 66600 69600 84700 110000
2020-06-05 05:30 14.78 73900 187000 (2019) 30400 (1957) 57000 33300 35300 37400 39100 51700 66600 69600 84700 110000
2020-06-05 04:30 14.77 73900 187000 (2019) 30400 (1957) 57000 33300 35300 37400 39100 51700 66600 69600 84700 110000
2020-06-05 03:30 14.82 74200 187000 (2019) 30400 (1957) 57000 33300 35300 37400 39100 51700 66600 69600 84700 110000
2020-06-05 02:30 14.86 74500 187000 (2019) 30400 (1957) 57000 33300 35300 37400 39100 51700 66600 69600 84700 110000
2020-06-05 01:30 14.85 74400 187000 (2019) 30400 (1957) 57000 33300 35300 37400 39100 51700 66600 69600 84700 110000
2020-06-05 00:30 14.89 74700 187000 (2019) 30400 (1957) 57000 33300 35300 37400 39100 51700 66600 69600 84700 110000
2020-06-04 23:30 14.93 74900 179000 (2019) 33000 (2006) 57000 34100 35700 37600 38700 52600 64500 67800 85200 107000
2020-06-04 22:30 14.96 75100 179000 (2019) 33000 (2006) 57000 34100 35700 37600 38700 52600 64500 67800 85200 107000
2020-06-04 21:30 14.99 75300 179000 (2019) 33000 (2006) 57000 34100 35700 37600 38700 52600 64500 67800 85200 107000
2020-06-04 20:30 15.02 75600 179000 (2019) 33000 (2006) 57000 34100 35700 37600 38700 52600 64500 67800 85200 107000
2020-06-04 19:30 15.03 75600 179000 (2019) 33000 (2006) 57000 34100 35700 37600 38700 52600 64500 67800 85200 107000
2020-06-04 18:30 15.07 75900 179000 (2019) 33000 (2006) 57000 34100 35700 37600 38700 52600 64500 67800 85200 107000
2020-06-04 17:30 15.12 76200 179000 (2019) 33000 (2006) 57000 34100 35700 37600 38700 52600 64500 67800 85200 107000
2020-06-04 16:30 15.12 76200 179000 (2019) 33000 (2006) 57000 34100 35700 37600 38700 52600 64500 67800 85200 107000
2020-06-04 15:30 15.15 76400 179000 (2019) 33000 (2006) 57000 34100 35700 37600 38700 52600 64500 67800 85200 107000
2020-06-04 14:30 15.15 76400 179000 (2019) 33000 (2006) 57000 34100 35700 37600 38700 52600 64500 67800 85200 107000
2020-06-04 13:30 15.13 76300 179000 (2019) 33000 (2006) 57000 34100 35700 37600 38700 52600 64500 67800 85200 107000
2020-06-04 12:30 15.11 76200 179000 (2019) 33000 (2006) 57000 34100 35700 37600 38700 52600 64500 67800 85200 107000
2020-06-04 11:30 15.07 75900 179000 (2019) 33000 (2006) 57000 34100 35700 37600 38700 52600 64500 67800 85200 107000
2020-06-04 10:30 15.07 75900 179000 (2019) 33000 (2006) 57000 34100 35700 37600 38700 52600 64500 67800 85200 107000
2020-06-04 09:30 15.06 75800 179000 (2019) 33000 (2006) 57000 34100 35700 37600 38700 52600 64500 67800 85200 107000
2020-06-04 08:30 15.08 76000 179000 (2019) 33000 (2006) 57000 34100 35700 37600 38700 52600 64500 67800 85200 107000
2020-06-04 07:30 15.09 76000 179000 (2019) 33000 (2006) 57000 34100 35700 37600 38700 52600 64500 67800 85200 107000
2020-06-04 06:30 15.08 76000 179000 (2019) 33000 (2006) 57000 34100 35700 37600 38700 52600 64500 67800 85200 107000
2020-06-04 05:30 15.08 76000 179000 (2019) 33000 (2006) 57000 34100 35700 37600 38700 52600 64500 67800 85200 107000
2020-06-04 04:30 15.06 75800 179000 (2019) 33000 (2006) 57000 34100 35700 37600 38700 52600 64500 67800 85200 107000
2020-06-04 03:30 15.04 75700 179000 (2019) 33000 (2006) 57000 34100 35700 37600 38700 52600 64500 67800 85200 107000
2020-06-04 02:30 15.09 76000 179000 (2019) 33000 (2006) 57000 34100 35700 37600 38700 52600 64500 67800 85200 107000
2020-06-04 01:30 15.10 76100 179000 (2019) 33000 (2006) 57000 34100 35700 37600 38700 52600 64500 67800 85200 107000
2020-06-04 00:30 15.09 76000 179000 (2019) 33000 (2006) 57000 34100 35700 37600 38700 52600 64500 67800 85200 107000
2020-06-03 23:30 15.10 76100 172000 (2019) 32200 (2006) 58000 34600 36500 37900 38800 53600 66500 71600 85400 111000
2020-06-03 22:30 15.14 76400 172000 (2019) 32200 (2006) 58000 34600 36500 37900 38800 53600 66500 71600 85400 111000
2020-06-03 21:30 15.15 76400 172000 (2019) 32200 (2006) 58000 34600 36500 37900 38800 53600 66500 71600 85400 111000
2020-06-03 20:30 15.20 76800 172000 (2019) 32200 (2006) 58000 34600 36500 37900 38800 53600 66500 71600 85400 111000
2020-06-03 19:30 15.23 77000 172000 (2019) 32200 (2006) 58000 34600 36500 37900 38800 53600 66500 71600 85400 111000
2020-06-03 18:30 15.25 77100 172000 (2019) 32200 (2006) 58000 34600 36500 37900 38800 53600 66500 71600 85400 111000
2020-06-03 17:30 15.28 77300 172000 (2019) 32200 (2006) 58000 34600 36500 37900 38800 53600 66500 71600 85400 111000
2020-06-03 16:30 15.29 77400 172000 (2019) 32200 (2006) 58000 34600 36500 37900 38800 53600 66500 71600 85400 111000
2020-06-03 15:30 15.33 77700 172000 (2019) 32200 (2006) 58000 34600 36500 37900 38800 53600 66500 71600 85400 111000
2020-06-03 14:30 15.36 77900 172000 (2019) 32200 (2006) 58000 34600 36500 37900 38800 53600 66500 71600 85400 111000
2020-06-03 13:30 15.35 77800 172000 (2019) 32200 (2006) 58000 34600 36500 37900 38800 53600 66500 71600 85400 111000
2020-06-03 12:30 15.39 78100 172000 (2019) 32200 (2006) 58000 34600 36500 37900 38800 53600 66500 71600 85400 111000
2020-06-03 11:30 15.43 78400 172000 (2019) 32200 (2006) 58000 34600 36500 37900 38800 53600 66500 71600 85400 111000
2020-06-03 10:30 15.41 78200 172000 (2019) 32200 (2006) 58000 34600 36500 37900 38800 53600 66500 71600 85400 111000
2020-06-03 09:30 15.42 78300 172000 (2019) 32200 (2006) 58000 34600 36500 37900 38800 53600 66500 71600 85400 111000
2020-06-03 08:30 15.48 78700 172000 (2019) 32200 (2006) 58000 34600 36500 37900 38800 53600 66500 71600 85400 111000
2020-06-03 07:30 15.49 78800 172000 (2019) 32200 (2006) 58000 34600 36500 37900 38800 53600 66500 71600 85400 111000
2020-06-03 06:30 15.48 78700 172000 (2019) 32200 (2006) 58000 34600 36500 37900 38800 53600 66500 71600 85400 111000
2020-06-03 05:30 15.50 78800 172000 (2019) 32200 (2006) 58000 34600 36500 37900 38800 53600 66500 71600 85400 111000
2020-06-03 04:30 15.51 78900 172000 (2019) 32200 (2006) 58000 34600 36500 37900 38800 53600 66500 71600 85400 111000
2020-06-03 03:30 15.54 79100 172000 (2019) 32200 (2006) 58000 34600 36500 37900 38800 53600 66500 71600 85400 111000
2020-06-03 02:30 15.56 79200 172000 (2019) 32200 (2006) 58000 34600 36500 37900 38800 53600 66500 71600 85400 111000
2020-06-03 01:30 15.58 79400 172000 (2019) 32200 (2006) 58000 34600 36500 37900 38800 53600 66500 71600 85400 111000
2020-06-03 00:30 15.60 79500 172000 (2019) 32200 (2006) 58000 34600 36500 37900 38800 53600 66500 71600 85400 111000
2020-06-02 23:30 15.63 79700 173000 (2019) 33500 (1963) 58100 34800 35800 37600 39900 54400 67500 72300 83800 116000
2020-06-02 22:30 15.63 79700 173000 (2019) 33500 (1963) 58100 34800 35800 37600 39900 54400 67500 72300 83800 116000
2020-06-02 21:30 15.65 79900 173000 (2019) 33500 (1963) 58100 34800 35800 37600 39900 54400 67500 72300 83800 116000
2020-06-02 20:30 15.67 80000 173000 (2019) 33500 (1963) 58100 34800 35800 37600 39900 54400 67500 72300 83800 116000
2020-06-02 19:30 15.67 80000 173000 (2019) 33500 (1963) 58100 34800 35800 37600 39900 54400 67500 72300 83800 116000
2020-06-02 18:30 15.69 80100 173000 (2019) 33500 (1963) 58100 34800 35800 37600 39900 54400 67500 72300 83800 116000
2020-06-02 17:30 15.73 80400 173000 (2019) 33500 (1963) 58100 34800 35800 37600 39900 54400 67500 72300 83800 116000
2020-06-02 16:30 15.76 80600 173000 (2019) 33500 (1963) 58100 34800 35800 37600 39900 54400 67500 72300 83800 116000
2020-06-02 15:30 15.76 80600 173000 (2019) 33500 (1963) 58100 34800 35800 37600 39900 54400 67500 72300 83800 116000
2020-06-02 14:30 15.80 80900 173000 (2019) 33500 (1963) 58100 34800 35800 37600 39900 54400 67500 72300 83800 116000
2020-06-02 13:30 15.82 81000 173000 (2019) 33500 (1963) 58100 34800 35800 37600 39900 54400 67500 72300 83800 116000
2020-06-02 12:30 15.85 81300 173000 (2019) 33500 (1963) 58100 34800 35800 37600 39900 54400 67500 72300 83800 116000
2020-06-02 11:30 15.86 81300 173000 (2019) 33500 (1963) 58100 34800 35800 37600 39900 54400 67500 72300 83800 116000
2020-06-02 10:30 15.87 81400 173000 (2019) 33500 (1963) 58100 34800 35800 37600 39900 54400 67500 72300 83800 116000
2020-06-02 09:30 15.89 81500 173000 (2019) 33500 (1963) 58100 34800 35800 37600 39900 54400 67500 72300 83800 116000
2020-06-02 08:30 15.90 81600 173000 (2019) 33500 (1963) 58100 34800 35800 37600 39900 54400 67500 72300 83800 116000
2020-06-02 07:30 15.90 81600 173000 (2019) 33500 (1963) 58100 34800 35800 37600 39900 54400 67500 72300 83800 116000
2020-06-02 06:30 15.96 82000 173000 (2019) 33500 (1963) 58100 34800 35800 37600 39900 54400 67500 72300 83800 116000
2020-06-02 05:30 15.97 82100 173000 (2019) 33500 (1963) 58100 34800 35800 37600 39900 54400 67500 72300 83800 116000
2020-06-02 04:30 15.97 82100 173000 (2019) 33500 (1963) 58100 34800 35800 37600 39900 54400 67500 72300 83800 116000
2020-06-02 03:30 16.02 82400 173000 (2019) 33500 (1963) 58100 34800 35800 37600 39900 54400 67500 72300 83800 116000
2020-06-02 02:30 16.04 82600 173000 (2019) 33500 (1963) 58100 34800 35800 37600 39900 54400 67500 72300 83800 116000
2020-06-02 01:30 16.08 82900 173000 (2019) 33500 (1963) 58100 34800 35800 37600 39900 54400 67500 72300 83800 116000
2020-06-02 00:30 16.08 82900 173000 (2019) 33500 (1963) 58100 34800 35800 37600 39900 54400 67500 72300 83800 116000
2020-06-01 23:30 16.09 82900 174000 (2019) 32900 (1963) 57800 35900 36400 37800 39900 50800 68500 70500 85000 115000
2020-06-01 22:30 16.12 83100 174000 (2019) 32900 (1963) 57800 35900 36400 37800 39900 50800 68500 70500 85000 115000
2020-06-01 21:30 16.14 83300 174000 (2019) 32900 (1963) 57800 35900 36400 37800 39900 50800 68500 70500 85000 115000
2020-06-01 20:30 16.18 83600 174000 (2019) 32900 (1963) 57800 35900 36400 37800 39900 50800 68500 70500 85000 115000
2020-06-01 19:30 16.19 83600 174000 (2019) 32900 (1963) 57800 35900 36400 37800 39900 50800 68500 70500 85000 115000
2020-06-01 18:30 16.20 83700 174000 (2019) 32900 (1963) 57800 35900 36400 37800 39900 50800 68500 70500 85000 115000
2020-06-01 17:30 16.21 83800 174000 (2019) 32900 (1963) 57800 35900 36400 37800 39900 50800 68500 70500 85000 115000
2020-06-01 16:30 16.24 84000 174000 (2019) 32900 (1963) 57800 35900 36400 37800 39900 50800 68500 70500 85000 115000
2020-06-01 15:30 16.27 84200 174000 (2019) 32900 (1963) 57800 35900 36400 37800 39900 50800 68500 70500 85000 115000
2020-06-01 14:30 16.28 84300 174000 (2019) 32900 (1963) 57800 35900 36400 37800 39900 50800 68500 70500 85000 115000
2020-06-01 13:30 16.32 84500 174000 (2019) 32900 (1963) 57800 35900 36400 37800 39900 50800 68500 70500 85000 115000
2020-06-01 12:30 16.36 84800 174000 (2019) 32900 (1963) 57800 35900 36400 37800 39900 50800 68500 70500 85000 115000
2020-06-01 11:30 16.37 84900 174000 (2019) 32900 (1963) 57800 35900 36400 37800 39900 50800 68500 70500 85000 115000
2020-06-01 10:30 16.42 85200 174000 (2019) 32900 (1963) 57800 35900 36400 37800 39900 50800 68500 70500 85000 115000
2020-06-01 09:30 16.47 85600 174000 (2019) 32900 (1963) 57800 35900 36400 37800 39900 50800 68500 70500 85000 115000
2020-06-01 08:30 16.47 85600 174000 (2019) 32900 (1963) 57800 35900 36400 37800 39900 50800 68500 70500 85000 115000
2020-06-01 07:30 16.48 85700 174000 (2019) 32900 (1963) 57800 35900 36400 37800 39900 50800 68500 70500 85000 115000
2020-06-01 06:30 16.50 85800 174000 (2019) 32900 (1963) 57800 35900 36400 37800 39900 50800 68500 70500 85000 115000
2020-06-01 05:30 16.52 85900 174000 (2019) 32900 (1963) 57800 35900 36400 37800 39900 50800 68500 70500 85000 115000
2020-06-01 04:30 16.54 86100 174000 (2019) 32900 (1963) 57800 35900 36400 37800 39900 50800 68500 70500 85000 115000
2020-06-01 03:30 16.54 86100 174000 (2019) 32900 (1963) 57800 35900 36400 37800 39900 50800 68500 70500 85000 115000
2020-06-01 02:30 16.57 86300 174000 (2019) 32900 (1963) 57800 35900 36400 37800 39900 50800 68500 70500 85000 115000
2020-06-01 01:30 16.60 86500 174000 (2019) 32900 (1963) 57800 35900 36400 37800 39900 50800 68500 70500 85000 115000
2020-06-01 00:30 16.62 86600 174000 (2019) 32900 (1963) 57800 35900 36400 37800 39900 50800 68500 70500 85000 115000
2020-05-31 23:30 16.63 86700 175000 (2019) 34100 (1963) 59300 36400 37100 38700 39500 52600 71100 75600 90800 109000
2020-05-31 22:30 16.66 86900 175000 (2019) 34100 (1963) 59300 36400 37100 38700 39500 52600 71100 75600 90800 109000
2020-05-31 21:30 16.67 87000 175000 (2019) 34100 (1963) 59300 36400 37100 38700 39500 52600 71100 75600 90800 109000
2020-05-31 20:30 16.70 87200 175000 (2019) 34100 (1963) 59300 36400 37100 38700 39500 52600 71100 75600 90800 109000
2020-05-31 19:30 16.70 87200 175000 (2019) 34100 (1963) 59300 36400 37100 38700 39500 52600 71100 75600 90800 109000
2020-05-31 18:30 16.73 87400 175000 (2019) 34100 (1963) 59300 36400 37100 38700 39500 52600 71100 75600 90800 109000
2020-05-31 17:30 16.73 87400 175000 (2019) 34100 (1963) 59300 36400 37100 38700 39500 52600 71100 75600 90800 109000
2020-05-31 16:30 16.75 87600 175000 (2019) 34100 (1963) 59300 36400 37100 38700 39500 52600 71100 75600 90800 109000
2020-05-31 15:30 16.76 87600 175000 (2019) 34100 (1963) 59300 36400 37100 38700 39500 52600 71100 75600 90800 109000
2020-05-31 14:30 16.78 87800 175000 (2019) 34100 (1963) 59300 36400 37100 38700 39500 52600 71100 75600 90800 109000
2020-05-31 13:30 16.76 87600 175000 (2019) 34100 (1963) 59300 36400 37100 38700 39500 52600 71100 75600 90800 109000
2020-05-31 12:30 16.82 88100 175000 (2019) 34100 (1963) 59300 36400 37100 38700 39500 52600 71100 75600 90800 109000
2020-05-31 11:30 16.83 88100 175000 (2019) 34100 (1963) 59300 36400 37100 38700 39500 52600 71100 75600 90800 109000
2020-05-31 10:30 16.85 88300 175000 (2019) 34100 (1963) 59300 36400 37100 38700 39500 52600 71100 75600 90800 109000
2020-05-31 09:30 16.87 88400 175000 (2019) 34100 (1963) 59300 36400 37100 38700 39500 52600 71100 75600 90800 109000
2020-05-31 08:30 16.85 88300 175000 (2019) 34100 (1963) 59300 36400 37100 38700 39500 52600 71100 75600 90800 109000
2020-05-31 07:30 16.86 88400 175000 (2019) 34100 (1963) 59300 36400 37100 38700 39500 52600 71100 75600 90800 109000
2020-05-31 06:30 16.86 88400 175000 (2019) 34100 (1963) 59300 36400 37100 38700 39500 52600 71100 75600 90800 109000
2020-05-31 05:30 16.89 88600 175000 (2019) 34100 (1963) 59300 36400 37100 38700 39500 52600 71100 75600 90800 109000
2020-05-31 04:30 16.90 88600 175000 (2019) 34100 (1963) 59300 36400 37100 38700 39500 52600 71100 75600 90800 109000
2020-05-31 03:30 16.93 88800 175000 (2019) 34100 (1963) 59300 36400 37100 38700 39500 52600 71100 75600 90800 109000
2020-05-31 02:30 16.91 88700 175000 (2019) 34100 (1963) 59300 36400 37100 38700 39500 52600 71100 75600 90800 109000
2020-05-31 01:30 16.95 89000 175000 (2019) 34100 (1963) 59300 36400 37100 38700 39500 52600 71100 75600 90800 109000
2020-05-31 00:30 16.94 88900 175000 (2019) 34100 (1963) 59300 36400 37100 38700 39500 52600 71100 75600 90800 109000
2020-05-30 23:30 16.98 89200 183000 (2019) 33000 (1956) 60200 35200 36700 37500 38400 53300 77900 83700 97400 104000
2020-05-30 22:30 17.01 89400 183000 (2019) 33000 (1956) 60200 35200 36700 37500 38400 53300 77900 83700 97400 104000
2020-05-30 21:30 17.02 89500 183000 (2019) 33000 (1956) 60200 35200 36700 37500 38400 53300 77900 83700 97400 104000
2020-05-30 20:30 17.04 89600 183000 (2019) 33000 (1956) 60200 35200 36700 37500 38400 53300 77900 83700 97400 104000
2020-05-30 19:30 17.05 89700 183000 (2019) 33000 (1956) 60200 35200 36700 37500 38400 53300 77900 83700 97400 104000
2020-05-30 18:30 17.09 90000 183000 (2019) 33000 (1956) 60200 35200 36700 37500 38400 53300 77900 83700 97400 104000
2020-05-30 17:30 17.10 90100 183000 (2019) 33000 (1956) 60200 35200 36700 37500 38400 53300 77900 83700 97400 104000
2020-05-30 16:30 17.13 90300 183000 (2019) 33000 (1956) 60200 35200 36700 37500 38400 53300 77900 83700 97400 104000
2020-05-30 15:30 17.14 90300 183000 (2019) 33000 (1956) 60200 35200 36700 37500 38400 53300 77900 83700 97400 104000
2020-05-30 14:30 17.18 90600 183000 (2019) 33000 (1956) 60200 35200 36700 37500 38400 53300 77900 83700 97400 104000
2020-05-30 13:30 17.21 90800 183000 (2019) 33000 (1956) 60200 35200 36700 37500 38400 53300 77900 83700 97400 104000
2020-05-30 12:30 17.18 90600 183000 (2019) 33000 (1956) 60200 35200 36700 37500 38400 53300 77900 83700 97400 104000
2020-05-30 11:30 17.24 91100 183000 (2019) 33000 (1956) 60200 35200 36700 37500 38400 53300 77900 83700 97400 104000
2020-05-30 10:30 17.24 91100 183000 (2019) 33000 (1956) 60200 35200 36700 37500 38400 53300 77900 83700 97400 104000
2020-05-30 09:30 17.28 91400 183000 (2019) 33000 (1956) 60200 35200 36700 37500 38400 53300 77900 83700 97400 104000
2020-05-30 08:30 17.28 91400 183000 (2019) 33000 (1956) 60200 35200 36700 37500 38400 53300 77900 83700 97400 104000
2020-05-30 07:30 17.32 91600 183000 (2019) 33000 (1956) 60200 35200 36700 37500 38400 53300 77900 83700 97400 104000
2020-05-30 06:30 17.32 91600 183000 (2019) 33000 (1956) 60200 35200 36700 37500 38400 53300 77900 83700 97400 104000
2020-05-30 05:30 17.33 91700 183000 (2019) 33000 (1956) 60200 35200 36700 37500 38400 53300 77900 83700 97400 104000
2020-05-30 04:30 17.36 91900 183000 (2019) 33000 (1956) 60200 35200 36700 37500 38400 53300 77900 83700 97400 104000
2020-05-30 03:30 17.39 92100 183000 (2019) 33000 (1956) 60200 35200 36700 37500 38400 53300 77900 83700 97400 104000
2020-05-30 02:30 17.41 92300 183000 (2019) 33000 (1956) 60200 35200 36700 37500 38400 53300 77900 83700 97400 104000
2020-05-30 01:30 17.43 92400 183000 (2019) 33000 (1956) 60200 35200 36700 37500 38400 53300 77900 83700 97400 104000
2020-05-30 00:30 17.48 92800 183000 (2019) 33000 (1956) 60200 35200 36700 37500 38400 53300 77900 83700 97400 104000
2020-05-29 23:30 17.50 92900 187000 (2019) 31700 (1956) 59500 34800 36600 37900 39700 52000 67500 70600 99200 114000
2020-05-29 22:30 17.54 93200 187000 (2019) 31700 (1956) 59500 34800 36600 37900 39700 52000 67500 70600 99200 114000
2020-05-29 21:30 17.57 93400 187000 (2019) 31700 (1956) 59500 34800 36600 37900 39700 52000 67500 70600 99200 114000
2020-05-29 20:30 17.59 93600 187000 (2019) 31700 (1956) 59500 34800 36600 37900 39700 52000 67500 70600 99200 114000
2020-05-29 19:30 17.60 93700 187000 (2019) 31700 (1956) 59500 34800 36600 37900 39700 52000 67500 70600 99200 114000
2020-05-29 18:30 17.63 93900 187000 (2019) 31700 (1956) 59500 34800 36600 37900 39700 52000 67500 70600 99200 114000
2020-05-29 17:30 17.66 94100 187000 (2019) 31700 (1956) 59500 34800 36600 37900 39700 52000 67500 70600 99200 114000
2020-05-29 16:30 17.67 94200 187000 (2019) 31700 (1956) 59500 34800 36600 37900 39700 52000 67500 70600 99200 114000
2020-05-29 15:30 17.68 94200 187000 (2019) 31700 (1956) 59500 34800 36600 37900 39700 52000 67500 70600 99200 114000
2020-05-29 14:30 17.71 94500 187000 (2019) 31700 (1956) 59500 34800 36600 37900 39700 52000 67500 70600 99200 114000
2020-05-29 13:30 17.74 101000 187000 (2019) 31700 (1956) 59500 34800 36600 37900 39700 52000 67500 70600 99200 114000
2020-05-29 12:30 17.74 101000 187000 (2019) 31700 (1956) 59500 34800 36600 37900 39700 52000 67500 70600 99200 114000
2020-05-29 11:30 17.74 101000 187000 (2019) 31700 (1956) 59500 34800 36600 37900 39700 52000 67500 70600 99200 114000
2020-05-29 10:30 17.78 101000 187000 (2019) 31700 (1956) 59500 34800 36600 37900 39700 52000 67500 70600 99200 114000
2020-05-29 09:30 17.79 101000 187000 (2019) 31700 (1956) 59500 34800 36600 37900 39700 52000 67500 70600 99200 114000
2020-05-29 08:30 17.83 101000 187000 (2019) 31700 (1956) 59500 34800 36600 37900 39700 52000 67500 70600 99200 114000
2020-05-29 07:30 17.83 101000 187000 (2019) 31700 (1956) 59500 34800 36600 37900 39700 52000 67500 70600 99200 114000
2020-05-29 06:30 17.85 101000 187000 (2019) 31700 (1956) 59500 34800 36600 37900 39700 52000 67500 70600 99200 114000
2020-05-29 05:30 17.87 102000 187000 (2019) 31700 (1956) 59500 34800 36600 37900 39700 52000 67500 70600 99200 114000
2020-05-29 04:30 17.88 102000 187000 (2019) 31700 (1956) 59500 34800 36600 37900 39700 52000 67500 70600 99200 114000
2020-05-29 03:30 17.88 102000 187000 (2019) 31700 (1956) 59500 34800 36600 37900 39700 52000 67500 70600 99200 114000
2020-05-29 02:30 17.91 102000 187000 (2019) 31700 (1956) 59500 34800 36600 37900 39700 52000 67500 70600 99200 114000
2020-05-29 01:30 17.94 102000 187000 (2019) 31700 (1956) 59500 34800 36600 37900 39700 52000 67500 70600 99200 114000
2020-05-29 00:30 17.93 102000 187000 (2019) 31700 (1956) 59500 34800 36600 37900 39700 52000 67500 70600 99200 114000
2020-05-28 23:30 17.95 102000 149000 (2019) 31700 (1956) 58000 33400 35700 38300 39200 50900 67500 73200 98600 110000
2020-05-28 22:30 17.98 102000 149000 (2019) 31700 (1956) 58000 33400 35700 38300 39200 50900 67500 73200 98600 110000
2020-05-28 21:30 17.98 102000 149000 (2019) 31700 (1956) 58000 33400 35700 38300 39200 50900 67500 73200 98600 110000
2020-05-28 21:00 18.00 103000 149000 (2019) 31700 (1956) 58000 33400 35700 38300 39200 50900 67500 73200 98600 110000
2020-05-28 20:30 17.99 103000 149000 (2019) 31700 (1956) 58000 33400 35700 38300 39200 50900 67500 73200 98600 110000
2020-05-28 20:15 18.01 103000 149000 (2019) 31700 (1956) 58000 33400 35700 38300 39200 50900 67500 73200 98600 110000
2020-05-28 20:00 18.03 103000 149000 (2019) 31700 (1956) 58000 33400 35700 38300 39200 50900 67500 73200 98600 110000
2020-05-28 19:30 18.03 103000 149000 (2019) 31700 (1956) 58000 33400 35700 38300 39200 50900 67500 73200 98600 110000
2020-05-28 19:15 18.02 103000 149000 (2019) 31700 (1956) 58000 33400 35700 38300 39200 50900 67500 73200 98600 110000
2020-05-28 19:00 18.02 103000 149000 (2019) 31700 (1956) 58000 33400 35700 38300 39200 50900 67500 73200 98600 110000
2020-05-28 18:45 18.03 103000 149000 (2019) 31700 (1956) 58000 33400 35700 38300 39200 50900 67500 73200 98600 110000
2020-05-28 18:15 18.03 103000 149000 (2019) 31700 (1956) 58000 33400 35700 38300 39200 50900 67500 73200 98600 110000
2020-05-28 18:00 18.04 103000 149000 (2019) 31700 (1956) 58000 33400 35700 38300 39200 50900 67500 73200 98600 110000
2020-05-28 17:45 18.03 103000 149000 (2019) 31700 (1956) 58000 33400 35700 38300 39200 50900 67500 73200 98600 110000
2020-05-28 17:15 18.04 103000 149000 (2019) 31700 (1956) 58000 33400 35700 38300 39200 50900 67500 73200 98600 110000
2020-05-28 17:00 18.05 103000 149000 (2019) 31700 (1956) 58000 33400 35700 38300 39200 50900 67500 73200 98600 110000
2020-05-28 16:45 18.05 103000 149000 (2019) 31700 (1956) 58000 33400 35700 38300 39200 50900 67500 73200 98600 110000
2020-05-28 16:30 103000 149000 (2019) 31700 (1956) 58000 33400 35700 38300 39200 50900 67500 73200 98600 110000
2020-05-28 16:15 18.04 103000 149000 (2019) 31700 (1956) 58000 33400 35700 38300 39200 50900 67500 73200 98600 110000
2020-05-28 16:00 18.06 103000 149000 (2019) 31700 (1956) 58000 33400 35700 38300 39200 50900 67500 73200 98600 110000
2020-05-28 15:45 18.04 103000 149000 (2019) 31700 (1956) 58000 33400 35700 38300 39200 50900 67500 73200 98600 110000
2020-05-28 15:30 18.05 103000 149000 (2019) 31700 (1956) 58000 33400 35700 38300 39200 50900 67500 73200 98600 110000
2020-05-28 15:15 18.06 103000 149000 (2019) 31700 (1956) 58000 33400 35700 38300 39200 50900 67500 73200 98600 110000
2020-05-28 15:00 18.05 103000 149000 (2019) 31700 (1956) 58000 33400 35700 38300 39200 50900 67500 73200 98600 110000
2020-05-28 14:45 18.07 103000 149000 (2019) 31700 (1956) 58000 33400 35700 38300 39200 50900 67500 73200 98600 110000
2020-05-28 14:30 18.07 103000 149000 (2019) 31700 (1956) 58000 33400 35700 38300 39200 50900 67500 73200 98600 110000
2020-05-28 14:15 18.07 103000 149000 (2019) 31700 (1956) 58000 33400 35700 38300 39200 50900 67500 73200 98600 110000
2020-05-28 13:45 18.09 103000 149000 (2019) 31700 (1956) 58000 33400 35700 38300 39200 50900 67500 73200 98600 110000
2020-05-28 13:30 18.09 103000 149000 (2019) 31700 (1956) 58000 33400 35700 38300 39200 50900 67500 73200 98600 110000
2020-05-28 13:15 18.08 103000 149000 (2019) 31700 (1956) 58000 33400 35700 38300 39200 50900 67500 73200 98600 110000
2020-05-28 12:45 18.06 103000 149000 (2019) 31700 (1956) 58000 33400 35700 38300 39200 50900 67500 73200 98600 110000
2020-05-28 12:30 18.08 103000 149000 (2019) 31700 (1956) 58000 33400 35700 38300 39200 50900 67500 73200 98600 110000
2020-05-28 12:15 18.09 103000 149000 (2019) 31700 (1956) 58000 33400 35700 38300 39200 50900 67500 73200 98600 110000
2020-05-28 11:45 18.09 103000 149000 (2019) 31700 (1956) 58000 33400 35700 38300 39200 50900 67500 73200 98600 110000
2020-05-28 11:30 18.08 103000 149000 (2019) 31700 (1956) 58000 33400 35700 38300 39200 50900 67500 73200 98600 110000
2020-05-28 11:00 18.09 103000 149000 (2019) 31700 (1956) 58000 33400 35700 38300 39200 50900 67500 73200 98600 110000
2020-05-28 10:30 18.08 103000 149000 (2019) 31700 (1956) 58000 33400 35700 38300 39200 50900 67500 73200 98600 110000
2020-05-28 10:00 18.08 103000 149000 (2019) 31700 (1956) 58000 33400 35700 38300 39200 50900 67500 73200 98600 110000
2020-05-28 09:45 18.09 103000 149000 (2019) 31700 (1956) 58000 33400 35700 38300 39200 50900 67500 73200 98600 110000
2020-05-28 09:30 18.11 103000 149000 (2019) 31700 (1956) 58000 33400 35700 38300 39200 50900 67500 73200 98600 110000
2020-05-28 09:00 18.10 103000 149000 (2019) 31700 (1956) 58000 33400 35700 38300 39200 50900 67500 73200 98600 110000
2020-05-28 08:45 18.12 103000 149000 (2019) 31700 (1956) 58000 33400 35700 38300 39200 50900 67500 73200 98600 110000
2020-05-28 08:30 18.11 103000 149000 (2019) 31700 (1956) 58000 33400 35700 38300 39200 50900 67500 73200 98600 110000
2020-05-28 08:15 18.12 103000 149000 (2019) 31700 (1956) 58000 33400 35700 38300 39200 50900 67500 73200 98600 110000
2020-05-28 08:00 18.13 104000 149000 (2019) 31700 (1956) 58000 33400 35700 38300 39200 50900 67500 73200 98600 110000
2020-05-28 07:45 18.09 103000 149000 (2019) 31700 (1956) 58000 33400 35700 38300 39200 50900 67500 73200 98600 110000
2020-05-28 07:30 18.10 103000 149000 (2019) 31700 (1956) 58000 33400 35700 38300 39200 50900 67500 73200 98600 110000
2020-05-28 07:15 18.11 103000 149000 (2019) 31700 (1956) 58000 33400 35700 38300 39200 50900 67500 73200 98600 110000
2020-05-28 07:00 18.12 103000 149000 (2019) 31700 (1956) 58000 33400 35700 38300 39200 50900 67500 73200 98600 110000
2020-05-28 06:30 18.13 104000 149000 (2019) 31700 (1956) 58000 33400 35700 38300 39200 50900 67500 73200 98600 110000
2020-05-28 06:15 18.12 103000 149000 (2019) 31700 (1956) 58000 33400 35700 38300 39200 50900 67500 73200 98600 110000
2020-05-28 06:00 18.14 104000 149000 (2019) 31700 (1956) 58000 33400 35700 38300 39200 50900 67500 73200 98600 110000
2020-05-28 05:30 18.14 104000 149000 (2019) 31700 (1956) 58000 33400 35700 38300 39200 50900 67500 73200 98600 110000
2020-05-28 05:15 18.14 104000 149000 (2019) 31700 (1956) 58000 33400 35700 38300 39200 50900 67500 73200 98600 110000
2020-05-28 05:00 18.15 104000 149000 (2019) 31700 (1956) 58000 33400 35700 38300 39200 50900 67500 73200 98600 110000
2020-05-28 04:45 18.14 104000 149000 (2019) 31700 (1956) 58000 33400 35700 38300 39200 50900 67500 73200 98600 110000
2020-05-28 04:30 18.17 104000 149000 (2019) 31700 (1956) 58000 33400 35700 38300 39200 50900 67500 73200 98600 110000
2020-05-28 04:15 18.17 104000 149000 (2019) 31700 (1956) 58000 33400 35700 38300 39200 50900 67500 73200 98600 110000
2020-05-28 03:45 18.20 104000 149000 (2019) 31700 (1956) 58000 33400 35700 38300 39200 50900 67500 73200 98600 110000
2020-05-28 03:30 18.20 104000 149000 (2019) 31700 (1956) 58000 33400 35700 38300 39200 50900 67500 73200 98600 110000
2020-05-28 03:15 18.21 104000 149000 (2019) 31700 (1956) 58000 33400 35700 38300 39200 50900 67500 73200 98600 110000
2020-05-28 03:00 18.21 104000 149000 (2019) 31700 (1956) 58000 33400 35700 38300 39200 50900 67500 73200 98600 110000
2020-05-28 02:45 18.20 104000 149000 (2019) 31700 (1956) 58000 33400 35700 38300 39200 50900 67500 73200 98600 110000
2020-05-28 02:30 18.21 104000 149000 (2019) 31700 (1956) 58000 33400 35700 38300 39200 50900 67500 73200 98600 110000
2020-05-28 02:15 18.21 104000 149000 (2019) 31700 (1956) 58000 33400 35700 38300 39200 50900 67500 73200 98600 110000
2020-05-28 02:00 18.22 104000 149000 (2019) 31700 (1956) 58000 33400 35700 38300 39200 50900 67500 73200 98600 110000
2020-05-28 01:30 18.25 104000 149000 (2019) 31700 (1956) 58000 33400 35700 38300 39200 50900 67500 73200 98600 110000
2020-05-28 01:15 18.24 104000 149000 (2019) 31700 (1956) 58000 33400 35700 38300 39200 50900 67500 73200 98600 110000
2020-05-28 00:45 18.25 104000 149000 (2019) 31700 (1956) 58000 33400 35700 38300 39200 50900 67500 73200 98600 110000
2020-05-28 00:30 18.27 105000 149000 (2019) 31700 (1956) 58000 33400 35700 38300 39200 50900 67500 73200 98600 110000
2020-05-28 00:15 18.28 105000 149000 (2019) 31700 (1956) 58000 33400 35700 38300 39200 50900 67500 73200 98600 110000
2020-05-27 23:45 18.29 105000 137000 (2019) 29500 (1957) 57500 32700 35500 38500 39900 50800 66800 76800 92300 111000
2020-05-27 23:15 18.31 105000 137000 (2019) 29500 (1957) 57500 32700 35500 38500 39900 50800 66800 76800 92300 111000
2020-05-27 23:00 18.28 105000 137000 (2019) 29500 (1957) 57500 32700 35500 38500 39900 50800 66800 76800 92300 111000
2020-05-27 22:45 18.29 105000 137000 (2019) 29500 (1957) 57500 32700 35500 38500 39900 50800 66800 76800 92300 111000
2020-05-27 22:30 18.32 105000 137000 (2019) 29500 (1957) 57500 32700 35500 38500 39900 50800 66800 76800 92300 111000
2020-05-27 22:00 18.33 105000 137000 (2019) 29500 (1957) 57500 32700 35500 38500 39900 50800 66800 76800 92300 111000
2020-05-27 21:45 18.33 105000 137000 (2019) 29500 (1957) 57500 32700 35500 38500 39900 50800 66800 76800 92300 111000
2020-05-27 21:15 18.37 105000 137000 (2019) 29500 (1957) 57500 32700 35500 38500 39900 50800 66800 76800 92300 111000
2020-05-27 20:45 18.37 105000 137000 (2019) 29500 (1957) 57500 32700 35500 38500 39900 50800 66800 76800 92300 111000
2020-05-27 20:30 18.37 105000 137000 (2019) 29500 (1957) 57500 32700 35500 38500 39900 50800 66800 76800 92300 111000
2020-05-27 20:15 18.37 105000 137000 (2019) 29500 (1957) 57500 32700 35500 38500 39900 50800 66800 76800 92300 111000
2020-05-27 20:00 18.40 106000 137000 (2019) 29500 (1957) 57500 32700 35500 38500 39900 50800 66800 76800 92300 111000
2020-05-27 19:45 18.38 105000 137000 (2019) 29500 (1957) 57500 32700 35500 38500 39900 50800 66800 76800 92300 111000
2020-05-27 19:30 18.41 106000 137000 (2019) 29500 (1957) 57500 32700 35500 38500 39900 50800 66800 76800 92300 111000
2020-05-27 19:15 18.40 106000 137000 (2019) 29500 (1957) 57500 32700 35500 38500 39900 50800 66800 76800 92300 111000
2020-05-27 18:45 18.45 106000 137000 (2019) 29500 (1957) 57500 32700 35500 38500 39900 50800 66800 76800 92300 111000
2020-05-27 18:15 18.47 106000 137000 (2019) 29500 (1957) 57500 32700 35500 38500 39900 50800 66800 76800 92300 111000
2020-05-27 18:00 18.46 106000 137000 (2019) 29500 (1957) 57500 32700 35500 38500 39900 50800 66800 76800 92300 111000
2020-05-27 17:30 18.47 106000 137000 (2019) 29500 (1957) 57500 32700 35500 38500 39900 50800 66800 76800 92300 111000
2020-05-27 17:00 18.48 106000 137000 (2019) 29500 (1957) 57500 32700 35500 38500 39900 50800 66800 76800 92300 111000
2020-05-27 16:30 18.51 106000 137000 (2019) 29500 (1957) 57500 32700 35500 38500 39900 50800 66800 76800 92300 111000
2020-05-27 16:15 18.50 106000 137000 (2019) 29500 (1957) 57500 32700 35500 38500 39900 50800 66800 76800 92300 111000
2020-05-27 16:00 18.52 106000 137000 (2019) 29500 (1957) 57500 32700 35500 38500 39900 50800 66800 76800 92300 111000
2020-05-27 15:30 18.54 107000 137000 (2019) 29500 (1957) 57500 32700 35500 38500 39900 50800 66800 76800 92300 111000
2020-05-27 15:15 18.54 107000 137000 (2019) 29500 (1957) 57500 32700 35500 38500 39900 50800 66800 76800 92300 111000
2020-05-27 14:45 18.56 107000 137000 (2019) 29500 (1957) 57500 32700 35500 38500 39900 50800 66800 76800 92300 111000
2020-05-27 14:30 18.56 107000 137000 (2019) 29500 (1957) 57500 32700 35500 38500 39900 50800 66800 76800 92300 111000
2020-05-27 14:15 18.58 107000 137000 (2019) 29500 (1957) 57500 32700 35500 38500 39900 50800 66800 76800 92300 111000
2020-05-27 13:45 18.58 107000 137000 (2019) 29500 (1957) 57500 32700 35500 38500 39900 50800 66800 76800 92300 111000
2020-05-27 13:30 18.57 107000 137000 (2019) 29500 (1957) 57500 32700 35500 38500 39900 50800 66800 76800 92300 111000
2020-05-27 13:00 18.60 107000 137000 (2019) 29500 (1957) 57500 32700 35500 38500 39900 50800 66800 76800 92300 111000
2020-05-27 12:45 18.61 107000 137000 (2019) 29500 (1957) 57500 32700 35500 38500 39900 50800 66800 76800 92300 111000
2020-05-27 12:30 18.61 107000 137000 (2019) 29500 (1957) 57500 32700 35500 38500 39900 50800 66800 76800 92300 111000
2020-05-27 12:15 18.61 107000 137000 (2019) 29500 (1957) 57500 32700 35500 38500 39900 50800 66800 76800 92300 111000
2020-05-27 11:45 18.63 107000 137000 (2019) 29500 (1957) 57500 32700 35500 38500 39900 50800 66800 76800 92300 111000
2020-05-27 11:30 18.65 107000 137000 (2019) 29500 (1957) 57500 32700 35500 38500 39900 50800 66800 76800 92300 111000
2020-05-27 11:15 18.65 107000 137000 (2019) 29500 (1957) 57500 32700 35500 38500 39900 50800 66800 76800 92300 111000
2020-05-27 11:00 18.67 108000 137000 (2019) 29500 (1957) 57500 32700 35500 38500 39900 50800 66800 76800 92300 111000
2020-05-27 10:45 18.64 107000 137000 (2019) 29500 (1957) 57500 32700 35500 38500 39900 50800 66800 76800 92300 111000
2020-05-27 10:30 18.65 107000 137000 (2019) 29500 (1957) 57500 32700 35500 38500 39900 50800 66800 76800 92300 111000
2020-05-27 10:15 18.69 108000 137000 (2019) 29500 (1957) 57500 32700 35500 38500 39900 50800 66800 76800 92300 111000
2020-05-27 09:45 18.68 108000 137000 (2019) 29500 (1957) 57500 32700 35500 38500 39900 50800 66800 76800 92300 111000
2020-05-27 09:15 18.71 108000 137000 (2019) 29500 (1957) 57500 32700 35500 38500 39900 50800 66800 76800 92300 111000
2020-05-27 08:45 18.70 108000 137000 (2019) 29500 (1957) 57500 32700 35500 38500 39900 50800 66800 76800 92300 111000
2020-05-27 08:30 18.72 108000 137000 (2019) 29500 (1957) 57500 32700 35500 38500 39900 50800 66800 76800 92300 111000
2020-05-27 08:15 18.72 108000 137000 (2019) 29500 (1957) 57500 32700 35500 38500 39900 50800 66800 76800 92300 111000
2020-05-27 07:45 18.71 108000 137000 (2019) 29500 (1957) 57500 32700 35500 38500 39900 50800 66800 76800 92300 111000
2020-05-27 07:30 18.75 108000 137000 (2019) 29500 (1957) 57500 32700 35500 38500 39900 50800 66800 76800 92300 111000
2020-05-27 07:00 18.75 108000 137000 (2019) 29500 (1957) 57500 32700 35500 38500 39900 50800 66800 76800 92300 111000
2020-05-27 06:30 18.77 108000 137000 (2019) 29500 (1957) 57500 32700 35500 38500 39900 50800 66800 76800 92300 111000
2020-05-27 06:15 18.77 108000 137000 (2019) 29500 (1957) 57500 32700 35500 38500 39900 50800 66800 76800 92300 111000
2020-05-27 05:45 18.78 108000 137000 (2019) 29500 (1957) 57500 32700 35500 38500 39900 50800 66800 76800 92300 111000
2020-05-27 05:30 18.78 108000 137000 (2019) 29500 (1957) 57500 32700 35500 38500 39900 50800 66800 76800 92300 111000
2020-05-27 05:15 18.77 108000 137000 (2019) 29500 (1957) 57500 32700 35500 38500 39900 50800 66800 76800 92300 111000
2020-05-27 05:00 18.78 108000 137000 (2019) 29500 (1957) 57500 32700 35500 38500 39900 50800 66800 76800 92300 111000
2020-05-27 04:45 18.78 108000 137000 (2019) 29500 (1957) 57500 32700 35500 38500 39900 50800 66800 76800 92300 111000
2020-05-27 04:30 18.80 109000 137000 (2019) 29500 (1957) 57500 32700 35500 38500 39900 50800 66800 76800 92300 111000
2020-05-27 04:15 18.81 109000 137000 (2019) 29500 (1957) 57500 32700 35500 38500 39900 50800 66800 76800 92300 111000
2020-05-27 03:45 18.82 109000 137000 (2019) 29500 (1957) 57500 32700 35500 38500 39900 50800 66800 76800 92300 111000
2020-05-27 03:30 18.81 109000 137000 (2019) 29500 (1957) 57500 32700 35500 38500 39900 50800 66800 76800 92300 111000
2020-05-27 03:15 18.81 109000 137000 (2019) 29500 (1957) 57500 32700 35500 38500 39900 50800 66800 76800 92300 111000
2020-05-27 03:00 18.81 109000 137000 (2019) 29500 (1957) 57500 32700 35500 38500 39900 50800 66800 76800 92300 111000
2020-05-27 02:30 18.83 109000 137000 (2019) 29500 (1957) 57500 32700 35500 38500 39900 50800 66800 76800 92300 111000
2020-05-27 02:15 18.81 109000 137000 (2019) 29500 (1957) 57500 32700 35500 38500 39900 50800 66800 76800 92300 111000
2020-05-27 02:00 18.82 109000 137000 (2019) 29500 (1957) 57500 32700 35500 38500 39900 50800 66800 76800 92300 111000
2020-05-27 01:45 18.84 109000 137000 (2019) 29500 (1957) 57500 32700 35500 38500 39900 50800 66800 76800 92300 111000
2020-05-27 01:30 18.82 109000 137000 (2019) 29500 (1957) 57500 32700 35500 38500 39900 50800 66800 76800 92300 111000
2020-05-27 01:15 18.83 109000 137000 (2019) 29500 (1957) 57500 32700 35500 38500 39900 50800 66800 76800 92300 111000
2020-05-27 00:45 18.85 109000 137000 (2019) 29500 (1957) 57500 32700 35500 38500 39900 50800 66800 76800 92300 111000
2020-05-27 00:30 18.87 109000 137000 (2019) 29500 (1957) 57500 32700 35500 38500 39900 50800 66800 76800 92300 111000
2020-05-27 00:15 18.86 109000 137000 (2019) 29500 (1957) 57500 32700 35500 38500 39900 50800 66800 76800 92300 111000
2020-05-27 00:00 18.87 109000 137000 (2019) 29500 (1957) 57500 32700 35500 38500 39900 50800 66800 76800 92300 111000
2020-05-26 23:45 18.87 109000 136000 (2019) 30700 (1957) 55400 32500 35300 38900 39600 49500 68200 69900 81400 93500
2020-05-26 23:30 18.86 109000 136000 (2019) 30700 (1957) 55400 32500 35300 38900 39600 49500 68200 69900 81400 93500
2020-05-26 23:15 18.88 109000 136000 (2019) 30700 (1957) 55400 32500 35300 38900 39600 49500 68200 69900 81400 93500
2020-05-26 23:00 18.87 109000 136000 (2019) 30700 (1957) 55400 32500 35300 38900 39600 49500 68200 69900 81400 93500
2020-05-26 22:45 18.88 109000 136000 (2019) 30700 (1957) 55400 32500 35300 38900 39600 49500 68200 69900 81400 93500
2020-05-26 22:30 18.87 109000 136000 (2019) 30700 (1957) 55400 32500 35300 38900 39600 49500 68200 69900 81400 93500
2020-05-26 22:15 18.86 109000 136000 (2019) 30700 (1957) 55400 32500 35300 38900 39600 49500 68200 69900 81400 93500
2020-05-26 22:00 18.86 109000 136000 (2019) 30700 (1957) 55400 32500 35300 38900 39600 49500 68200 69900 81400 93500
2020-05-26 21:30 18.84 109000 136000 (2019) 30700 (1957) 55400 32500 35300 38900 39600 49500 68200 69900 81400 93500
2020-05-26 21:15 18.83 109000 136000 (2019) 30700 (1957) 55400 32500 35300 38900 39600 49500 68200 69900 81400 93500
2020-05-26 21:00 18.81 109000 136000 (2019) 30700 (1957) 55400 32500 35300 38900 39600 49500 68200 69900 81400 93500
2020-05-26 20:30 18.79 108000 136000 (2019) 30700 (1957) 55400 32500 35300 38900 39600 49500 68200 69900 81400 93500
2020-05-26 20:00 18.75 108000 136000 (2019) 30700 (1957) 55400 32500 35300 38900 39600 49500 68200 69900 81400 93500
2020-05-26 19:45 18.76 108000 136000 (2019) 30700 (1957) 55400 32500 35300 38900 39600 49500 68200 69900 81400 93500
2020-05-26 19:15 18.71 108000 136000 (2019) 30700 (1957) 55400 32500 35300 38900 39600 49500 68200 69900 81400 93500
2020-05-26 19:00 18.69 108000 136000 (2019) 30700 (1957) 55400 32500 35300 38900 39600 49500 68200 69900 81400 93500
2020-05-26 18:45 18.66 108000 136000 (2019) 30700 (1957) 55400 32500 35300 38900 39600 49500 68200 69900 81400 93500
2020-05-26 18:30 18.65 107000 136000 (2019) 30700 (1957) 55400 32500 35300 38900 39600 49500 68200 69900 81400 93500
2020-05-26 18:15 18.63 107000 136000 (2019) 30700 (1957) 55400 32500 35300 38900 39600 49500 68200 69900 81400 93500
2020-05-26 17:45 18.54 107000 136000 (2019) 30700 (1957) 55400 32500 35300 38900 39600 49500 68200 69900 81400 93500
2020-05-26 17:30 18.52 106000 136000 (2019) 30700 (1957) 55400 32500 35300 38900 39600 49500 68200 69900 81400 93500
2020-05-26 17:15 18.49 106000 136000 (2019) 30700 (1957) 55400 32500 35300 38900 39600 49500 68200 69900 81400 93500
2020-05-26 15:45 18.27 105000 136000 (2019) 30700 (1957) 55400 32500 35300 38900 39600 49500 68200 69900 81400 93500
2020-05-26 15:30 18.22 104000 136000 (2019) 30700 (1957) 55400 32500 35300 38900 39600 49500 68200 69900 81400 93500
2020-05-26 15:15 18.19 104000 136000 (2019) 30700 (1957) 55400 32500 35300 38900 39600 49500 68200 69900 81400 93500
2020-05-26 15:00 18.15 104000 136000 (2019) 30700 (1957) 55400 32500 35300 38900 39600 49500 68200 69900 81400 93500
2020-05-26 14:45 18.11 103000 136000 (2019) 30700 (1957) 55400 32500 35300 38900 39600 49500 68200 69900 81400 93500
2020-05-26 14:30 18.08 103000 136000 (2019) 30700 (1957) 55400 32500 35300 38900 39600 49500 68200 69900 81400 93500
2020-05-26 14:15 18.06 103000 136000 (2019) 30700 (1957) 55400 32500 35300 38900 39600 49500 68200 69900 81400 93500
2020-05-26 12:30 17.94 102000 136000 (2019) 30700 (1957) 55400 32500 35300 38900 39600 49500 68200 69900 81400 93500
2020-05-26 11:30 17.90 102000 136000 (2019) 30700 (1957) 55400 32500 35300 38900 39600 49500 68200 69900 81400 93500
2020-05-26 10:30 17.86 102000 136000 (2019) 30700 (1957) 55400 32500 35300 38900 39600 49500 68200 69900 81400 93500
2020-05-26 09:30 17.77 101000 136000 (2019) 30700 (1957) 55400 32500 35300 38900 39600 49500 68200 69900 81400 93500
2020-05-26 08:30 17.73 101000 136000 (2019) 30700 (1957) 55400 32500 35300 38900 39600 49500 68200 69900 81400 93500
2020-05-26 07:30 17.66 100000 136000 (2019) 30700 (1957) 55400 32500 35300 38900 39600 49500 68200 69900 81400 93500
2020-05-26 06:30 17.61 99700 136000 (2019) 30700 (1957) 55400 32500 35300 38900 39600 49500 68200 69900 81400 93500
2020-05-26 05:30 17.57 99400 136000 (2019) 30700 (1957) 55400 32500 35300 38900 39600 49500 68200 69900 81400 93500
2020-05-26 04:30 17.54 99200 136000 (2019) 30700 (1957) 55400 32500 35300 38900 39600 49500 68200 69900 81400 93500
2020-05-26 03:30 17.55 99300 136000 (2019) 30700 (1957) 55400 32500 35300 38900 39600 49500 68200 69900 81400 93500
2020-05-26 02:30 17.56 99300 136000 (2019) 30700 (1957) 55400 32500 35300 38900 39600 49500 68200 69900 81400 93500
2020-05-26 01:30 17.55 99300 136000 (2019) 30700 (1957) 55400 32500 35300 38900 39600 49500 68200 69900 81400 93500
2020-05-26 00:30 17.58 99500 136000 (2019) 30700 (1957) 55400 32500 35300 38900 39600 49500 68200 69900 81400 93500
2020-05-25 23:30 17.55 99300 137000 (2019) 31000 (1956) 55000 33600 35200 38000 40600 49100 66600 69800 85400 94300
2020-05-25 22:30 17.54 99200 137000 (2019) 31000 (1956) 55000 33600 35200 38000 40600 49100 66600 69800 85400 94300
2020-05-25 21:30 17.54 99200 137000 (2019) 31000 (1956) 55000 33600 35200 38000 40600 49100 66600 69800 85400 94300
2020-05-25 20:30 17.55 99300 137000 (2019) 31000 (1956) 55000 33600 35200 38000 40600 49100 66600 69800 85400 94300
2020-05-25 19:30 17.54 99200 137000 (2019) 31000 (1956) 55000 33600 35200 38000 40600 49100 66600 69800 85400 94300
2020-05-25 18:30 17.53 99100 137000 (2019) 31000 (1956) 55000 33600 35200 38000 40600 49100 66600 69800 85400 94300
2020-05-25 17:30 17.51 99000 137000 (2019) 31000 (1956) 55000 33600 35200 38000 40600 49100 66600 69800 85400 94300
2020-05-25 16:30 17.48 98800 137000 (2019) 31000 (1956) 55000 33600 35200 38000 40600 49100 66600 69800 85400 94300
2020-05-25 15:30 17.44 98500 137000 (2019) 31000 (1956) 55000 33600 35200 38000 40600 49100 66600 69800 85400 94300
2020-05-25 14:30 17.40 98200 137000 (2019) 31000 (1956) 55000 33600 35200 38000 40600 49100 66600 69800 85400 94300
2020-05-25 13:30 17.33 97700 137000 (2019) 31000 (1956) 55000 33600 35200 38000 40600 49100 66600 69800 85400 94300
2020-05-25 12:30 17.28 97300 137000 (2019) 31000 (1956) 55000 33600 35200 38000 40600 49100 66600 69800 85400 94300
2020-05-25 11:30 17.20 96700 137000 (2019) 31000 (1956) 55000 33600 35200 38000 40600 49100 66600 69800 85400 94300
2020-05-25 10:30 17.16 96400 137000 (2019) 31000 (1956) 55000 33600 35200 38000 40600 49100 66600 69800 85400 94300
2020-05-25 09:30 17.12 96100 137000 (2019) 31000 (1956) 55000 33600 35200 38000 40600 49100 66600 69800 85400 94300
2020-05-25 08:30 17.04 95500 137000 (2019) 31000 (1956) 55000 33600 35200 38000 40600 49100 66600 69800 85400 94300
2020-05-25 07:30 16.97 95000 137000 (2019) 31000 (1956) 55000 33600 35200 38000 40600 49100 66600 69800 85400 94300
2020-05-25 06:30 16.85 94200 137000 (2019) 31000 (1956) 55000 33600 35200 38000 40600 49100 66600 69800 85400 94300
2020-05-25 05:30 16.73 93300 137000 (2019) 31000 (1956) 55000 33600 35200 38000 40600 49100 66600 69800 85400 94300
2020-05-25 04:30 16.58 92200 137000 (2019) 31000 (1956) 55000 33600 35200 38000 40600 49100 66600 69800 85400 94300
2020-05-25 03:30 16.43 91100 137000 (2019) 31000 (1956) 55000 33600 35200 38000 40600 49100 66600 69800 85400 94300
2020-05-25 02:30 16.26 89900 137000 (2019) 31000 (1956) 55000 33600 35200 38000 40600 49100 66600 69800 85400 94300
2020-05-25 01:30 16.05 88400 137000 (2019) 31000 (1956) 55000 33600 35200 38000 40600 49100 66600 69800 85400 94300
2020-05-25 00:30 15.84 86900 137000 (2019) 31000 (1956) 55000 33600 35200 38000 40600 49100 66600 69800 85400 94300
2020-05-24 23:30 15.58 85100 126000 (2019) 31300 (1956) 55000 33000 34800 37300 39800 49500 67000 68700 86800 94100
2020-05-24 22:30 15.32 83300 126000 (2019) 31300 (1956) 55000 33000 34800 37300 39800 49500 67000 68700 86800 94100
2020-05-24 21:30 15.09 81700 126000 (2019) 31300 (1956) 55000 33000 34800 37300 39800 49500 67000 68700 86800 94100
2020-05-24 20:30 14.94 80600 126000 (2019) 31300 (1956) 55000 33000 34800 37300 39800 49500 67000 68700 86800 94100
2020-05-24 19:30 14.83 79900 126000 (2019) 31300 (1956) 55000 33000 34800 37300 39800 49500 67000 68700 86800 94100
2020-05-24 18:30 14.75 79300 126000 (2019) 31300 (1956) 55000 33000 34800 37300 39800 49500 67000 68700 86800 94100
2020-05-24 17:30 14.70 79000 126000 (2019) 31300 (1956) 55000 33000 34800 37300 39800 49500 67000 68700 86800 94100
2020-05-24 16:30 14.68 78800 126000 (2019) 31300 (1956) 55000 33000 34800 37300 39800 49500 67000 68700 86800 94100
2020-05-24 15:30 14.66 78700 126000 (2019) 31300 (1956) 55000 33000 34800 37300 39800 49500 67000 68700 86800 94100
2020-05-24 14:30 14.63 78500 126000 (2019) 31300 (1956) 55000 33000 34800 37300 39800 49500 67000 68700 86800 94100
2020-05-24 13:30 14.65 78600 126000 (2019) 31300 (1956) 55000 33000 34800 37300 39800 49500 67000 68700 86800 94100
2020-05-24 12:30 14.66 78700 126000 (2019) 31300 (1956) 55000 33000 34800 37300 39800 49500 67000 68700 86800 94100
2020-05-24 11:30 14.67 78800 126000 (2019) 31300 (1956) 55000 33000 34800 37300 39800 49500 67000 68700 86800 94100
2020-05-24 10:30 14.72 79100 126000 (2019) 31300 (1956) 55000 33000 34800 37300 39800 49500 67000 68700 86800 94100
2020-05-24 09:30 14.74 79200 126000 (2019) 31300 (1956) 55000 33000 34800 37300 39800 49500 67000 68700 86800 94100
2020-05-24 08:30 14.79 79600 126000 (2019) 31300 (1956) 55000 33000 34800 37300 39800 49500 67000 68700 86800 94100
2020-05-24 07:30 14.83 79900 126000 (2019) 31300 (1956) 55000 33000 34800 37300 39800 49500 67000 68700 86800 94100
2020-05-24 06:30 14.85 80000 126000 (2019) 31300 (1956) 55000 33000 34800 37300 39800 49500 67000 68700 86800 94100
2020-05-24 05:30 14.88 80200 126000 (2019) 31300 (1956) 55000 33000 34800 37300 39800 49500 67000 68700 86800 94100
2020-05-24 04:30 14.94 80600 126000 (2019) 31300 (1956) 55000 33000 34800 37300 39800 49500 67000 68700 86800 94100
2020-05-24 03:30 14.98 80900 126000 (2019) 31300 (1956) 55000 33000 34800 37300 39800 49500 67000 68700 86800 94100
2020-05-24 02:30 15.00 81000 126000 (2019) 31300 (1956) 55000 33000 34800 37300 39800 49500 67000 68700 86800 94100
2020-05-24 01:30 15.04 81300 126000 (2019) 31300 (1956) 55000 33000 34800 37300 39800 49500 67000 68700 86800 94100
2020-05-24 00:30 15.08 81600 126000 (2019) 31300 (1956) 55000 33000 34800 37300 39800 49500 67000 68700 86800 94100
2020-05-23 23:30 15.08 81600 115000 (2019) 30800 (1964) 55100 32100 34200 36900 38700 47600 67000 73900 87200 96800
2020-05-23 22:30 15.07 81500 115000 (2019) 30800 (1964) 55100 32100 34200 36900 38700 47600 67000 73900 87200 96800
2020-05-23 21:30 15.05 81400 115000 (2019) 30800 (1964) 55100 32100 34200 36900 38700 47600 67000 73900 87200 96800
2020-05-23 20:30 15.02 81200 115000 (2019) 30800 (1964) 55100 32100 34200 36900 38700 47600 67000 73900 87200 96800
2020-05-23 19:30 14.98 80900 115000 (2019) 30800 (1964) 55100 32100 34200 36900 38700 47600 67000 73900 87200 96800
2020-05-23 18:30 14.94 80600 115000 (2019) 30800 (1964) 55100 32100 34200 36900 38700 47600 67000 73900 87200 96800
2020-05-23 17:30 14.89 80300 115000 (2019) 30800 (1964) 55100 32100 34200 36900 38700 47600 67000 73900 87200 96800
2020-05-23 16:30 14.86 80100 115000 (2019) 30800 (1964) 55100 32100 34200 36900 38700 47600 67000 73900 87200 96800
2020-05-23 15:30 14.74 79200 115000 (2019) 30800 (1964) 55100 32100 34200 36900 38700 47600 67000 73900 87200 96800
2020-05-23 14:30 14.63 78500 115000 (2019) 30800 (1964) 55100 32100 34200 36900 38700 47600 67000 73900 87200 96800
2020-05-23 13:30 14.43 77100 115000 (2019) 30800 (1964) 55100 32100 34200 36900 38700 47600 67000 73900 87200 96800
2020-05-23 12:30 14.19 75500 115000 (2019) 30800 (1964) 55100 32100 34200 36900 38700 47600 67000 73900 87200 96800
2020-05-23 11:30 13.91 73600 115000 (2019) 30800 (1964) 55100 32100 34200 36900 38700 47600 67000 73900 87200 96800
2020-05-23 10:30 13.68 72000 115000 (2019) 30800 (1964) 55100 32100 34200 36900 38700 47600 67000 73900 87200 96800
2020-05-23 09:30 13.45 70500 115000 (2019) 30800 (1964) 55100 32100 34200 36900 38700 47600 67000 73900 87200 96800
2020-05-23 08:30 13.21 68900 115000 (2019) 30800 (1964) 55100 32100 34200 36900 38700 47600 67000 73900 87200 96800
2020-05-23 07:30 13.05 67900 115000 (2019) 30800 (1964) 55100 32100 34200 36900 38700 47600 67000 73900 87200 96800
2020-05-23 06:30 13.01 67600 115000 (2019) 30800 (1964) 55100 32100 34200 36900 38700 47600 67000 73900 87200 96800
2020-05-23 05:30 12.96 67300 115000 (2019) 30800 (1964) 55100 32100 34200 36900 38700 47600 67000 73900 87200 96800
2020-05-23 04:30 12.95 67200 115000 (2019) 30800 (1964) 55100 32100 34200 36900 38700 47600 67000 73900 87200